Wetterdaten: Montag, 23.05.2016
Datum Zeit Temp. A. Feuchte A. Luftdruck Regen Wind Richtung Richtung Sonnenschein ET UV Solar Taupunkt Windchill Windben Empfang
23.05.2016 00:00 18,7 C 69 % 1005,4 hPa 0,0 l/m 5,8 km/h (2 Bft) O-NO 70 0 min 0,000 mm 0,0 UV-I 0 W/m 12,9 C 18,7 C 8,0 km/h (2 Bft) 96,15 %
23.05.2016 00:02 18,7 C 69 % 1005,4 hPa 0,0 l/m 6,2 km/h (2 Bft) O-NO 78 0 min 0,000 mm 0,0 UV-I 0 W/m 12,9 C 18,7 C 12,9 km/h (3 Bft) 97,37 %
23.05.2016 00:03 18,6 C 69 % 1005,5 hPa 0,0 l/m 5,9 km/h (2 Bft) O-NO 60 0 min 0,000 mm 0,0 UV-I 0 W/m 12,8 C 18,6 C 8,0 km/h (2 Bft) 100,00 %
23.05.2016 00:04 18,6 C 69 % 1005,4 hPa 0,0 l/m 5,4 km/h (1 Bft) O-NO 58 0 min 0,000 mm 0,0 UV-I 0 W/m 12,8 C 18,6 C 8,0 km/h (2 Bft) 86,96 %
23.05.2016 00:05 18,6 C 70 % 1005,4 hPa 0,0 l/m 6,3 km/h (2 Bft) O-NO 57 0 min 0,000 mm 0,0 UV-I 0 W/m 13,0 C 18,6 C 8,0 km/h (2 Bft) 95,83 %
23.05.2016 00:06 18,4 C 70 % 1005,3 hPa 0,0 l/m 6,5 km/h (2 Bft) NO 55 0 min 0,000 mm 0,0 UV-I 0 W/m 12,8 C 18,4 C 8,0 km/h (2 Bft) 100,00 %
23.05.2016 00:07 18,4 C 70 % 1005,4 hPa 0,0 l/m 6,7 km/h (2 Bft) O-NO 74 0 min 0,000 mm 0,0 UV-I 0 W/m 12,8 C 18,3 C 9,7 km/h (2 Bft) 93,33 %
23.05.2016 00:08 18,4 C 70 % 1005,4 hPa 0,0 l/m 5,4 km/h (1 Bft) O-NO 65 0 min 0,000 mm 0,0 UV-I 0 W/m 12,8 C 18,4 C 6,4 km/h (2 Bft) 100,00 %
23.05.2016 00:09 18,3 C 70 % 1005,4 hPa 0,0 l/m 6,6 km/h (2 Bft) O-NO 69 0 min 0,000 mm 0,0 UV-I 0 W/m 12,7 C 18,2 C 8,0 km/h (2 Bft) 100,00 %
23.05.2016 00:10 18,3 C 70 % 1005,4 hPa 0,0 l/m 6,0 km/h (2 Bft) O-NO 57 0 min 0,000 mm 0,0 UV-I 0 W/m 12,7 C 18,3 C 8,0 km/h (2 Bft) 100,00 %
23.05.2016 00:11 18,3 C 70 % 1005,4 hPa 0,0 l/m 6,0 km/h (2 Bft) O-NO 73 0 min 0,000 mm 0,0 UV-I 0 W/m 12,7 C 18,3 C 8,0 km/h (2 Bft) 100,00 %
23.05.2016 00:12 18,3 C 70 % 1005,4 hPa 0,0 l/m 5,5 km/h (1 Bft) O-NO 63 0 min 0,000 mm 0,0 UV-I 0 W/m 12,7 C 18,3 C 8,0 km/h (2 Bft) 100,00 %
23.05.2016 00:13 18,3 C 70 % 1005,4 hPa 0,0 l/m 7,5 km/h (2 Bft) O-NO 74 0 min 0,000 mm 0,0 UV-I 0 W/m 12,7 C 17,8 C 9,7 km/h (2 Bft) 96,55 %
23.05.2016 00:14 18,3 C 70 % 1005,4 hPa 0,0 l/m 7,3 km/h (2 Bft) NO 42 0 min 0,000 mm 0,0 UV-I 0 W/m 12,7 C 17,9 C 9,7 km/h (2 Bft) 100,00 %
23.05.2016 00:15 18,3 C 70 % 1005,4 hPa 0,0 l/m 5,0 km/h (1 Bft) O-NO 67 0 min 0,000 mm 0,0 UV-I 0 W/m 12,7 C 18,3 C 8,0 km/h (2 Bft) 100,00 %
23.05.2016 00:16 18,3 C 70 % 1005,3 hPa 0,0 l/m 4,8 km/h (1 Bft) O-NO 58 0 min 0,000 mm 0,0 UV-I 0 W/m 12,7 C 18,3 C 8,0 km/h (2 Bft) 100,00 %
23.05.2016 00:17 18,3 C 70 % 1005,4 hPa 0,0 l/m 6,9 km/h (2 Bft) NO 55 0 min 0,000 mm 0,0 UV-I 0 W/m 12,7 C 18,1 C 9,7 km/h (2 Bft) 100,00 %
23.05.2016 00:18 18,3 C 70 % 1005,4 hPa 0,0 l/m 6,2 km/h (2 Bft) O-NO 67 0 min 0,000 mm 0,0 UV-I 0 W/m 12,7 C 18,3 C 8,0 km/h (2 Bft) 100,00 %
23.05.2016 00:19 18,3 C 70 % 1005,4 hPa 0,0 l/m 6,1 km/h (2 Bft) O-NO 59 0 min 0,000 mm 0,0 UV-I 0 W/m 12,7 C 18,3 C 8,0 km/h (2 Bft) 100,00 %
23.05.2016 00:20 18,3 C 70 % 1005,4 hPa 0,0 l/m 5,0 km/h (1 Bft) NO 47 0 min 0,000 mm 0,0 UV-I 0 W/m 12,7 C 18,3 C 6,4 km/h (2 Bft) 100,00 %
23.05.2016 00:21 18,3 C 70 % 1005,4 hPa 0,0 l/m 6,0 km/h (2 Bft) O-NO 72 0 min 0,000 mm 0,0 UV-I 0 W/m 12,7 C 18,3 C 8,0 km/h (2 Bft) 100,00 %
23.05.2016 00:22 18,3 C 70 % 1005,4 hPa 0,0 l/m 7,6 km/h (2 Bft) O-NO 66 0 min 0,000 mm 0,0 UV-I 0 W/m 12,7 C 17,7 C 11,3 km/h (2 Bft) 100,00 %
23.05.2016 00:23 18,3 C 69 % 1005,3 hPa 0,0 l/m 6,4 km/h (2 Bft) O-NO 65 0 min 0,000 mm 0,0 UV-I 0 W/m 12,5 C 18,3 C 9,7 km/h (2 Bft) 100,00 %
23.05.2016 00:24 18,3 C 70 % 1005,3 hPa 0,0 l/m 7,3 km/h (2 Bft) O-NO 60 0 min 0,000 mm 0,0 UV-I 0 W/m 12,7 C 17,9 C 12,9 km/h (3 Bft) 100,00 %
23.05.2016 00:25 18,4 C 69 % 1005,4 hPa 0,0 l/m 6,9 km/h (2 Bft) O-NO 59 0 min 0,000 mm 0,0 UV-I 0 W/m 12,6 C 18,2 C 9,7 km/h (2 Bft) 96,55 %
23.05.2016 00:26 18,4 C 69 % 1005,4 hPa 0,0 l/m 6,9 km/h (2 Bft) O-NO 68 0 min 0,000 mm 0,0 UV-I 0 W/m 12,6 C 18,2 C 8,0 km/h (2 Bft) 100,00 %
23.05.2016 00:27 18,4 C 69 % 1005,3 hPa 0,0 l/m 7,7 km/h (2 Bft) O-NO 66 0 min 0,000 mm 0,0 UV-I 0 W/m 12,6 C 17,8 C 9,7 km/h (2 Bft) 100,00 %
23.05.2016 00:28 18,4 C 69 % 1005,3 hPa 0,0 l/m 7,9 km/h (2 Bft) O-NO 72 0 min 0,000 mm 0,0 UV-I 0 W/m 12,6 C 17,7 C 9,7 km/h (2 Bft) 100,00 %
23.05.2016 00:29 18,4 C 69 % 1005,3 hPa 0,0 l/m 5,1 km/h (1 Bft) O-NO 61 0 min 0,000 mm 0,0 UV-I 0 W/m 12,6 C 18,4 C 6,4 km/h (2 Bft) 100,00 %
23.05.2016 00:30 18,4 C 69 % 1005,2 hPa 0,0 l/m 5,9 km/h (2 Bft) O-NO 59 0 min 0,000 mm 0,0 UV-I 0 W/m 12,6 C 18,4 C 8,0 km/h (2 Bft) 100,00 %
23.05.2016 00:31 18,4 C 69 % 1005,3 hPa 0,0 l/m 6,2 km/h (2 Bft) O-NO 69 0 min 0,000 mm 0,0 UV-I 0 W/m 12,6 C 18,4 C 8,0 km/h (2 Bft) 100,00 %
23.05.2016 00:32 18,4 C 69 % 1005,2 hPa 0,0 l/m 6,6 km/h (2 Bft) O-NO 71 0 min 0,000 mm 0,0 UV-I 0 W/m 12,6 C 18,3 C 8,0 km/h (2 Bft) 96,15 %
23.05.2016 00:33 18,3 C 69 % 1005,3 hPa 0,0 l/m 5,8 km/h (2 Bft) O-NO 65 0 min 0,000 mm 0,0 UV-I 0 W/m 12,5 C 18,3 C 9,7 km/h (2 Bft) 100,00 %
23.05.2016 00:34 18,3 C 69 % 1005,3 hPa 0,0 l/m 7,0 km/h (2 Bft) O-NO 67 0 min 0,000 mm 0,0 UV-I 0 W/m 12,5 C 18,0 C 9,7 km/h (2 Bft) 100,00 %
23.05.2016 00:35 18,3 C 70 % 1005,3 hPa 0,0 l/m 5,8 km/h (2 Bft) O-NO 77 0 min 0,000 mm 0,0 UV-I 0 W/m 12,7 C 18,3 C 6,4 km/h (2 Bft) 100,00 %
23.05.2016 00:36 18,3 C 70 % 1005,3 hPa 0,0 l/m 5,5 km/h (1 Bft) NO 46 0 min 0,000 mm 0,0 UV-I 0 W/m 12,7 C 18,3 C 8,0 km/h (2 Bft) 100,00 %
23.05.2016 00:37 18,3 C 70 % 1005,3 hPa 0,0 l/m 6,2 km/h (2 Bft) NO 40 0 min 0,000 mm 0,0 UV-I 0 W/m 12,7 C 18,3 C 9,7 km/h (2 Bft) 100,00 %
23.05.2016 00:38 18,3 C 70 % 1005,2 hPa 0,0 l/m 4,7 km/h (1 Bft) O-NO 72 0 min 0,000 mm 0,0 UV-I 0 W/m 12,7 C 18,3 C 6,4 km/h (2 Bft) 100,00 %
23.05.2016 00:39 18,2 C 70 % 1005,3 hPa 0,0 l/m 4,0 km/h (1 Bft) O-NO 69 0 min 0,000 mm 0,0 UV-I 0 W/m 12,6 C 18,2 C 6,4 km/h (2 Bft) 95,83 %
23.05.2016 00:40 18,2 C 70 % 1005,3 hPa 0,0 l/m 3,1 km/h (1 Bft) O-NO 69 0 min 0,000 mm 0,0 UV-I 0 W/m 12,6 C 18,2 C 4,8 km/h (1 Bft) 100,00 %
23.05.2016 00:41 18,1 C 70 % 1005,3 hPa 0,0 l/m 2,7 km/h (1 Bft) O-NO 69 0 min 0,000 mm 0,0 UV-I 0 W/m 12,5 C 18,1 C 4,8 km/h (1 Bft) 95,83 %
23.05.2016 00:42 18,0 C 71 % 1005,4 hPa 0,0 l/m 3,5 km/h (1 Bft) O-NO 68 0 min 0,000 mm 0,0 UV-I 0 W/m 12,7 C 18,0 C 4,8 km/h (1 Bft) 100,00 %
23.05.2016 00:43 17,9 C 71 % 1005,3 hPa 0,0 l/m 3,2 km/h (1 Bft) O-NO 69 0 min 0,000 mm 0,0 UV-I 0 W/m 12,6 C 17,9 C 4,8 km/h (1 Bft) 100,00 %
23.05.2016 00:44 17,9 C 71 % 1005,3 hPa 0,0 l/m 3,5 km/h (1 Bft) O-NO 62 0 min 0,000 mm 0,0 UV-I 0 W/m 12,6 C 17,9 C 6,4 km/h (2 Bft) 98,91 %
23.05.2016 00:45 17,9 C 71 % 1005,3 hPa 0,0 l/m 5,6 km/h (1 Bft) O-NO 73 0 min 0,000 mm 0,0 UV-I 0 W/m 12,6 C 17,9 C 8,0 km/h (2 Bft) 100,00 %
23.05.2016 00:46 17,9 C 71 % 1005,3 hPa 0,0 l/m 5,1 km/h (1 Bft) O-NO 69 0 min 0,000 mm 0,0 UV-I 0 W/m 12,6 C 17,9 C 8,0 km/h (2 Bft) 100,00 %
23.05.2016 00:47 17,9 C 71 % 1005,3 hPa 0,0 l/m 5,9 km/h (2 Bft) O-NO 74 0 min 0,000 mm 0,0 UV-I 0 W/m 12,6 C 17,9 C 8,0 km/h (2 Bft) 100,00 %
23.05.2016 00:48 17,9 C 71 % 1005,3 hPa 0,0 l/m 4,5 km/h (1 Bft) O-NO 73 0 min 0,000 mm 0,0 UV-I 0 W/m 12,6 C 17,9 C 6,4 km/h (2 Bft) 100,00 %
23.05.2016 00:49 17,9 C 71 % 1005,3 hPa 0,0 l/m 4,3 km/h (1 Bft) O-NO 67 0 min 0,000 mm 0,0 UV-I 0 W/m 12,6 C 17,9 C 4,8 km/h (1 Bft) 100,00 %
23.05.2016 00:50 17,8 C 71 % 1005,2 hPa 0,0 l/m 2,7 km/h (1 Bft) O-NO 62 0 min 0,000 mm 0,0 UV-I 0 W/m 12,5 C 17,8 C 3,2 km/h (1 Bft) 100,00 %
23.05.2016 00:51 17,8 C 71 % 1005,3 hPa 0,0 l/m 3,0 km/h (1 Bft) O-NO 62 0 min 0,000 mm 0,0 UV-I 0 W/m 12,5 C 17,8 C 4,8 km/h (1 Bft) 96,55 %
23.05.2016 00:52 17,8 C 71 % 1005,3 hPa 0,0 l/m 2,0 km/h (1 Bft) O-NO 62 0 min 0,000 mm 0,0 UV-I 0 W/m 12,5 C 17,8 C 3,2 km/h (1 Bft) 100,00 %
23.05.2016 00:53 17,7 C 72 % 1005,3 hPa 0,0 l/m 1,3 km/h (1 Bft) O-NO 62 0 min 0,000 mm 0,0 UV-I 0 W/m 12,6 C 17,7 C 3,2 km/h (1 Bft) 95,65 %
23.05.2016 00:54 17,4 C 72 % 1005,3 hPa 0,0 l/m 0,1 km/h (0 Bft) O-NO 62 0 min 0,000 mm 0,0 UV-I 0 W/m 12,3 C 17,4 C 1,6 km/h (1 Bft) 100,00 %
23.05.2016 00:55 17,2 C 73 % 1005,2 hPa 0,0 l/m 0,2 km/h (0 Bft) O-NO 62 0 min 0,000 mm 0,0 UV-I 0 W/m 12,3 C 17,2 C 1,6 km/h (1 Bft) 100,00 %
23.05.2016 00:56 16,9 C 74 % 1005,2 hPa 0,0 l/m 0,3 km/h (0 Bft) O-NO 62 0 min 0,000 mm 0,0 UV-I 0 W/m 12,2 C 16,9 C 1,6 km/h (1 Bft) 100,00 %
23.05.2016 00:57 16,6 C 75 % 1005,2 hPa 0,0 l/m 0,2 km/h (0 Bft) O-NO 62 0 min 0,000 mm 0,0 UV-I 0 W/m 12,1 C 16,6 C 1,6 km/h (1 Bft) 100,00 %
23.05.2016 00:58 16,4 C 76 % 1005,2 hPa 0,0 l/m 3,6 km/h (1 Bft) O-NO 61 0 min 0,000 mm 0,0 UV-I 0 W/m 12,2 C 16,4 C 4,8 km/h (1 Bft) 100,00 %
23.05.2016 00:59 16,3 C 77 % 1005,2 hPa 0,0 l/m 4,6 km/h (1 Bft) NO 55 0 min 0,000 mm 0,0 UV-I 0 W/m 12,3 C 16,3 C 6,4 km/h (2 Bft) 100,00 %
23.05.2016 01:00 16,3 C 77 % 1005,3 hPa 0,0 l/m 4,4 km/h (1 Bft) NO 55 0 min 0,025 mm 0,0 UV-I 0 W/m 12,3 C 16,3 C 4,8 km/h (1 Bft) 95,83 %
23.05.2016 01:02 16,4 C 77 % 1005,3 hPa 0,0 l/m 2,2 km/h (1 Bft) NO 53 0 min 0,000 mm 0,0 UV-I 0 W/m 12,4 C 16,4 C 4,8 km/h (1 Bft) 100,00 %
23.05.2016 01:03 16,4 C 77 % 1005,3 hPa 0,0 l/m 0,1 km/h (0 Bft) NO 53 0 min 0,000 mm 0,0 UV-I 0 W/m 12,4 C 16,4 C 1,6 km/h (1 Bft) 95,65 %
23.05.2016 01:04 16,5 C 77 % 1005,3 hPa 0,0 l/m 0,1 km/h (0 Bft) NO 53 0 min 0,000 mm 0,0 UV-I 0 W/m 12,5 C 16,5 C 1,6 km/h (1 Bft) 95,83 %
23.05.2016 01:05 16,5 C 77 % 1005,2 hPa 0,0 l/m 0,3 km/h (0 Bft) NO 53 0 min 0,000 mm 0,0 UV-I 0 W/m 12,5 C 16,5 C 1,6 km/h (1 Bft) 100,00 %
23.05.2016 01:06 16,4 C 77 % 1005,3 hPa 0,0 l/m 1,0 km/h (0 Bft) NO 53 0 min 0,000 mm 0,0 UV-I 0 W/m 12,4 C 16,4 C 1,6 km/h (1 Bft) 100,00 %
23.05.2016 01:07 16,4 C 77 % 1005,3 hPa 0,0 l/m 1,7 km/h (1 Bft) NO 53 0 min 0,000 mm 0,0 UV-I 0 W/m 12,4 C 16,4 C 3,2 km/h (1 Bft) 100,00 %
23.05.2016 01:08 16,4 C 77 % 1005,2 hPa 0,0 l/m 2,1 km/h (1 Bft) NO 53 0 min 0,000 mm 0,0 UV-I 0 W/m 12,4 C 16,4 C 3,2 km/h (1 Bft) 100,00 %
23.05.2016 01:09 16,3 C 78 % 1005,2 hPa 0,0 l/m 2,2 km/h (1 Bft) NO 53 0 min 0,000 mm 0,0 UV-I 0 W/m 12,5 C 16,3 C 3,2 km/h (1 Bft) 100,00 %
23.05.2016 01:10 16,2 C 78 % 1005,2 hPa 0,0 l/m 3,2 km/h (1 Bft) NO 53 0 min 0,000 mm 0,0 UV-I 0 W/m 12,4 C 16,2 C 3,2 km/h (1 Bft) 100,00 %
23.05.2016 01:11 16,1 C 79 % 1005,2 hPa 0,0 l/m 2,9 km/h (1 Bft) NO 53 0 min 0,000 mm 0,0 UV-I 0 W/m 12,5 C 16,1 C 3,2 km/h (1 Bft) 100,00 %
23.05.2016 01:12 15,9 C 80 % 1005,2 hPa 0,0 l/m 3,1 km/h (1 Bft) NO 53 0 min 0,000 mm 0,0 UV-I 0 W/m 12,5 C 15,9 C 3,2 km/h (1 Bft) 100,00 %
23.05.2016 01:13 15,7 C 80 % 1005,2 hPa 0,0 l/m 1,9 km/h (1 Bft) NO 53 0 min 0,000 mm 0,0 UV-I 0 W/m 12,3 C 15,7 C 3,2 km/h (1 Bft) 100,00 %
23.05.2016 01:14 15,7 C 80 % 1005,2 hPa 0,0 l/m 0,9 km/h (0 Bft) NO 53 0 min 0,000 mm 0,0 UV-I 0 W/m 12,3 C 15,7 C 1,6 km/h (1 Bft) 96,88 %
23.05.2016 01:15 15,6 C 81 % 1005,3 hPa 0,0 l/m 0,3 km/h (0 Bft) NO 53 0 min 0,000 mm 0,0 UV-I 0 W/m 12,3 C 15,6 C 1,6 km/h (1 Bft) 100,00 %
23.05.2016 01:16 15,6 C 81 % 1005,3 hPa 0,0 l/m 0,0 km/h (0 Bft) NO 53 0 min 0,000 mm 0,0 UV-I 0 W/m 12,3 C 15,6 C 0,0 km/h (0 Bft) 95,65 %
23.05.2016 01:17 15,6 C 81 % 1005,4 hPa 0,0 l/m 0,0 km/h (0 Bft) NO 53 0 min 0,000 mm 0,0 UV-I 0 W/m 12,3 C 15,6 C 0,0 km/h (0 Bft) 100,00 %
23.05.2016 01:18 15,5 C 81 % 1005,3 hPa 0,0 l/m 0,0 km/h (0 Bft) NO 53 0 min 0,000 mm 0,0 UV-I 0 W/m 12,3 C 15,5 C 0,0 km/h (0 Bft) 100,00 %
23.05.2016 01:19 15,4 C 81 % 1005,3 hPa 0,0 l/m 0,0 km/h (0 Bft) NO 53 0 min 0,000 mm 0,0 UV-I 0 W/m 12,2 C 15,4 C 0,0 km/h (0 Bft) 100,00 %
23.05.2016 01:20 15,5 C 81 % 1005,4 hPa 0,0 l/m 0,0 km/h (0 Bft) NO 53 0 min 0,000 mm 0,0 UV-I 0 W/m 12,3 C 15,5 C 0,0 km/h (0 Bft) 100,00 %
23.05.2016 01:21 15,5 C 82 % 1005,4 hPa 0,0 l/m 0,0 km/h (0 Bft) NO 53 0 min 0,000 mm 0,0 UV-I 0 W/m 12,4 C 15,5 C 0,0 km/h (0 Bft) 100,00 %
23.05.2016 01:22 15,5 C 82 % 1005,4 hPa 0,0 l/m 0,1 km/h (0 Bft) NO 53 0 min 0,000 mm 0,0 UV-I 0 W/m 12,4 C 15,5 C 1,6 km/h (1 Bft) 97,37 %
23.05.2016 01:23 15,6 C 81 % 1005,4 hPa 0,0 l/m 1,3 km/h (1 Bft) NO 53 0 min 0,000 mm 0,0 UV-I 0 W/m 12,3 C 15,6 C 1,6 km/h (1 Bft) 100,00 %
23.05.2016 01:24 15,5 C 82 % 1005,4 hPa 0,0 l/m 0,9 km/h (0 Bft) NO 53 0 min 0,000 mm 0,0 UV-I 0 W/m 12,4 C 15,5 C 1,6 km/h (1 Bft) 100,00 %
23.05.2016 01:25 15,4 C 82 % 1005,4 hPa 0,0 l/m 0,1 km/h (0 Bft) NO 53 0 min 0,000 mm 0,0 UV-I 0 W/m 12,3 C 15,4 C 1,6 km/h (1 Bft) 100,00 %
23.05.2016 01:26 15,4 C 82 % 1005,4 hPa 0,0 l/m 1,7 km/h (1 Bft) NO 53 0 min 0,000 mm 0,0 UV-I 0 W/m 12,3 C 15,4 C 3,2 km/h (1 Bft) 100,00 %
23.05.2016 01:27 15,3 C 82 % 1005,4 hPa 0,0 l/m 2,3 km/h (1 Bft) NO 53 0 min 0,000 mm 0,0 UV-I 0 W/m 12,2 C 15,3 C 3,2 km/h (1 Bft) 100,00 %
23.05.2016 01:28 15,3 C 82 % 1005,4 hPa 0,0 l/m 2,3 km/h (1 Bft) NO 53 0 min 0,000 mm 0,0 UV-I 0 W/m 12,2 C 15,3 C 3,2 km/h (1 Bft) 100,00 %
23.05.2016 01:29 15,2 C 82 % 1005,5 hPa 0,0 l/m 1,8 km/h (1 Bft) NO 53 0 min 0,000 mm 0,0 UV-I 0 W/m 12,1 C 15,2 C 3,2 km/h (1 Bft) 100,00 %
23.05.2016 01:30 15,1 C 83 % 1005,4 hPa 0,0 l/m 1,9 km/h (1 Bft) NO 53 0 min 0,000 mm 0,0 UV-I 0 W/m 12,2 C 15,1 C 3,2 km/h (1 Bft) 100,00 %
23.05.2016 01:31 15,0 C 83 % 1005,4 hPa 0,0 l/m 2,0 km/h (1 Bft) NO 53 0 min 0,000 mm 0,0 UV-I 0 W/m 12,1 C 15,0 C 3,2 km/h (1 Bft) 100,00 %
23.05.2016 01:32 14,9 C 84 % 1005,4 hPa 0,0 l/m 1,9 km/h (1 Bft) NO 53 0 min 0,000 mm 0,0 UV-I 0 W/m 12,2 C 14,9 C 3,2 km/h (1 Bft) 100,00 %
23.05.2016 01:33 14,9 C 84 % 1005,4 hPa 0,0 l/m 1,7 km/h (1 Bft) NO 53 0 min 0,000 mm 0,0 UV-I 0 W/m 12,2 C 14,9 C 3,2 km/h (1 Bft) 92,31 %
23.05.2016 01:34 14,9 C 83 % 1005,5 hPa 0,0 l/m 1,5 km/h (1 Bft) NO 53 0 min 0,000 mm 0,0 UV-I 0 W/m 12,0 C 14,9 C 3,2 km/h (1 Bft) 100,00 %
23.05.2016 01:35 14,9 C 84 % 1005,5 hPa 0,0 l/m 2,3 km/h (1 Bft) NO 53 0 min 0,000 mm 0,0 UV-I 0 W/m 12,2 C 14,9 C 3,2 km/h (1 Bft) 96,15 %
23.05.2016 01:36 14,9 C 84 % 1005,5 hPa 0,0 l/m 2,0 km/h (1 Bft) NO 53 0 min 0,000 mm 0,0 UV-I 0 W/m 12,2 C 14,9 C 3,2 km/h (1 Bft) 95,83 %
23.05.2016 01:37 14,9 C 84 % 1005,5 hPa 0,0 l/m 2,3 km/h (1 Bft) NO 53 0 min 0,000 mm 0,0 UV-I 0 W/m 12,2 C 14,9 C 3,2 km/h (1 Bft) 100,00 %
23.05.2016 01:38 14,9 C 84 % 1005,5 hPa 0,0 l/m 2,8 km/h (1 Bft) NO 53 0 min 0,000 mm 0,0 UV-I 0 W/m 12,2 C 14,9 C 3,2 km/h (1 Bft) 96,30 %
23.05.2016 01:39 15,0 C 84 % 1005,5 hPa 0,0 l/m 2,4 km/h (1 Bft) NO 53 0 min 0,000 mm 0,0 UV-I 0 W/m 12,3 C 15,0 C 3,2 km/h (1 Bft) 96,15 %
23.05.2016 01:40 14,9 C 84 % 1005,5 hPa 0,0 l/m 2,5 km/h (1 Bft) NO 53 0 min 0,000 mm 0,0 UV-I 0 W/m 12,2 C 14,9 C 3,2 km/h (1 Bft) 100,00 %
23.05.2016 01:41 14,9 C 84 % 1005,5 hPa 0,0 l/m 2,6 km/h (1 Bft) NO 53 0 min 0,000 mm 0,0 UV-I 0 W/m 12,2 C 14,9 C 3,2 km/h (1 Bft) 96,77 %
23.05.2016 01:42 14,9 C 84 % 1005,6 hPa 0,0 l/m 2,7 km/h (1 Bft) NO 53 0 min 0,000 mm 0,0 UV-I 0 W/m 12,2 C 14,9 C 3,2 km/h (1 Bft) 96,67 %
23.05.2016 01:43 14,9 C 84 % 1005,6 hPa 0,0 l/m 2,8 km/h (1 Bft) S 186 0 min 0,000 mm 0,0 UV-I 0 W/m 12,2 C 14,9 C 4,8 km/h (1 Bft) 100,00 %
23.05.2016 01:44 14,9 C 84 % 1005,6 hPa 0,0 l/m 2,5 km/h (1 Bft) S 186 0 min 0,000 mm 0,0 UV-I 0 W/m 12,2 C 14,9 C 3,2 km/h (1 Bft) 96,55 %
23.05.2016 01:45 14,9 C 84 % 1005,6 hPa 0,0 l/m 3,0 km/h (1 Bft) S 186 0 min 0,000 mm 0,0 UV-I 0 W/m 12,2 C 14,9 C 3,2 km/h (1 Bft) 100,00 %
23.05.2016 01:46 14,9 C 84 % 1005,6 hPa 0,0 l/m 3,2 km/h (1 Bft) S 186 0 min 0,000 mm 0,0 UV-I 0 W/m 12,2 C 14,9 C 3,2 km/h (1 Bft) 95,65 %
23.05.2016 01:47 14,8 C 84 % 1005,6 hPa 0,0 l/m 3,1 km/h (1 Bft) S 186 0 min 0,000 mm 0,0 UV-I 0 W/m 12,1 C 14,8 C 3,2 km/h (1 Bft) 96,15 %
23.05.2016 01:48 14,8 C 84 % 1005,7 hPa 0,0 l/m 3,1 km/h (1 Bft) S 186 0 min 0,000 mm 0,0 UV-I 0 W/m 12,1 C 14,8 C 4,8 km/h (1 Bft) 100,00 %
23.05.2016 01:49 14,7 C 84 % 1005,7 hPa 0,0 l/m 3,4 km/h (1 Bft) S 186 0 min 0,000 mm 0,0 UV-I 0 W/m 12,0 C 14,7 C 4,8 km/h (1 Bft) 91,67 %
23.05.2016 01:50 14,7 C 84 % 1005,7 hPa 0,0 l/m 3,6 km/h (1 Bft) S 186 0 min 0,000 mm 0,0 UV-I 0 W/m 12,0 C 14,7 C 4,8 km/h (1 Bft) 100,00 %
23.05.2016 01:51 14,6 C 84 % 1005,7 hPa 0,0 l/m 4,9 km/h (1 Bft) S 186 0 min 0,000 mm 0,0 UV-I 0 W/m 11,9 C 14,6 C 6,4 km/h (2 Bft) 96,30 %
23.05.2016 01:52 14,6 C 85 % 1005,8 hPa 0,0 l/m 5,5 km/h (1 Bft) SW 234 0 min 0,000 mm 0,0 UV-I 0 W/m 12,1 C 14,6 C 6,4 km/h (2 Bft) 96,55 %
23.05.2016 01:53 14,6 C 85 % 1005,9 hPa 0,0 l/m 7,0 km/h (2 Bft) W-SW 247 0 min 0,000 mm 0,0 UV-I 0 W/m 12,1 C 14,3 C 9,7 km/h (2 Bft) 96,30 %
23.05.2016 01:54 14,6 C 85 % 1006,0 hPa 0,0 l/m 7,1 km/h (2 Bft) SW 229 0 min 0,000 mm 0,0 UV-I 0 W/m 12,1 C 14,2 C 9,7 km/h (2 Bft) 100,00 %
23.05.2016 01:55 14,6 C 85 % 1006,0 hPa 0,0 l/m 6,0 km/h (2 Bft) SW 217 0 min 0,000 mm 0,0 UV-I 0 W/m 12,1 C 14,6 C 8,0 km/h (2 Bft) 96,67 %
23.05.2016 01:56 14,6 C 84 % 1006,1 hPa 0,0 l/m 6,5 km/h (2 Bft) S-SW 208 0 min 0,000 mm 0,0 UV-I 0 W/m 11,9 C 14,6 C 8,0 km/h (2 Bft) 95,65 %
23.05.2016 01:57 14,5 C 85 % 1006,0 hPa 0,0 l/m 4,0 km/h (1 Bft) S-SW 201 0 min 0,000 mm 0,0 UV-I 0 W/m 12,0 C 14,5 C 6,4 km/h (2 Bft) 100,00 %
23.05.2016 01:58 14,6 C 85 % 1005,9 hPa 0,0 l/m 3,1 km/h (1 Bft) S-SW 201 0 min 0,000 mm 0,0 UV-I 0 W/m 12,1 C 14,6 C 4,8 km/h (1 Bft) 95,65 %
23.05.2016 01:59 14,7 C 85 % 1005,9 hPa 0,0 l/m 0,8 km/h (0 Bft) S-SW 201 0 min 0,000 mm 0,0 UV-I 0 W/m 12,2 C 14,7 C 1,6 km/h (1 Bft) 100,00 %
23.05.2016 02:00 14,7 C 84 % 1005,9 hPa 0,0 l/m 1,5 km/h (1 Bft) S-SW 198 0 min 0,000 mm 0,0 UV-I 0 W/m 12,0 C 14,7 C 4,8 km/h (1 Bft) 91,30 %
23.05.2016 02:02 14,7 C 84 % 1005,9 hPa 0,0 l/m 2,0 km/h (1 Bft) S 170 0 min 0,000 mm 0,0 UV-I 0 W/m 12,0 C 14,7 C 6,4 km/h (2 Bft) 98,00 %
23.05.2016 02:03 14,7 C 84 % 1005,9 hPa 0,0 l/m 0,8 km/h (0 Bft) S 170 0 min 0,000 mm 0,0 UV-I 0 W/m 12,0 C 14,7 C 1,6 km/h (1 Bft) 95,83 %
23.05.2016 02:04 14,7 C 84 % 1005,9 hPa 0,0 l/m 0,6 km/h (0 Bft) S 170 0 min 0,000 mm 0,0 UV-I 0 W/m 12,0 C 14,7 C 1,6 km/h (1 Bft) 100,00 %
23.05.2016 02:05 14,7 C 84 % 1005,9 hPa 0,0 l/m 1,0 km/h (0 Bft) S 170 0 min 0,000 mm 0,0 UV-I 0 W/m 12,0 C 14,7 C 3,2 km/h (1 Bft) 86,96 %
23.05.2016 02:06 14,7 C 84 % 1005,8 hPa 0,0 l/m 1,5 km/h (1 Bft) S 170 0 min 0,000 mm 0,0 UV-I 0 W/m 12,0 C 14,7 C 3,2 km/h (1 Bft) 100,00 %
23.05.2016 02:07 14,8 C 84 % 1005,9 hPa 0,0 l/m 0,9 km/h (0 Bft) S 170 0 min 0,000 mm 0,0 UV-I 0 W/m 12,1 C 14,8 C 1,6 km/h (1 Bft) 95,65 %
23.05.2016 02:08 14,9 C 84 % 1005,9 hPa 0,0 l/m 4,3 km/h (1 Bft) S 170 0 min 0,000 mm 0,0 UV-I 0 W/m 12,2 C 14,9 C 6,4 km/h (2 Bft) 100,00 %
23.05.2016 02:09 14,9 C 84 % 1005,9 hPa 0,0 l/m 5,6 km/h (1 Bft) SW 218 0 min 0,000 mm 0,0 UV-I 0 W/m 12,2 C 14,9 C 8,0 km/h (2 Bft) 95,65 %
23.05.2016 02:10 14,9 C 83 % 1006,0 hPa 0,0 l/m 6,6 km/h (2 Bft) SW 217 0 min 0,000 mm 0,0 UV-I 0 W/m 12,0 C 14,8 C 8,0 km/h (2 Bft) 100,00 %
23.05.2016 02:11 14,9 C 84 % 1006,0 hPa 0,0 l/m 5,0 km/h (1 Bft) S-SW 198 0 min 0,000 mm 0,0 UV-I 0 W/m 12,2 C 14,9 C 6,4 km/h (2 Bft) 100,00 %
23.05.2016 02:12 14,9 C 84 % 1006,0 hPa 0,0 l/m 4,0 km/h (1 Bft) S-SO 165 0 min 0,000 mm 0,0 UV-I 0 W/m 12,2 C 14,9 C 8,0 km/h (2 Bft) 96,30 %
23.05.2016 02:13 14,9 C 84 % 1005,9 hPa 0,0 l/m 1,9 km/h (1 Bft) S-SO 166 0 min 0,000 mm 0,0 UV-I 0 W/m 12,2 C 14,9 C 4,8 km/h (1 Bft) 100,00 %
23.05.2016 02:14 14,9 C 84 % 1005,9 hPa 0,0 l/m 1,9 km/h (1 Bft) S-SO 161 0 min 0,000 mm 0,0 UV-I 0 W/m 12,2 C 14,9 C 4,8 km/h (1 Bft) 100,00 %
23.05.2016 02:15 14,9 C 83 % 1005,9 hPa 0,0 l/m 1,8 km/h (1 Bft) S-SO 163 0 min 0,000 mm 0,0 UV-I 0 W/m 12,0 C 14,9 C 3,2 km/h (1 Bft) 100,00 %
23.05.2016 02:16 14,9 C 83 % 1005,9 hPa 0,0 l/m 1,5 km/h (1 Bft) S-SO 163 0 min 0,000 mm 0,0 UV-I 0 W/m 12,0 C 14,9 C 1,6 km/h (1 Bft) 100,00 %
23.05.2016 02:17 14,9 C 83 % 1005,9 hPa 0,0 l/m 0,8 km/h (0 Bft) S-SO 163 0 min 0,000 mm 0,0 UV-I 0 W/m 12,0 C 14,9 C 1,6 km/h (1 Bft) 100,00 %
23.05.2016 02:18 14,9 C 83 % 1005,9 hPa 0,0 l/m 1,1 km/h (1 Bft) S-SO 163 0 min 0,000 mm 0,0 UV-I 0 W/m 12,0 C 14,9 C 1,6 km/h (1 Bft) 95,83 %
23.05.2016 02:19 14,9 C 83 % 1005,9 hPa 0,0 l/m 0,7 km/h (0 Bft) S-SO 163 0 min 0,000 mm 0,0 UV-I 0 W/m 12,0 C 14,9 C 1,6 km/h (1 Bft) 100,00 %
23.05.2016 02:20 14,9 C 83 % 1005,9 hPa 0,0 l/m 2,3 km/h (1 Bft) S-SO 163 0 min 0,000 mm 0,0 UV-I 0 W/m 12,0 C 14,9 C 6,4 km/h (2 Bft) 100,00 %
23.05.2016 02:21 14,9 C 83 % 1006,0 hPa 0,0 l/m 3,2 km/h (1 Bft) S-SO 163 0 min 0,000 mm 0,0 UV-I 0 W/m 12,0 C 14,9 C 6,4 km/h (2 Bft) 95,65 %
23.05.2016 02:22 15,0 C 83 % 1006,0 hPa 0,0 l/m 3,7 km/h (1 Bft) S 170 0 min 0,000 mm 0,0 UV-I 0 W/m 12,1 C 15,0 C 8,0 km/h (2 Bft) 100,00 %
23.05.2016 02:23 15,0 C 83 % 1005,9 hPa 0,0 l/m 6,1 km/h (2 Bft) S-SW 205 0 min 0,000 mm 0,0 UV-I 0 W/m 12,1 C 15,0 C 8,0 km/h (2 Bft) 100,00 %
23.05.2016 02:24 15,0 C 83 % 1006,0 hPa 0,0 l/m 5,1 km/h (1 Bft) S-SW 213 0 min 0,000 mm 0,0 UV-I 0 W/m 12,1 C 15,0 C 6,4 km/h (2 Bft) 100,00 %
23.05.2016 02:25 15,1 C 83 % 1006,0 hPa 0,0 l/m 4,6 km/h (1 Bft) SW 226 0 min 0,000 mm 0,0 UV-I 0 W/m 12,2 C 15,1 C 8,0 km/h (2 Bft) 100,00 %
23.05.2016 02:26 15,1 C 83 % 1006,0 hPa 0,0 l/m 4,1 km/h (1 Bft) S-SW 202 0 min 0,000 mm 0,0 UV-I 0 W/m 12,2 C 15,1 C 6,4 km/h (2 Bft) 100,00 %
23.05.2016 02:27 15,1 C 83 % 1005,9 hPa 0,0 l/m 3,6 km/h (1 Bft) S 180 0 min 0,000 mm 0,0 UV-I 0 W/m 12,2 C 15,1 C 4,8 km/h (1 Bft) 100,00 %
23.05.2016 02:28 15,1 C 83 % 1005,9 hPa 0,0 l/m 2,9 km/h (1 Bft) S-SO 165 0 min 0,000 mm 0,0 UV-I 0 W/m 12,2 C 15,1 C 6,4 km/h (2 Bft) 100,00 %
23.05.2016 02:29 15,1 C 83 % 1005,9 hPa 0,0 l/m 3,3 km/h (1 Bft) S-SO 165 0 min 0,000 mm 0,0 UV-I 0 W/m 12,2 C 15,1 C 6,4 km/h (2 Bft) 100,00 %
23.05.2016 02:30 15,1 C 83 % 1005,9 hPa 0,0 l/m 3,4 km/h (1 Bft) S 172 0 min 0,000 mm 0,0 UV-I 0 W/m 12,2 C 15,1 C 8,0 km/h (2 Bft) 100,00 %
23.05.2016 02:31 15,1 C 83 % 1005,9 hPa 0,0 l/m 4,6 km/h (1 Bft) S 176 0 min 0,000 mm 0,0 UV-I 0 W/m 12,2 C 15,1 C 8,0 km/h (2 Bft) 96,30 %
23.05.2016 02:32 15,1 C 83 % 1006,0 hPa 0,0 l/m 5,0 km/h (1 Bft) S 184 0 min 0,000 mm 0,0 UV-I 0 W/m 12,2 C 15,1 C 6,4 km/h (2 Bft) 100,00 %
23.05.2016 02:33 15,1 C 83 % 1006,0 hPa 0,0 l/m 4,8 km/h (1 Bft) S-SW 196 0 min 0,000 mm 0,0 UV-I 0 W/m 12,2 C 15,1 C 6,4 km/h (2 Bft) 100,00 %
23.05.2016 02:34 15,1 C 83 % 1006,0 hPa 0,0 l/m 3,0 km/h (1 Bft) S 186 0 min 0,000 mm 0,0 UV-I 0 W/m 12,2 C 15,1 C 4,8 km/h (1 Bft) 100,00 %
23.05.2016 02:35 15,1 C 83 % 1005,9 hPa 0,0 l/m 3,4 km/h (1 Bft) S 188 0 min 0,000 mm 0,0 UV-I 0 W/m 12,2 C 15,1 C 6,4 km/h (2 Bft) 100,00 %
23.05.2016 02:36 15,1 C 83 % 1006,0 hPa 0,0 l/m 3,7 km/h (1 Bft) S-SW 192 0 min 0,000 mm 0,0 UV-I 0 W/m 12,2 C 15,1 C 4,8 km/h (1 Bft) 100,00 %
23.05.2016 02:37 15,1 C 83 % 1005,9 hPa 0,0 l/m 5,6 km/h (1 Bft) S-SW 198 0 min 0,000 mm 0,0 UV-I 0 W/m 12,2 C 15,1 C 8,0 km/h (2 Bft) 95,83 %
23.05.2016 02:38 15,1 C 83 % 1006,0 hPa 0,0 l/m 3,9 km/h (1 Bft) S-SW 195 0 min 0,000 mm 0,0 UV-I 0 W/m 12,2 C 15,1 C 6,4 km/h (2 Bft) 100,00 %
23.05.2016 02:39 15,1 C 83 % 1006,0 hPa 0,0 l/m 4,6 km/h (1 Bft) S-SW 205 0 min 0,000 mm 0,0 UV-I 0 W/m 12,2 C 15,1 C 4,8 km/h (1 Bft) 100,00 %
23.05.2016 02:40 15,1 C 84 % 1006,0 hPa 0,0 l/m 5,6 km/h (1 Bft) SW 227 0 min 0,000 mm 0,0 UV-I 0 W/m 12,4 C 15,1 C 6,4 km/h (2 Bft) 100,00 %
23.05.2016 02:41 15,1 C 84 % 1005,9 hPa 0,0 l/m 4,1 km/h (1 Bft) S-SO 155 0 min 0,000 mm 0,0 UV-I 0 W/m 12,4 C 15,1 C 6,4 km/h (2 Bft) 100,00 %
23.05.2016 02:42 15,1 C 84 % 1005,9 hPa 0,0 l/m 3,8 km/h (1 Bft) S-SO 153 0 min 0,000 mm 0,0 UV-I 0 W/m 12,4 C 15,1 C 6,4 km/h (2 Bft) 100,00 %
23.05.2016 02:43 15,0 C 84 % 1005,9 hPa 0,0 l/m 6,2 km/h (2 Bft) S-SW 196 0 min 0,000 mm 0,0 UV-I 0 W/m 12,3 C 15,0 C 9,7 km/h (2 Bft) 100,00 %
23.05.2016 02:44 15,0 C 84 % 1005,9 hPa 0,0 l/m 4,8 km/h (1 Bft) SW 227 0 min 0,000 mm 0,0 UV-I 0 W/m 12,3 C 15,0 C 6,4 km/h (2 Bft) 100,00 %
23.05.2016 02:45 14,9 C 84 % 1006,0 hPa 0,0 l/m 2,5 km/h (1 Bft) SW 227 0 min 0,000 mm 0,0 UV-I 0 W/m 12,2 C 14,9 C 4,8 km/h (1 Bft) 100,00 %
23.05.2016 02:46 14,9 C 84 % 1005,9 hPa 0,0 l/m 4,0 km/h (1 Bft) S-SO 157 0 min 0,000 mm 0,0 UV-I 0 W/m 12,2 C 14,9 C 6,4 km/h (2 Bft) 100,00 %
23.05.2016 02:47 14,9 C 84 % 1005,9 hPa 0,0 l/m 5,0 km/h (1 Bft) S 174 0 min 0,000 mm 0,0 UV-I 0 W/m 12,2 C 14,9 C 9,7 km/h (2 Bft) 100,00 %
23.05.2016 02:48 14,9 C 84 % 1005,9 hPa 0,0 l/m 6,5 km/h (2 Bft) S-SW 192 0 min 0,000 mm 0,0 UV-I 0 W/m 12,2 C 14,9 C 9,7 km/h (2 Bft) 100,00 %
23.05.2016 02:49 14,9 C 84 % 1006,0 hPa 0,0 l/m 6,9 km/h (2 Bft) S-SW 198 0 min 0,000 mm 0,0 UV-I 0 W/m 12,2 C 14,6 C 9,7 km/h (2 Bft) 100,00 %
23.05.2016 02:50 14,9 C 84 % 1006,0 hPa 0,0 l/m 6,9 km/h (2 Bft) S-SW 201 0 min 0,000 mm 0,0 UV-I 0 W/m 12,2 C 14,6 C 9,7 km/h (2 Bft) 96,67 %
23.05.2016 02:51 14,9 C 84 % 1005,9 hPa 0,0 l/m 6,3 km/h (2 Bft) S 173 0 min 0,000 mm 0,0 UV-I 0 W/m 12,2 C 14,9 C 9,7 km/h (2 Bft) 100,00 %
23.05.2016 02:52 14,9 C 84 % 1006,0 hPa 0,0 l/m 5,1 km/h (1 Bft) S 175 0 min 0,000 mm 0,0 UV-I 0 W/m 12,2 C 14,9 C 8,0 km/h (2 Bft) 100,00 %
23.05.2016 02:53 15,0 C 84 % 1005,9 hPa 0,0 l/m 7,2 km/h (2 Bft) S 188 0 min 0,000 mm 0,0 UV-I 0 W/m 12,3 C 14,5 C 11,3 km/h (2 Bft) 100,00 %
23.05.2016 02:54 15,0 C 84 % 1006,0 hPa 0,0 l/m 6,3 km/h (2 Bft) S 188 0 min 0,000 mm 0,0 UV-I 0 W/m 12,3 C 15,0 C 9,7 km/h (2 Bft) 100,00 %
23.05.2016 02:55 15,0 C 84 % 1006,0 hPa 0,0 l/m 6,3 km/h (2 Bft) S 190 0 min 0,000 mm 0,0 UV-I 0 W/m 12,3 C 15,0 C 9,7 km/h (2 Bft) 100,00 %
23.05.2016 02:56 15,0 C 84 % 1006,1 hPa 0,0 l/m 7,0 km/h (2 Bft) S-SW 198 0 min 0,000 mm 0,0 UV-I 0 W/m 12,3 C 14,7 C 9,7 km/h (2 Bft) 100,00 %
23.05.2016 02:57 15,0 C 84 % 1006,1 hPa 0,0 l/m 6,7 km/h (2 Bft) S-SW 200 0 min 0,000 mm 0,0 UV-I 0 W/m 12,3 C 14,8 C 9,7 km/h (2 Bft) 100,00 %
23.05.2016 02:58 14,9 C 84 % 1006,0 hPa 0,0 l/m 7,2 km/h (2 Bft) S 175 0 min 0,000 mm 0,0 UV-I 0 W/m 12,2 C 14,4 C 9,7 km/h (2 Bft) 100,00 %
23.05.2016 02:59 14,9 C 84 % 1006,0 hPa 0,0 l/m 6,9 km/h (2 Bft) S 173 0 min 0,000 mm 0,0 UV-I 0 W/m 12,2 C 14,6 C 9,7 km/h (2 Bft) 100,00 %
23.05.2016 03:00 14,9 C 85 % 1006,0 hPa 0,0 l/m 7,6 km/h (2 Bft) S-SW 202 0 min 0,000 mm 0,0 UV-I 0 W/m 12,4 C 14,2 C 9,7 km/h (2 Bft) 100,00 %
23.05.2016 03:02 14,8 C 85 % 1006,1 hPa 0,0 l/m 6,4 km/h (2 Bft) S-SW 198 0 min 0,000 mm 0,0 UV-I 0 W/m 12,3 C 14,8 C 9,7 km/h (2 Bft) 100,00 %
23.05.2016 03:03 14,8 C 85 % 1006,1 hPa 0,0 l/m 8,0 km/h (2 Bft) SW 229 0 min 0,000 mm 0,0 UV-I 0 W/m 12,3 C 13,9 C 11,3 km/h (2 Bft) 100,00 %
23.05.2016 03:04 14,8 C 85 % 1006,1 hPa 0,0 l/m 4,8 km/h (1 Bft) S-SW 213 0 min 0,000 mm 0,0 UV-I 0 W/m 12,3 C 14,8 C 6,4 km/h (2 Bft) 100,00 %
23.05.2016 03:05 14,7 C 85 % 1006,1 hPa 0,0 l/m 5,4 km/h (1 Bft) SW 218 0 min 0,000 mm 0,0 UV-I 0 W/m 12,2 C 14,7 C 6,4 km/h (2 Bft) 100,00 %
23.05.2016 03:06 14,7 C 85 % 1006,1 hPa 0,0 l/m 5,3 km/h (1 Bft) W-SW 237 0 min 0,000 mm 0,0 UV-I 0 W/m 12,2 C 14,7 C 6,4 km/h (2 Bft) 100,00 %
23.05.2016 03:07 14,6 C 85 % 1006,1 hPa 0,0 l/m 5,6 km/h (1 Bft) SW 215 0 min 0,000 mm 0,0 UV-I 0 W/m 12,1 C 14,6 C 8,0 km/h (2 Bft) 100,00 %
23.05.2016 03:08 14,5 C 85 % 1006,1 hPa 0,0 l/m 5,2 km/h (1 Bft) S-SW 204 0 min 0,000 mm 0,0 UV-I 0 W/m 12,0 C 14,5 C 6,4 km/h (2 Bft) 100,00 %
23.05.2016 03:09 14,4 C 86 % 1006,1 hPa 0,0 l/m 6,4 km/h (2 Bft) S-SW 206 0 min 0,000 mm 0,0 UV-I 0 W/m 12,1 C 14,4 C 8,0 km/h (2 Bft) 100,00 %
23.05.2016 03:10 14,3 C 86 % 1006,2 hPa 0,0 l/m 6,9 km/h (2 Bft) S-SW 200 0 min 0,000 mm 0,0 UV-I 0 W/m 12,0 C 14,0 C 9,7 km/h (2 Bft) 100,00 %
23.05.2016 03:11 14,3 C 86 % 1006,2 hPa 0,0 l/m 6,2 km/h (2 Bft) SW 229 0 min 0,000 mm 0,0 UV-I 0 W/m 12,0 C 14,3 C 9,7 km/h (2 Bft) 100,00 %
23.05.2016 03:12 14,2 C 86 % 1006,2 hPa 0,0 l/m 4,6 km/h (1 Bft) S-SW 209 0 min 0,000 mm 0,0 UV-I 0 W/m 11,9 C 14,2 C 6,4 km/h (2 Bft) 100,00 %
23.05.2016 03:13 14,2 C 87 % 1006,2 hPa 0,0 l/m 8,1 km/h (2 Bft) S-SW 203 0 min 0,000 mm 0,0 UV-I 0 W/m 12,1 C 13,2 C 9,7 km/h (2 Bft) 100,00 %
23.05.2016 03:14 14,1 C 87 % 1006,2 hPa 0,0 l/m 7,5 km/h (2 Bft) SW 226 0 min 0,000 mm 0,0 UV-I 0 W/m 12,0 C 13,4 C 9,7 km/h (2 Bft) 100,00 %
23.05.2016 03:15 14,1 C 87 % 1006,3 hPa 0,0 l/m 7,2 km/h (2 Bft) SW 215 0 min 0,000 mm 0,0 UV-I 0 W/m 12,0 C 13,6 C 9,7 km/h (2 Bft) 100,00 %
23.05.2016 03:16 14,2 C 87 % 1006,2 hPa 0,0 l/m 6,8 km/h (2 Bft) S-SW 205 0 min 0,000 mm 0,0 UV-I 0 W/m 12,1 C 14,0 C 8,0 km/h (2 Bft) 100,00 %
23.05.2016 03:17 14,2 C 87 % 1006,2 hPa 0,0 l/m 6,3 km/h (2 Bft) S-SW 201 0 min 0,000 mm 0,0 UV-I 0 W/m 12,1 C 14,2 C 8,0 km/h (2 Bft) 100,00 %
23.05.2016 03:18 14,2 C 87 % 1006,2 hPa 0,0 l/m 7,8 km/h (2 Bft) S-SW 209 0 min 0,000 mm 0,0 UV-I 0 W/m 12,1 C 13,4 C 9,7 km/h (2 Bft) 100,00 %
23.05.2016 03:19 14,2 C 87 % 1006,3 hPa 0,0 l/m 5,9 km/h (2 Bft) SW 216 0 min 0,000 mm 0,0 UV-I 0 W/m 12,1 C 14,2 C 8,0 km/h (2 Bft) 100,00 %
23.05.2016 03:20 14,2 C 87 % 1006,3 hPa 0,0 l/m 6,2 km/h (2 Bft) S-SW 198 0 min 0,000 mm 0,0 UV-I 0 W/m 12,1 C 14,2 C 8,0 km/h (2 Bft) 100,00 %
23.05.2016 03:21 14,2 C 87 % 1006,3 hPa 0,0 l/m 7,2 km/h (2 Bft) SW 225 0 min 0,000 mm 0,0 UV-I 0 W/m 12,1 C 13,7 C 9,7 km/h (2 Bft) 100,00 %
23.05.2016 03:22 14,2 C 88 % 1006,3 hPa 0,0 l/m 9,2 km/h (2 Bft) W-SW 237 0 min 0,000 mm 0,0 UV-I 0 W/m 12,2 C 12,6 C 14,5 km/h (3 Bft) 100,00 %
23.05.2016 03:23 14,2 C 88 % 1006,3 hPa 0,0 l/m 10,7 km/h (2 Bft) S 180 0 min 0,000 mm 0,0 UV-I 0 W/m 12,2 C 11,9 C 14,5 km/h (3 Bft) 100,00 %
23.05.2016 03:24 14,2 C 88 % 1006,3 hPa 0,0 l/m 8,7 km/h (2 Bft) SW 236 0 min 0,000 mm 0,0 UV-I 0 W/m 12,2 C 12,9 C 11,3 km/h (2 Bft) 100,00 %
23.05.2016 03:25 14,3 C 88 % 1006,3 hPa 0,0 l/m 7,2 km/h (2 Bft) S-SW 202 0 min 0,000 mm 0,0 UV-I 0 W/m 12,3 C 13,8 C 11,3 km/h (2 Bft) 100,00 %
23.05.2016 03:26 14,3 C 88 % 1006,3 hPa 0,0 l/m 9,3 km/h (2 Bft) W-SW 240 0 min 0,000 mm 0,0 UV-I 0 W/m 12,3 C 12,7 C 14,5 km/h (3 Bft) 100,00 %
23.05.2016 03:27 14,3 C 88 % 1006,4 hPa 0,0 l/m 10,1 km/h (2 Bft) SW 218 0 min 0,000 mm 0,0 UV-I 0 W/m 12,3 C 12,3 C 12,9 km/h (3 Bft) 100,00 %
23.05.2016 03:28 14,3 C 88 % 1006,3 hPa 0,0 l/m 10,9 km/h (2 Bft) SW 218 0 min 0,000 mm 0,0 UV-I 0 W/m 12,3 C 11,9 C 14,5 km/h (3 Bft) 100,00 %
23.05.2016 03:29 14,4 C 88 % 1006,3 hPa 0,0 l/m 11,5 km/h (2 Bft) SW 225 0 min 0,000 mm 0,0 UV-I 0 W/m 12,4 C 11,8 C 17,7 km/h (3 Bft) 100,00 %
23.05.2016 03:30 14,4 C 88 % 1006,3 hPa 0,0 l/m 11,3 km/h (2 Bft) SW 227 0 min 0,000 mm 0,0 UV-I 0 W/m 12,4 C 11,9 C 14,5 km/h (3 Bft) 100,00 %
23.05.2016 03:31 14,4 C 88 % 1006,3 hPa 0,0 l/m 10,8 km/h (2 Bft) SW 234 0 min 0,000 mm 0,0 UV-I 0 W/m 12,4 C 12,1 C 14,5 km/h (3 Bft) 100,00 %
23.05.2016 03:32 14,4 C 87 % 1006,3 hPa 0,0 l/m 9,7 km/h (2 Bft) SW 219 0 min 0,000 mm 0,0 UV-I 0 W/m 12,3 C 12,6 C 12,9 km/h (3 Bft) 100,00 %
23.05.2016 03:33 14,4 C 87 % 1006,3 hPa 0,0 l/m 9,7 km/h (2 Bft) SW 222 0 min 0,000 mm 0,0 UV-I 0 W/m 12,3 C 12,6 C 14,5 km/h (3 Bft) 100,00 %
23.05.2016 03:34 14,5 C 87 % 1006,3 hPa 0,0 l/m 9,5 km/h (2 Bft) W-SW 243 0 min 0,000 mm 0,0 UV-I 0 W/m 12,4 C 12,8 C 12,9 km/h (3 Bft) 95,83 %
23.05.2016 03:35 14,6 C 87 % 1006,3 hPa 0,0 l/m 9,6 km/h (2 Bft) SW 232 0 min 0,000 mm 0,0 UV-I 0 W/m 12,5 C 12,9 C 16,1 km/h (3 Bft) 100,00 %
23.05.2016 03:36 14,7 C 87 % 1006,3 hPa 0,0 l/m 9,9 km/h (2 Bft) W-SW 239 0 min 0,000 mm 0,0 UV-I 0 W/m 12,6 C 12,8 C 12,9 km/h (3 Bft) 100,00 %
23.05.2016 03:37 14,7 C 87 % 1006,3 hPa 0,0 l/m 7,4 km/h (2 Bft) W-SW 238 0 min 0,000 mm 0,0 UV-I 0 W/m 12,6 C 14,1 C 9,7 km/h (2 Bft) 100,00 %
23.05.2016 03:38 14,8 C 86 % 1006,3 hPa 0,0 l/m 10,1 km/h (2 Bft) SW 234 0 min 0,000 mm 0,0 UV-I 0 W/m 12,5 C 12,9 C 14,5 km/h (3 Bft) 96,30 %
23.05.2016 03:39 14,9 C 86 % 1006,3 hPa 0,0 l/m 8,4 km/h (2 Bft) W-SW 242 0 min 0,000 mm 0,0 UV-I 0 W/m 12,6 C 13,8 C 12,9 km/h (3 Bft) 100,00 %
23.05.2016 03:40 14,9 C 85 % 1006,3 hPa 0,0 l/m 8,0 km/h (2 Bft) SW 216 0 min 0,000 mm 0,0 UV-I 0 W/m 12,4 C 14,0 C 9,7 km/h (2 Bft) 96,30 %
23.05.2016 03:41 15,1 C 85 % 1006,3 hPa 0,0 l/m 8,3 km/h (2 Bft) SW 230 0 min 0,000 mm 0,0 UV-I 0 W/m 12,6 C 14,0 C 11,3 km/h (2 Bft) 100,00 %
23.05.2016 03:42 15,1 C 85 % 1006,3 hPa 0,0 l/m 7,3 km/h (2 Bft) SW 234 0 min 0,000 mm 0,0 UV-I 0 W/m 12,6 C 14,6 C 9,7 km/h (2 Bft) 95,83 %
23.05.2016 03:43 15,1 C 84 % 1006,3 hPa 0,0 l/m 8,0 km/h (2 Bft) W-SW 253 0 min 0,000 mm 0,0 UV-I 0 W/m 12,4 C 14,2 C 11,3 km/h (2 Bft) 100,00 %
23.05.2016 03:44 15,2 C 84 % 1006,3 hPa 0,0 l/m 7,7 km/h (2 Bft) W-SW 239 0 min 0,000 mm 0,0 UV-I 0 W/m 12,5 C 14,5 C 11,3 km/h (2 Bft) 96,15 %
23.05.2016 03:45 15,2 C 84 % 1006,3 hPa 0,0 l/m 8,4 km/h (2 Bft) W-SW 248 0 min 0,000 mm 0,0 UV-I 0 W/m 12,5 C 14,1 C 11,3 km/h (2 Bft) 100,00 %
23.05.2016 03:46 15,2 C 84 % 1006,3 hPa 0,0 l/m 10,5 km/h (2 Bft) W-SW 256 0 min 0,000 mm 0,0 UV-I 0 W/m 12,5 C 13,1 C 12,9 km/h (3 Bft) 95,65 %
23.05.2016 03:47 15,3 C 84 % 1006,3 hPa 0,0 l/m 10,2 km/h (2 Bft) W-SW 257 0 min 0,000 mm 0,0 UV-I 0 W/m 12,6 C 13,4 C 16,1 km/h (3 Bft) 96,30 %
23.05.2016 03:48 15,3 C 83 % 1006,4 hPa 0,0 l/m 11,0 km/h (2 Bft) W-SW 246 0 min 0,000 mm 0,0 UV-I 0 W/m 12,4 C 13,0 C 12,9 km/h (3 Bft) 100,00 %
23.05.2016 03:49 15,3 C 83 % 1006,4 hPa 0,0 l/m 7,1 km/h (2 Bft) W-SW 247 0 min 0,000 mm 0,0 UV-I 0 W/m 12,4 C 14,9 C 11,3 km/h (2 Bft) 96,30 %
23.05.2016 03:50 15,3 C 83 % 1006,4 hPa 0,0 l/m 8,6 km/h (2 Bft) S-SW 205 0 min 0,000 mm 0,0 UV-I 0 W/m 12,4 C 14,1 C 12,9 km/h (3 Bft) 100,00 %
23.05.2016 03:51 15,3 C 83 % 1006,4 hPa 0,0 l/m 7,9 km/h (2 Bft) SW 221 0 min 0,000 mm 0,0 UV-I 0 W/m 12,4 C 14,5 C 9,7 km/h (2 Bft) 83,33 %
23.05.2016 03:52 15,3 C 83 % 1006,4 hPa 0,0 l/m 8,1 km/h (2 Bft) SW 236 0 min 0,000 mm 0,0 UV-I 0 W/m 12,4 C 14,4 C 11,3 km/h (2 Bft) 100,00 %
23.05.2016 03:53 15,2 C 83 % 1006,4 hPa 0,0 l/m 8,1 km/h (2 Bft) W-SW 250 0 min 0,000 mm 0,0 UV-I 0 W/m 12,3 C 14,3 C 11,3 km/h (2 Bft) 96,67 %
23.05.2016 03:54 15,2 C 83 % 1006,4 hPa 0,0 l/m 7,5 km/h (2 Bft) W-SW 243 0 min 0,000 mm 0,0 UV-I 0 W/m 12,3 C 14,6 C 12,9 km/h (3 Bft) 96,15 %
23.05.2016 03:55 15,1 C 84 % 1006,4 hPa 0,0 l/m 8,7 km/h (2 Bft) W-SW 251 0 min 0,000 mm 0,0 UV-I 0 W/m 12,4 C 13,8 C 12,9 km/h (3 Bft) 100,00 %
23.05.2016 03:56 15,1 C 84 % 1006,4 hPa 0,0 l/m 8,9 km/h (2 Bft) W-SW 244 0 min 0,000 mm 0,0 UV-I 0 W/m 12,4 C 13,7 C 12,9 km/h (3 Bft) 100,00 %
23.05.2016 03:57 15,1 C 84 % 1006,4 hPa 0,0 l/m 9,6 km/h (2 Bft) SW 221 0 min 0,000 mm 0,0 UV-I 0 W/m 12,4 C 13,4 C 12,9 km/h (3 Bft) 95,83 %
23.05.2016 03:58 15,1 C 84 % 1006,4 hPa 0,0 l/m 9,1 km/h (2 Bft) SW 225 0 min 0,000 mm 0,0 UV-I 0 W/m 12,4 C 13,6 C 12,9 km/h (3 Bft) 95,65 %
23.05.2016 03:59 15,1 C 84 % 1006,4 hPa 0,0 l/m 8,3 km/h (2 Bft) W-SW 250 0 min 0,000 mm 0,0 UV-I 0 W/m 12,4 C 14,0 C 12,9 km/h (3 Bft) 100,00 %
23.05.2016 04:00 15,1 C 84 % 1006,5 hPa 0,0 l/m 8,3 km/h (2 Bft) W-SW 243 0 min 0,026 mm 0,0 UV-I 0 W/m 12,4 C 14,0 C 14,5 km/h (3 Bft) 96,15 %
23.05.2016 04:02 15,1 C 83 % 1006,4 hPa 0,0 l/m 7,2 km/h (2 Bft) SW 236 0 min 0,000 mm 0,0 UV-I 0 W/m 12,2 C 14,6 C 12,9 km/h (3 Bft) 94,74 %
23.05.2016 04:03 15,1 C 83 % 1006,4 hPa 0,0 l/m 9,6 km/h (2 Bft) SW 236 0 min 0,000 mm 0,0 UV-I 0 W/m 12,2 C 13,4 C 16,1 km/h (3 Bft) 100,00 %
23.05.2016 04:04 15,1 C 83 % 1006,4 hPa 0,0 l/m 11,7 km/h (2 Bft) SW 222 0 min 0,000 mm 0,0 UV-I 0 W/m 12,2 C 12,5 C 14,5 km/h (3 Bft) 96,15 %
23.05.2016 04:05 15,2 C 83 % 1006,4 hPa 0,0 l/m 11,9 km/h (2 Bft) W-SW 244 0 min 0,000 mm 0,0 UV-I 0 W/m 12,3 C 12,5 C 16,1 km/h (3 Bft) 100,00 %
23.05.2016 04:06 15,2 C 82 % 1006,4 hPa 0,0 l/m 10,3 km/h (2 Bft) SW 236 0 min 0,000 mm 0,0 UV-I 0 W/m 12,1 C 13,2 C 14,5 km/h (3 Bft) 96,30 %
23.05.2016 04:07 15,2 C 82 % 1006,5 hPa 0,0 l/m 9,9 km/h (2 Bft) W-SW 242 0 min 0,000 mm 0,0 UV-I 0 W/m 12,1 C 13,4 C 12,9 km/h (3 Bft) 96,15 %
23.05.2016 04:08 15,3 C 82 % 1006,5 hPa 0,0 l/m 11,8 km/h (2 Bft) W-SW 248 0 min 0,000 mm 0,0 UV-I 0 W/m 12,2 C 12,7 C 14,5 km/h (3 Bft) 100,00 %
23.05.2016 04:09 15,3 C 82 % 1006,5 hPa 0,0 l/m 12,3 km/h (3 Bft) SW 234 0 min 0,000 mm 0,0 UV-I 0 W/m 12,2 C 12,5 C 16,1 km/h (3 Bft) 96,15 %
23.05.2016 04:10 15,4 C 81 % 1006,5 hPa 0,0 l/m 13,0 km/h (3 Bft) W-SW 242 0 min 0,000 mm 0,0 UV-I 0 W/m 12,2 C 12,4 C 16,1 km/h (3 Bft) 100,00 %
23.05.2016 04:11 15,4 C 81 % 1006,5 hPa 0,0 l/m 10,5 km/h (2 Bft) W-SW 251 0 min 0,000 mm 0,0 UV-I 0 W/m 12,2 C 13,3 C 14,5 km/h (3 Bft) 96,15 %
23.05.2016 04:12 15,4 C 81 % 1006,5 hPa 0,0 l/m 12,2 km/h (2 Bft) W-SW 243 0 min 0,000 mm 0,0 UV-I 0 W/m 12,2 C 12,7 C 14,5 km/h (3 Bft) 100,00 %
23.05.2016 04:13 15,5 C 80 % 1006,5 hPa 0,0 l/m 11,3 km/h (2 Bft) W-SW 257 0 min 0,000 mm 0,0 UV-I 0 W/m 12,1 C 13,1 C 16,1 km/h (3 Bft) 96,15 %
23.05.2016 04:14 15,6 C 80 % 1006,6 hPa 0,0 l/m 12,2 km/h (2 Bft) W-SW 250 0 min 0,000 mm 0,0 UV-I 0 W/m 12,2 C 12,9 C 14,5 km/h (3 Bft) 100,00 %
23.05.2016 04:15 15,6 C 80 % 1006,6 hPa 0,0 l/m 12,7 km/h (3 Bft) W-SW 247 0 min 0,000 mm 0,0 UV-I 0 W/m 12,2 C 12,7 C 16,1 km/h (3 Bft) 96,15 %
23.05.2016 04:16 15,7 C 80 % 1006,6 hPa 0,0 l/m 11,6 km/h (2 Bft) W-SW 244 0 min 0,000 mm 0,0 UV-I 0 W/m 12,3 C 13,2 C 14,5 km/h (3 Bft) 100,00 %
23.05.2016 04:17 15,7 C 79 % 1006,6 hPa 0,0 l/m 13,4 km/h (3 Bft) W-SW 248 0 min 0,000 mm 0,0 UV-I 0 W/m 12,1 C 12,6 C 19,3 km/h (3 Bft) 100,00 %
23.05.2016 04:18 15,7 C 79 % 1006,7 hPa 0,0 l/m 12,1 km/h (2 Bft) W-SW 242 0 min 0,000 mm 0,0 UV-I 0 W/m 12,1 C 13,0 C 16,1 km/h (3 Bft) 100,00 %
23.05.2016 04:19 15,8 C 79 % 1006,7 hPa 0,0 l/m 10,2 km/h (2 Bft) SW 233 0 min 0,000 mm 0,0 UV-I 0 W/m 12,2 C 13,9 C 16,1 km/h (3 Bft) 100,00 %
23.05.2016 04:20 15,7 C 79 % 1006,7 hPa 0,0 l/m 11,9 km/h (2 Bft) SW 220 0 min 0,000 mm 0,0 UV-I 0 W/m 12,1 C 13,1 C 14,5 km/h (3 Bft) 100,00 %
23.05.2016 04:21 15,7 C 79 % 1006,7 hPa 0,0 l/m 11,3 km/h (2 Bft) W-SW 241 0 min 0,000 mm 0,0 UV-I 0 W/m 12,1 C 13,3 C 14,5 km/h (3 Bft) 100,00 %
23.05.2016 04:22 15,7 C 79 % 1006,7 hPa 0,0 l/m 9,3 km/h (2 Bft) SW 225 0 min 0,000 mm 0,0 UV-I 0 W/m 12,1 C 14,2 C 12,9 km/h (3 Bft) 100,00 %
23.05.2016 04:23 15,6 C 79 % 1006,7 hPa 0,0 l/m 10,7 km/h (2 Bft) SW 231 0 min 0,000 mm 0,0 UV-I 0 W/m 12,0 C 13,5 C 14,5 km/h (3 Bft) 100,00 %
23.05.2016 04:24 15,6 C 79 % 1006,7 hPa 0,0 l/m 10,7 km/h (2 Bft) SW 218 0 min 0,000 mm 0,0 UV-I 0 W/m 12,0 C 13,5 C 12,9 km/h (3 Bft) 96,15 %
23.05.2016 04:25 15,5 C 79 % 1006,8 hPa 0,0 l/m 8,4 km/h (2 Bft) W-SW 248 0 min 0,000 mm 0,0 UV-I 0 W/m 11,9 C 14,4 C 12,9 km/h (3 Bft) 100,00 %
23.05.2016 04:26 15,5 C 80 % 1006,8 hPa 0,0 l/m 8,9 km/h (2 Bft) SW 223 0 min 0,000 mm 0,0 UV-I 0 W/m 12,1 C 14,2 C 11,3 km/h (2 Bft) 100,00 %
23.05.2016 04:27 15,4 C 80 % 1006,8 hPa 0,0 l/m 9,8 km/h (2 Bft) W-SW 246 0 min 0,000 mm 0,0 UV-I 0 W/m 12,0 C 13,6 C 17,7 km/h (3 Bft) 100,00 %
23.05.2016 04:28 15,4 C 80 % 1006,8 hPa 0,0 l/m 11,0 km/h (2 Bft) W-SW 253 0 min 0,000 mm 0,0 UV-I 0 W/m 12,0 C 13,1 C 16,1 km/h (3 Bft) 100,00 %
23.05.2016 04:29 15,4 C 80 % 1006,8 hPa 0,0 l/m 11,9 km/h (2 Bft) SW 223 0 min 0,000 mm 0,0 UV-I 0 W/m 12,0 C 12,8 C 19,3 km/h (3 Bft) 100,00 %
23.05.2016 04:30 15,4 C 80 % 1006,8 hPa 0,0 l/m 12,6 km/h (3 Bft) W-SW 242 0 min 0,000 mm 0,0 UV-I 0 W/m 12,0 C 12,5 C 17,7 km/h (3 Bft) 100,00 %
23.05.2016 04:31 15,4 C 80 % 1006,8 hPa 0,0 l/m 11,3 km/h (2 Bft) W-SW 239 0 min 0,000 mm 0,0 UV-I 0 W/m 12,0 C 13,0 C 16,1 km/h (3 Bft) 100,00 %
23.05.2016 04:32 15,4 C 80 % 1006,8 hPa 0,0 l/m 12,3 km/h (3 Bft) S-SW 213 0 min 0,000 mm 0,0 UV-I 0 W/m 12,0 C 12,6 C 16,1 km/h (3 Bft) 100,00 %
23.05.2016 04:33 15,4 C 80 % 1006,8 hPa 0,0 l/m 12,3 km/h (3 Bft) SW 226 0 min 0,000 mm 0,0 UV-I 0 W/m 12,0 C 12,6 C 17,7 km/h (3 Bft) 100,00 %
23.05.2016 04:34 15,4 C 80 % 1006,8 hPa 0,0 l/m 15,4 km/h (3 Bft) SW 230 0 min 0,000 mm 0,0 UV-I 0 W/m 12,0 C 11,5 C 20,9 km/h (4 Bft) 100,00 %
23.05.2016 04:35 15,4 C 80 % 1006,8 hPa 0,0 l/m 17,5 km/h (3 Bft) W-SW 241 0 min 0,000 mm 0,0 UV-I 0 W/m 12,0 C 10,9 C 22,5 km/h (4 Bft) 96,30 %
23.05.2016 04:36 15,4 C 80 % 1006,9 hPa 0,0 l/m 15,0 km/h (3 Bft) SW 225 0 min 0,000 mm 0,0 UV-I 0 W/m 12,0 C 11,7 C 19,3 km/h (3 Bft) 100,00 %
23.05.2016 04:37 15,4 C 80 % 1006,8 hPa 0,0 l/m 15,9 km/h (3 Bft) SW 232 0 min 0,000 mm 0,0 UV-I 0 W/m 12,0 C 11,4 C 22,5 km/h (4 Bft) 100,00 %
23.05.2016 04:38 15,4 C 80 % 1006,8 hPa 0,0 l/m 13,5 km/h (3 Bft) SW 232 0 min 0,000 mm 0,0 UV-I 0 W/m 12,0 C 12,2 C 17,7 km/h (3 Bft) 100,00 %
23.05.2016 04:39 15,4 C 80 % 1006,9 hPa 0,0 l/m 17,9 km/h (3 Bft) SW 227 0 min 0,000 mm 0,0 UV-I 0 W/m 12,0 C 10,8 C 22,5 km/h (4 Bft) 100,00 %
23.05.2016 04:40 15,4 C 80 % 1006,9 hPa 0,0 l/m 17,6 km/h (3 Bft) W-SW 241 0 min 0,000 mm 0,0 UV-I 0 W/m 12,0 C 10,9 C 22,5 km/h (4 Bft) 95,65 %
23.05.2016 04:41 15,4 C 80 % 1006,8 hPa 0,0 l/m 16,4 km/h (3 Bft) SW 229 0 min 0,000 mm 0,0 UV-I 0 W/m 12,0 C 11,2 C 22,5 km/h (4 Bft) 100,00 %
23.05.2016 04:42 15,4 C 80 % 1006,9 hPa 0,0 l/m 17,3 km/h (3 Bft) SW 221 0 min 0,000 mm 0,0 UV-I 0 W/m 12,0 C 11,0 C 22,5 km/h (4 Bft) 100,00 %
23.05.2016 04:43 15,4 C 81 % 1006,8 hPa 0,0 l/m 14,6 km/h (3 Bft) SW 229 0 min 0,000 mm 0,0 UV-I 0 W/m 12,2 C 11,8 C 20,9 km/h (4 Bft) 100,00 %
23.05.2016 04:44 15,4 C 80 % 1006,9 hPa 0,0 l/m 15,5 km/h (3 Bft) SW 228 0 min 0,000 mm 0,0 UV-I 0 W/m 12,0 C 11,5 C 20,9 km/h (4 Bft) 100,00 %
23.05.2016 04:45 15,4 C 81 % 1006,9 hPa 0,0 l/m 16,5 km/h (3 Bft) SW 231 0 min 0,000 mm 0,0 UV-I 0 W/m 12,2 C 11,2 C 22,5 km/h (4 Bft) 95,65 %
23.05.2016 04:46 15,4 C 81 % 1006,9 hPa 0,0 l/m 15,7 km/h (3 Bft) SW 227 0 min 0,000 mm 0,0 UV-I 0 W/m 12,2 C 11,5 C 20,9 km/h (4 Bft) 96,30 %
23.05.2016 04:47 15,5 C 81 % 1006,9 hPa 0,0 l/m 14,6 km/h (3 Bft) SW 232 0 min 0,000 mm 0,0 UV-I 0 W/m 12,3 C 11,9 C 17,7 km/h (3 Bft) 92,86 %
23.05.2016 04:48 15,5 C 81 % 1006,9 hPa 0,0 l/m 14,8 km/h (3 Bft) W-SW 249 0 min 0,000 mm 0,0 UV-I 0 W/m 12,3 C 11,9 C 17,7 km/h (3 Bft) 100,00 %
23.05.2016 04:49 15,5 C 81 % 1007,0 hPa 0,0 l/m 15,7 km/h (3 Bft) SW 236 0 min 0,000 mm 0,0 UV-I 0 W/m 12,3 C 11,6 C 19,3 km/h (3 Bft) 100,00 %
23.05.2016 04:50 15,5 C 81 % 1007,0 hPa 0,0 l/m 15,4 km/h (3 Bft) SW 221 0 min 0,000 mm 0,0 UV-I 0 W/m 12,3 C 11,7 C 25,7 km/h (4 Bft) 100,00 %
23.05.2016 04:51 15,5 C 81 % 1007,0 hPa 0,0 l/m 15,1 km/h (3 Bft) W-SW 250 0 min 0,000 mm 0,0 UV-I 0 W/m 12,3 C 11,8 C 20,9 km/h (4 Bft) 100,00 %
23.05.2016 04:52 15,5 C 81 % 1007,0 hPa 0,0 l/m 13,6 km/h (3 Bft) SW 214 0 min 0,000 mm 0,0 UV-I 0 W/m 12,3 C 12,3 C 17,7 km/h (3 Bft) 100,00 %
23.05.2016 04:53 15,5 C 81 % 1007,0 hPa 0,0 l/m 14,2 km/h (3 Bft) SW 220 0 min 0,000 mm 0,0 UV-I 0 W/m 12,3 C 12,1 C 17,7 km/h (3 Bft) 90,91 %
23.05.2016 04:54 15,5 C 81 % 1007,1 hPa 0,0 l/m 14,1 km/h (3 Bft) W-SW 240 0 min 0,000 mm 0,0 UV-I 0 W/m 12,3 C 12,1 C 22,5 km/h (4 Bft) 96,30 %
23.05.2016 04:55 15,5 C 81 % 1007,0 hPa 0,0 l/m 13,6 km/h (3 Bft) W-SW 242 0 min 0,000 mm 0,0 UV-I 0 W/m 12,3 C 12,3 C 17,7 km/h (3 Bft) 96,55 %
23.05.2016 04:56 15,4 C 81 % 1007,1 hPa 0,0 l/m 12,3 km/h (3 Bft) SW 235 0 min 0,000 mm 0,0 UV-I 0 W/m 12,2 C 12,6 C 16,1 km/h (3 Bft) 100,00 %
23.05.2016 04:57 15,4 C 81 % 1007,0 hPa 0,0 l/m 14,3 km/h (3 Bft) W 262 0 min 0,000 mm 0,0 UV-I 0 W/m 12,2 C 11,9 C 22,5 km/h (4 Bft) 100,00 %
23.05.2016 04:58 15,4 C 81 % 1007,0 hPa 0,0 l/m 14,1 km/h (3 Bft) SW 236 0 min 0,000 mm 0,0 UV-I 0 W/m 12,2 C 12,0 C 19,3 km/h (3 Bft) 95,83 %
23.05.2016 04:59 15,4 C 81 % 1007,0 hPa 0,0 l/m 14,1 km/h (3 Bft) W-SW 246 0 min 0,000 mm 0,0 UV-I 0 W/m 12,2 C 12,0 C 19,3 km/h (3 Bft) 100,00 %
23.05.2016 05:00 15,4 C 81 % 1007,0 hPa 0,0 l/m 15,0 km/h (3 Bft) W-SW 248 0 min 0,025 mm 0,0 UV-I 0 W/m 12,2 C 11,7 C 19,3 km/h (3 Bft) 100,00 %
23.05.2016 05:02 15,4 C 81 % 1007,0 hPa 0,0 l/m 15,0 km/h (3 Bft) W-SW 238 0 min 0,000 mm 0,0 UV-I 0 W/m 12,2 C 11,7 C 22,5 km/h (4 Bft) 100,00 %
23.05.2016 05:03 15,4 C 81 % 1007,0 hPa 0,0 l/m 13,9 km/h (3 Bft) W 265 0 min 0,000 mm 0,0 UV-I 0 W/m 12,2 C 12,0 C 17,7 km/h (3 Bft) 100,00 %
23.05.2016 05:04 15,4 C 81 % 1007,0 hPa 0,0 l/m 18,6 km/h (3 Bft) W-SW 253 0 min 0,000 mm 0,0 UV-I 0 W/m 12,2 C 10,6 C 24,1 km/h (4 Bft) 100,00 %
23.05.2016 05:05 15,4 C 81 % 1007,0 hPa 0,0 l/m 17,2 km/h (3 Bft) W-SW 239 0 min 0,000 mm 0,0 UV-I 0 W/m 12,2 C 11,0 C 22,5 km/h (4 Bft) 96,15 %
23.05.2016 05:06 15,4 C 81 % 1007,0 hPa 0,0 l/m 15,4 km/h (3 Bft) SW 234 0 min 0,000 mm 0,0 UV-I 0 W/m 12,2 C 11,5 C 20,9 km/h (4 Bft) 100,00 %
23.05.2016 05:07 15,4 C 81 % 1007,0 hPa 0,0 l/m 17,5 km/h (3 Bft) SW 232 0 min 0,000 mm 0,0 UV-I 0 W/m 12,2 C 10,9 C 20,9 km/h (4 Bft) 100,00 %
23.05.2016 05:08 15,4 C 81 % 1007,0 hPa 0,0 l/m 15,0 km/h (3 Bft) W-SW 242 0 min 0,000 mm 0,0 UV-I 0 W/m 12,2 C 11,7 C 19,3 km/h (3 Bft) 94,12 %
23.05.2016 05:09 15,4 C 81 % 1007,0 hPa 0,0 l/m 15,9 km/h (3 Bft) SW 227 0 min 0,000 mm 0,0 UV-I 1 W/m 12,2 C 11,4 C 24,1 km/h (4 Bft) 100,00 %
23.05.2016 05:10 15,4 C 81 % 1007,0 hPa 0,0 l/m 15,2 km/h (3 Bft) W-SW 245 0 min 0,000 mm 0,0 UV-I 5 W/m 12,2 C 11,6 C 22,5 km/h (4 Bft) 95,65 %
23.05.2016 05:11 15,4 C 81 % 1007,0 hPa 0,0 l/m 17,4 km/h (3 Bft) W-SW 252 0 min 0,000 mm 0,0 UV-I 5 W/m 12,2 C 11,0 C 20,9 km/h (4 Bft) 100,00 %
23.05.2016 05:12 15,4 C 81 % 1007,1 hPa 0,0 l/m 13,5 km/h (3 Bft) W-NW 282 0 min 0,000 mm 0,0 UV-I 5 W/m 12,2 C 12,2 C 20,9 km/h (4 Bft) 95,65 %
23.05.2016 05:13 15,4 C 81 % 1007,1 hPa 0,0 l/m 16,1 km/h (3 Bft) SW 219 0 min 0,000 mm 0,0 UV-I 5 W/m 12,2 C 11,3 C 19,3 km/h (3 Bft) 100,00 %
23.05.2016 05:14 15,4 C 81 % 1007,1 hPa 0,0 l/m 15,4 km/h (3 Bft) W-SW 254 0 min 0,000 mm 0,0 UV-I 5 W/m 12,2 C 11,5 C 19,3 km/h (3 Bft) 100,00 %
23.05.2016 05:15 15,4 C 81 % 1007,1 hPa 0,0 l/m 14,8 km/h (3 Bft) W-SW 258 0 min 0,000 mm 0,0 UV-I 6 W/m 12,2 C 11,7 C 19,3 km/h (3 Bft) 100,00 %
23.05.2016 05:16 15,4 C 81 % 1007,1 hPa 0,0 l/m 14,5 km/h (3 Bft) W-SW 258 0 min 0,000 mm 0,0 UV-I 7 W/m 12,2 C 11,8 C 17,7 km/h (3 Bft) 95,65 %
23.05.2016 05:17 15,3 C 81 % 1007,1 hPa 0,0 l/m 12,4 km/h (3 Bft) SW 233 0 min 0,000 mm 0,0 UV-I 7 W/m 12,1 C 12,5 C 17,7 km/h (3 Bft) 100,00 %
23.05.2016 05:18 15,3 C 81 % 1007,1 hPa 0,0 l/m 14,7 km/h (3 Bft) SW 219 0 min 0,000 mm 0,0 UV-I 7 W/m 12,1 C 11,7 C 24,1 km/h (4 Bft) 100,00 %
23.05.2016 05:19 15,3 C 81 % 1007,1 hPa 0,0 l/m 12,6 km/h (3 Bft) W-NW 292 0 min 0,000 mm 0,0 UV-I 7 W/m 12,1 C 12,4 C 17,7 km/h (3 Bft) 100,00 %
23.05.2016 05:20 15,3 C 81 % 1007,1 hPa 0,0 l/m 14,3 km/h (3 Bft) W 260 0 min 0,000 mm 0,0 UV-I 7 W/m 12,1 C 11,8 C 20,9 km/h (4 Bft) 100,00 %
23.05.2016 05:21 15,3 C 81 % 1007,2 hPa 0,0 l/m 14,4 km/h (3 Bft) SW 217 0 min 0,000 mm 0,0 UV-I 7 W/m 12,1 C 11,8 C 17,7 km/h (3 Bft) 100,00 %
23.05.2016 05:22 15,3 C 81 % 1007,2 hPa 0,0 l/m 11,5 km/h (2 Bft) W-SW 243 0 min 0,000 mm 0,0 UV-I 9 W/m 12,1 C 12,8 C 16,1 km/h (3 Bft) 100,00 %
23.05.2016 05:23 15,3 C 81 % 1007,2 hPa 0,0 l/m 13,7 km/h (3 Bft) W-SW 256 0 min 0,000 mm 0,0 UV-I 9 W/m 12,1 C 12,0 C 17,7 km/h (3 Bft) 95,65 %
23.05.2016 05:24 15,3 C 81 % 1007,2 hPa 0,0 l/m 11,4 km/h (2 Bft) W-SW 248 0 min 0,000 mm 0,0 UV-I 9 W/m 12,1 C 12,9 C 17,7 km/h (3 Bft) 100,00 %
23.05.2016 05:25 15,3 C 81 % 1007,3 hPa 0,0 l/m 14,7 km/h (3 Bft) W-SW 250 0 min 0,000 mm 0,0 UV-I 9 W/m 12,1 C 11,7 C 22,5 km/h (4 Bft) 100,00 %
23.05.2016 05:26 15,3 C 81 % 1007,2 hPa 0,0 l/m 13,2 km/h (3 Bft) W-SW 240 0 min 0,000 mm 0,0 UV-I 9 W/m 12,1 C 12,2 C 17,7 km/h (3 Bft) 100,00 %
23.05.2016 05:27 15,2 C 81 % 1007,3 hPa 0,0 l/m 12,6 km/h (3 Bft) W-SW 244 1 min 0,000 mm 0,0 UV-I 11 W/m 12,0 C 12,3 C 19,3 km/h (3 Bft) 100,00 %
23.05.2016 05:28 15,3 C 81 % 1007,2 hPa 0,0 l/m 12,1 km/h (2 Bft) SW 236 1 min 0,000 mm 0,0 UV-I 11 W/m 12,1 C 12,6 C 14,5 km/h (3 Bft) 100,00 %
23.05.2016 05:29 15,2 C 81 % 1007,3 hPa 0,0 l/m 11,7 km/h (2 Bft) SW 223 1 min 0,000 mm 0,0 UV-I 11 W/m 12,0 C 12,6 C 19,3 km/h (3 Bft) 95,65 %
23.05.2016 05:30 15,2 C 81 % 1007,3 hPa 0,0 l/m 12,7 km/h (3 Bft) W 269 0 min 0,000 mm 0,0 UV-I 12 W/m 12,0 C 12,2 C 16,1 km/h (3 Bft) 95,83 %
23.05.2016 05:31 15,2 C 82 % 1007,3 hPa 0,0 l/m 13,3 km/h (3 Bft) SW 233 0 min 0,000 mm 0,0 UV-I 12 W/m 12,1 C 12,0 C 17,7 km/h (3 Bft) 100,00 %
23.05.2016 05:32 15,2 C 82 % 1007,3 hPa 0,0 l/m 13,7 km/h (3 Bft) SW 232 0 min 0,000 mm 0,0 UV-I 12 W/m 12,1 C 11,9 C 17,7 km/h (3 Bft) 100,00 %
23.05.2016 05:33 15,2 C 82 % 1007,3 hPa 0,0 l/m 11,9 km/h (2 Bft) SW 229 0 min 0,000 mm 0,0 UV-I 13 W/m 12,1 C 12,5 C 14,5 km/h (3 Bft) 100,00 %
23.05.2016 05:34 15,2 C 82 % 1007,3 hPa 0,0 l/m 10,8 km/h (2 Bft) W-SW 240 0 min 0,000 mm 0,0 UV-I 14 W/m 12,1 C 13,0 C 17,7 km/h (3 Bft) 96,30 %
23.05.2016 05:35 15,1 C 82 % 1007,3 hPa 0,0 l/m 12,5 km/h (3 Bft) W-SW 245 0 min 0,000 mm 0,0 UV-I 14 W/m 12,0 C 12,2 C 17,7 km/h (3 Bft) 96,15 %
23.05.2016 05:36 15,1 C 82 % 1007,3 hPa 0,0 l/m 12,2 km/h (2 Bft) S-SW 213 0 min 0,000 mm 0,0 UV-I 14 W/m 12,0 C 12,3 C 17,7 km/h (3 Bft) 100,00 %
23.05.2016 05:37 15,1 C 82 % 1007,3 hPa 0,0 l/m 14,3 km/h (3 Bft) W-SW 245 0 min 0,000 mm 0,0 UV-I 16 W/m 12,0 C 11,5 C 17,7 km/h (3 Bft) 100,00 %
23.05.2016 05:38 15,1 C 82 % 1007,3 hPa 0,0 l/m 15,6 km/h (3 Bft) W-SW 246 0 min 0,000 mm 0,0 UV-I 16 W/m 12,0 C 11,1 C 19,3 km/h (3 Bft) 100,00 %
23.05.2016 05:39 15,1 C 82 % 1007,3 hPa 0,0 l/m 16,0 km/h (3 Bft) W-SW 250 0 min 0,000 mm 0,0 UV-I 17 W/m 12,0 C 11,0 C 22,5 km/h (4 Bft) 100,00 %
23.05.2016 05:40 15,1 C 82 % 1007,3 hPa 0,0 l/m 16,0 km/h (3 Bft) W-SW 243 0 min 0,000 mm 0,0 UV-I 18 W/m 12,0 C 11,0 C 20,9 km/h (4 Bft) 95,83 %
23.05.2016 05:41 15,1 C 82 % 1007,3 hPa 0,0 l/m 14,3 km/h (3 Bft) W-SW 248 0 min 0,000 mm 0,0 UV-I 18 W/m 12,0 C 11,5 C 19,3 km/h (3 Bft) 100,00 %
23.05.2016 05:42 15,1 C 82 % 1007,3 hPa 0,0 l/m 14,9 km/h (3 Bft) SW 215 0 min 0,000 mm 0,0 UV-I 18 W/m 12,0 C 11,3 C 19,3 km/h (3 Bft) 96,55 %
23.05.2016 05:43 15,1 C 82 % 1007,3 hPa 0,0 l/m 15,7 km/h (3 Bft) W-SW 241 0 min 0,000 mm 0,0 UV-I 19 W/m 12,0 C 11,1 C 19,3 km/h (3 Bft) 100,00 %
23.05.2016 05:44 15,1 C 82 % 1007,3 hPa 0,0 l/m 14,3 km/h (3 Bft) W-SW 239 0 min 0,000 mm 0,0 UV-I 19 W/m 12,0 C 11,5 C 20,9 km/h (4 Bft) 95,65 %
23.05.2016 05:45 15,1 C 82 % 1007,3 hPa 0,0 l/m 12,9 km/h (3 Bft) SW 223 0 min 0,000 mm 0,0 UV-I 19 W/m 12,0 C 12,0 C 17,7 km/h (3 Bft) 100,00 %
23.05.2016 05:46 15,1 C 82 % 1007,3 hPa 0,0 l/m 13,7 km/h (3 Bft) W-SW 246 0 min 0,000 mm 0,0 UV-I 19 W/m 12,0 C 11,8 C 20,9 km/h (4 Bft) 95,65 %
23.05.2016 05:47 15,1 C 82 % 1007,3 hPa 0,0 l/m 15,0 km/h (3 Bft) W-SW 247 0 min 0,000 mm 0,0 UV-I 19 W/m 12,0 C 11,3 C 22,5 km/h (4 Bft) 95,83 %
23.05.2016 05:48 15,1 C 82 % 1007,4 hPa 0,0 l/m 16,2 km/h (3 Bft) SW 218 0 min 0,000 mm 0,0 UV-I 19 W/m 12,0 C 10,9 C 22,5 km/h (4 Bft) 92,86 %
23.05.2016 05:49 15,1 C 82 % 1007,3 hPa 0,0 l/m 18,1 km/h (3 Bft) W-SW 250 0 min 0,000 mm 0,0 UV-I 18 W/m 12,0 C 10,4 C 25,7 km/h (4 Bft) 100,00 %
23.05.2016 05:50 15,1 C 82 % 1007,4 hPa 0,0 l/m 15,1 km/h (3 Bft) W 261 0 min 0,000 mm 0,0 UV-I 18 W/m 12,0 C 11,3 C 19,3 km/h (3 Bft) 96,88 %
23.05.2016 05:51 15,1 C 82 % 1007,4 hPa 0,0 l/m 13,8 km/h (3 Bft) W-SW 252 0 min 0,000 mm 0,0 UV-I 18 W/m 12,0 C 11,7 C 19,3 km/h (3 Bft) 91,67 %
23.05.2016 05:52 15,1 C 82 % 1007,4 hPa 0,0 l/m 14,4 km/h (3 Bft) W-SW 239 0 min 0,000 mm 0,0 UV-I 18 W/m 12,0 C 11,5 C 22,5 km/h (4 Bft) 100,00 %
23.05.2016 05:53 15,1 C 82 % 1007,4 hPa 0,0 l/m 14,4 km/h (3 Bft) W-SW 247 0 min 0,000 mm 0,0 UV-I 19 W/m 12,0 C 11,5 C 20,9 km/h (4 Bft) 96,30 %
23.05.2016 05:54 15,1 C 82 % 1007,5 hPa 0,0 l/m 14,3 km/h (3 Bft) SW 236 0 min 0,000 mm 0,0 UV-I 20 W/m 12,0 C 11,5 C 22,5 km/h (4 Bft) 100,00 %
23.05.2016 05:55 15,1 C 82 % 1007,4 hPa 0,0 l/m 13,4 km/h (3 Bft) SW 234 0 min 0,000 mm 0,0 UV-I 23 W/m 12,0 C 11,9 C 22,5 km/h (4 Bft) 95,83 %
23.05.2016 05:56 15,1 C 82 % 1007,5 hPa 0,0 l/m 13,9 km/h (3 Bft) S-SW 213 0 min 0,000 mm 0,0 UV-I 23 W/m 12,0 C 11,7 C 22,5 km/h (4 Bft) 100,00 %
23.05.2016 05:57 15,1 C 82 % 1007,5 hPa 0,0 l/m 14,7 km/h (3 Bft) W-SW 248 0 min 0,000 mm 0,0 UV-I 24 W/m 12,0 C 11,4 C 20,9 km/h (4 Bft) 96,15 %
23.05.2016 05:58 15,1 C 81 % 1007,5 hPa 0,0 l/m 16,7 km/h (3 Bft) W 267 0 min 0,000 mm 0,0 UV-I 25 W/m 11,9 C 10,8 C 24,1 km/h (4 Bft) 100,00 %
23.05.2016 05:59 15,1 C 81 % 1007,4 hPa 0,0 l/m 16,3 km/h (3 Bft) W-SW 256 0 min 0,000 mm 0,0 UV-I 25 W/m 11,9 C 10,9 C 20,9 km/h (4 Bft) 95,65 %
23.05.2016 06:00 15,1 C 81 % 1007,4 hPa 0,0 l/m 10,7 km/h (2 Bft) SW 232 0 min 0,000 mm 0,0 UV-I 25 W/m 11,9 C 12,9 C 16,1 km/h (3 Bft) 96,88 %
23.05.2016 06:02 15,1 C 81 % 1007,5 hPa 0,0 l/m 11,8 km/h (2 Bft) W-SW 243 0 min 0,051 mm 0,0 UV-I 26 W/m 11,9 C 12,5 C 16,1 km/h (3 Bft) 97,62 %
23.05.2016 06:03 15,1 C 81 % 1007,4 hPa 0,0 l/m 13,3 km/h (3 Bft) W-SW 254 0 min 0,000 mm 0,0 UV-I 28 W/m 11,9 C 11,9 C 17,7 km/h (3 Bft) 100,00 %
23.05.2016 06:04 15,1 C 81 % 1007,4 hPa 0,0 l/m 13,6 km/h (3 Bft) W-SW 238 0 min 0,000 mm 0,0 UV-I 29 W/m 11,9 C 11,8 C 19,3 km/h (3 Bft) 93,33 %
23.05.2016 06:05 15,1 C 81 % 1007,5 hPa 0,0 l/m 11,7 km/h (2 Bft) W-SW 245 0 min 0,000 mm 0,0 UV-I 31 W/m 11,9 C 12,5 C 17,7 km/h (3 Bft) 100,00 %
23.05.2016 06:06 15,1 C 81 % 1007,5 hPa 0,0 l/m 12,6 km/h (3 Bft) SW 214 0 min 0,000 mm 0,0 UV-I 33 W/m 11,9 C 12,2 C 22,5 km/h (4 Bft) 96,30 %
23.05.2016 06:07 15,0 C 82 % 1007,4 hPa 0,0 l/m 12,6 km/h (3 Bft) SW 223 0 min 0,000 mm 0,0 UV-I 37 W/m 12,0 C 12,0 C 16,1 km/h (3 Bft) 96,15 %
23.05.2016 06:08 15,0 C 82 % 1007,4 hPa 0,0 l/m 12,8 km/h (3 Bft) W-SW 256 0 min 0,000 mm 0,0 UV-I 40 W/m 12,0 C 12,0 C 16,1 km/h (3 Bft) 100,00 %
23.05.2016 06:09 14,9 C 82 % 1007,4 hPa 0,0 l/m 11,7 km/h (2 Bft) W-SW 250 0 min 0,000 mm 0,0 UV-I 42 W/m 11,9 C 12,3 C 16,1 km/h (3 Bft) 95,65 %
23.05.2016 06:10 14,9 C 82 % 1007,4 hPa 0,0 l/m 10,4 km/h (2 Bft) W-SW 247 0 min 0,000 mm 0,0 UV-I 43 W/m 11,9 C 12,8 C 12,9 km/h (3 Bft) 100,00 %
23.05.2016 06:11 14,9 C 82 % 1007,4 hPa 0,0 l/m 11,0 km/h (2 Bft) SW 219 0 min 0,000 mm 0,0 UV-I 46 W/m 11,9 C 12,6 C 14,5 km/h (3 Bft) 96,15 %
23.05.2016 06:12 14,9 C 82 % 1007,4 hPa 0,0 l/m 11,5 km/h (2 Bft) SW 234 0 min 0,000 mm 0,0 UV-I 48 W/m 11,9 C 12,4 C 14,5 km/h (3 Bft) 96,67 %
23.05.2016 06:13 14,9 C 83 % 1007,4 hPa 0,0 l/m 9,9 km/h (2 Bft) SW 235 0 min 0,000 mm 0,0 UV-I 51 W/m 12,0 C 13,1 C 16,1 km/h (3 Bft) 100,00 %
23.05.2016 06:14 14,9 C 83 % 1007,5 hPa 0,0 l/m 8,8 km/h (2 Bft) SW 227 0 min 0,000 mm 0,0 UV-I 53 W/m 12,0 C 13,6 C 12,9 km/h (3 Bft) 95,83 %
23.05.2016 06:15 14,9 C 83 % 1007,4 hPa 0,0 l/m 10,9 km/h (2 Bft) SW 230 0 min 0,000 mm 0,0 UV-I 55 W/m 12,0 C 12,6 C 17,7 km/h (3 Bft) 96,15 %
23.05.2016 06:16 14,9 C 83 % 1007,4 hPa 0,0 l/m 11,5 km/h (2 Bft) SW 227 0 min 0,000 mm 0,0 UV-I 58 W/m 12,0 C 12,4 C 14,5 km/h (3 Bft) 100,00 %
23.05.2016 06:17 14,9 C 83 % 1007,5 hPa 0,0 l/m 8,9 km/h (2 Bft) SW 214 0 min 0,000 mm 0,0 UV-I 63 W/m 12,0 C 13,5 C 16,1 km/h (3 Bft) 100,00 %
23.05.2016 06:18 14,9 C 83 % 1007,5 hPa 0,0 l/m 11,0 km/h (2 Bft) W-SW 256 0 min 0,000 mm 0,0 UV-I 65 W/m 12,0 C 12,6 C 16,1 km/h (3 Bft) 96,15 %
23.05.2016 06:19 14,9 C 83 % 1007,5 hPa 0,0 l/m 10,0 km/h (2 Bft) SW 231 0 min 0,000 mm 0,0 UV-I 69 W/m 12,0 C 13,0 C 14,5 km/h (3 Bft) 100,00 %
23.05.2016 06:20 14,9 C 82 % 1007,5 hPa 0,0 l/m 9,3 km/h (2 Bft) W-SW 248 0 min 0,000 mm 0,0 UV-I 73 W/m 11,9 C 13,3 C 12,9 km/h (3 Bft) 93,33 %
23.05.2016 06:21 14,9 C 82 % 1007,5 hPa 0,0 l/m 11,5 km/h (2 Bft) W 271 0 min 0,000 mm 0,0 UV-I 76 W/m 11,9 C 12,4 C 14,5 km/h (3 Bft) 100,00 %
23.05.2016 06:22 15,0 C 82 % 1007,5 hPa 0,0 l/m 9,8 km/h (2 Bft) W-SW 242 0 min 0,000 mm 0,0 UV-I 79 W/m 12,0 C 13,2 C 16,1 km/h (3 Bft) 100,00 %
23.05.2016 06:23 15,0 C 82 % 1007,5 hPa 0,0 l/m 8,8 km/h (2 Bft) W-SW 252 0 min 0,000 mm 0,0 UV-I 82 W/m 12,0 C 13,7 C 12,9 km/h (3 Bft) 100,00 %
23.05.2016 06:24 15,1 C 82 % 1007,5 hPa 0,0 l/m 9,8 km/h (2 Bft) W-SW 255 0 min 0,000 mm 0,0 UV-I 84 W/m 12,0 C 13,3 C 14,5 km/h (3 Bft) 100,00 %
23.05.2016 06:25 15,1 C 82 % 1007,5 hPa 0,0 l/m 11,7 km/h (2 Bft) S-SW 194 0 min 0,000 mm 0,0 UV-I 88 W/m 12,0 C 12,5 C 14,5 km/h (3 Bft) 100,00 %
23.05.2016 06:26 15,1 C 81 % 1007,5 hPa 0,0 l/m 11,1 km/h (2 Bft) W-SW 241 0 min 0,000 mm 0,0 UV-I 91 W/m 11,9 C 12,8 C 14,5 km/h (3 Bft) 96,88 %
23.05.2016 06:27 15,2 C 82 % 1007,5 hPa 0,0 l/m 17,6 km/h (3 Bft) W-SW 243 1 min 0,000 mm 0,0 UV-I 94 W/m 12,1 C 10,6 C 24,1 km/h (4 Bft) 100,00 %
23.05.2016 06:28 15,2 C 81 % 1007,6 hPa 0,0 l/m 15,1 km/h (3 Bft) W-SW 250 1 min 0,000 mm 0,0 UV-I 96 W/m 12,0 C 11,4 C 19,3 km/h (3 Bft) 100,00 %
23.05.2016 06:29 15,2 C 81 % 1007,6 hPa 0,0 l/m 9,2 km/h (2 Bft) W-SW 241 1 min 0,000 mm 0,0 UV-I 97 W/m 12,0 C 13,7 C 17,7 km/h (3 Bft) 96,30 %
23.05.2016 06:30 15,3 C 81 % 1007,6 hPa 0,0 l/m 13,4 km/h (3 Bft) W-SW 237 1 min 0,000 mm 0,0 UV-I 98 W/m 12,1 C 12,1 C 17,7 km/h (3 Bft) 100,00 %
23.05.2016 06:31 15,3 C 81 % 1007,6 hPa 0,0 l/m 15,2 km/h (3 Bft) SW 225 0 min 0,000 mm 0,0 UV-I 98 W/m 12,1 C 11,5 C 22,5 km/h (4 Bft) 100,00 %
23.05.2016 06:32 15,3 C 81 % 1007,6 hPa 0,0 l/m 11,1 km/h (2 Bft) S-SW 210 0 min 0,000 mm 0,0 UV-I 98 W/m 12,1 C 13,0 C 17,7 km/h (3 Bft) 96,15 %
23.05.2016 06:33 15,4 C 81 % 1007,6 hPa 0,0 l/m 13,8 km/h (3 Bft) W-SW 240 0 min 0,000 mm 0,0 UV-I 98 W/m 12,2 C 12,1 C 19,3 km/h (3 Bft) 100,00 %
23.05.2016 06:34 15,4 C 80 % 1007,6 hPa 0,0 l/m 11,7 km/h (2 Bft) W-SW 243 0 min 0,000 mm 0,0 UV-I 98 W/m 12,0 C 12,8 C 16,1 km/h (3 Bft) 100,00 %
23.05.2016 06:35 15,4 C 80 % 1007,6 hPa 0,0 l/m 12,5 km/h (3 Bft) W 260 0 min 0,000 mm 0,0 UV-I 98 W/m 12,0 C 12,5 C 16,1 km/h (3 Bft) 100,00 %
23.05.2016 06:36 15,5 C 81 % 1007,6 hPa 0,0 l/m 13,6 km/h (3 Bft) SW 217 1 min 0,000 mm 0,0 UV-I 116 W/m 12,3 C 12,3 C 17,7 km/h (3 Bft) 100,00 %
23.05.2016 06:37 15,5 C 80 % 1007,5 hPa 0,0 l/m 13,2 km/h (3 Bft) W-SW 238 1 min 0,000 mm 0,0 UV-I 144 W/m 12,1 C 12,4 C 19,3 km/h (3 Bft) 100,00 %
23.05.2016 06:38 15,6 C 80 % 1007,5 hPa 0,0 l/m 15,8 km/h (3 Bft) SW 221 1 min 0,000 mm 0,0 UV-I 155 W/m 12,2 C 11,7 C 22,5 km/h (4 Bft) 100,00 %
23.05.2016 06:39 15,6 C 80 % 1007,6 hPa 0,0 l/m 12,0 km/h (2 Bft) SW 219 1 min 0,000 mm 0,0 UV-I 158 W/m 12,2 C 13,0 C 22,5 km/h (4 Bft) 96,55 %
23.05.2016 06:40 15,6 C 80 % 1007,5 hPa 0,0 l/m 9,9 km/h (2 Bft) SW 221 1 min 0,000 mm 0,0 UV-I 160 W/m 12,2 C 13,8 C 17,7 km/h (3 Bft) 100,00 %
23.05.2016 06:41 15,6 C 79 % 1007,5 hPa 0,0 l/m 18,2 km/h (3 Bft) W 264 1 min 0,000 mm 0,0 UV-I 161 W/m 12,0 C 11,0 C 22,5 km/h (4 Bft) 100,00 %
23.05.2016 06:42 15,6 C 79 % 1007,6 hPa 0,0 l/m 13,0 km/h (3 Bft) W-SW 255 1 min 0,000 mm 0,0 UV-I 163 W/m 12,0 C 12,6 C 19,3 km/h (3 Bft) 100,00 %
23.05.2016 06:43 15,7 C 79 % 1007,5 hPa 0,0 l/m 11,7 km/h (2 Bft) W 269 1 min 0,000 mm 0,0 UV-I 166 W/m 12,1 C 13,2 C 19,3 km/h (3 Bft) 100,00 %
23.05.2016 06:44 15,7 C 79 % 1007,5 hPa 0,0 l/m 17,7 km/h (3 Bft) W-SW 258 1 min 0,000 mm 0,0 UV-I 169 W/m 12,1 C 11,2 C 22,5 km/h (4 Bft) 100,00 %
23.05.2016 06:45 15,7 C 79 % 1007,5 hPa 0,0 l/m 16,6 km/h (3 Bft) W 260 1 min 0,000 mm 0,0 UV-I 172 W/m 12,1 C 11,6 C 20,9 km/h (4 Bft) 100,00 %
23.05.2016 06:47 15,8 C 78 % 1007,5 hPa 0,0 l/m 15,5 km/h (3 Bft) W-SW 250 2 min 0,000 mm 0,0 UV-I 178 W/m 12,0 C 12,0 C 22,5 km/h (4 Bft) 100,00 %
23.05.2016 06:48 15,8 C 78 % 1007,5 hPa 0,0 l/m 14,4 km/h (3 Bft) W-SW 247 1 min 0,000 mm 0,0 UV-I 184 W/m 12,0 C 12,4 C 16,1 km/h (3 Bft) 100,00 %
23.05.2016 06:49 15,8 C 78 % 1007,5 hPa 0,0 l/m 9,5 km/h (2 Bft) W-SW 254 1 min 0,000 mm 0,0 UV-I 189 W/m 12,0 C 14,2 C 12,9 km/h (3 Bft) 100,00 %
23.05.2016 06:50 15,9 C 78 % 1007,5 hPa 0,0 l/m 13,5 km/h (3 Bft) W-NW 292 1 min 0,000 mm 0,0 UV-I 193 W/m 12,1 C 12,8 C 20,9 km/h (4 Bft) 100,00 %
23.05.2016 06:51 15,9 C 78 % 1007,4 hPa 0,0 l/m 8,2 km/h (2 Bft) W-NW 285 1 min 0,000 mm 0,0 UV-I 195 W/m 12,1 C 14,9 C 11,3 km/h (2 Bft) 96,15 %
23.05.2016 06:52 15,9 C 78 % 1007,4 hPa 0,0 l/m 13,3 km/h (3 Bft) W-SW 258 1 min 0,000 mm 0,0 UV-I 204 W/m 12,1 C 12,8 C 17,7 km/h (3 Bft) 100,00 %
23.05.2016 06:53 16,0 C 78 % 1007,4 hPa 0,0 l/m 9,8 km/h (2 Bft) W-SW 248 1 min 0,000 mm 0,0 UV-I 209 W/m 12,2 C 14,3 C 14,5 km/h (3 Bft) 100,00 %
23.05.2016 06:54 16,1 C 78 % 1007,5 hPa 0,0 l/m 8,5 km/h (2 Bft) W 263 1 min 0,000 mm 0,0 UV-I 213 W/m 12,3 C 15,0 C 12,9 km/h (3 Bft) 100,00 %
23.05.2016 06:55 16,1 C 78 % 1007,5 hPa 0,0 l/m 8,8 km/h (2 Bft) SW 225 1 min 0,000 mm 0,0 UV-I 217 W/m 12,3 C 14,9 C 11,3 km/h (2 Bft) 100,00 %
23.05.2016 06:56 16,1 C 77 % 1007,6 hPa 0,0 l/m 13,1 km/h (3 Bft) W-SW 245 1 min 0,000 mm 0,0 UV-I 219 W/m 12,1 C 13,1 C 20,9 km/h (4 Bft) 100,00 %
23.05.2016 06:57 16,2 C 77 % 1007,6 hPa 0,0 l/m 14,6 km/h (3 Bft) S-SW 210 1 min 0,000 mm 0,0 UV-I 219 W/m 12,2 C 12,8 C 20,9 km/h (4 Bft) 100,00 %
23.05.2016 06:58 16,2 C 77 % 1007,5 hPa 0,0 l/m 9,8 km/h (2 Bft) W-SW 240 1 min 0,000 mm 0,0 UV-I 210 W/m 12,2 C 14,5 C 12,9 km/h (3 Bft) 97,56 %
23.05.2016 06:59 16,2 C 77 % 1007,4 hPa 0,0 l/m 9,6 km/h (2 Bft) SW 234 1 min 0,000 mm 0,0 UV-I 204 W/m 12,2 C 14,6 C 16,1 km/h (3 Bft) 100,00 %
23.05.2016 07:00 16,2 C 77 % 1007,5 hPa 0,0 l/m 15,9 km/h (3 Bft) W 270 1 min 0,102 mm 0,0 UV-I 203 W/m 12,2 C 12,4 C 20,9 km/h (4 Bft) 92,59 %
23.05.2016 07:02 16,3 C 77 % 1007,4 hPa 0,0 l/m 15,3 km/h (3 Bft) S-SW 205 2 min 0,000 mm 0,0 UV-I 214 W/m 12,3 C 12,7 C 22,5 km/h (4 Bft) 100,00 %
23.05.2016 07:03 16,3 C 76 % 1007,4 hPa 0,0 l/m 16,3 km/h (3 Bft) W-SW 248 1 min 0,000 mm 0,0 UV-I 236 W/m 12,1 C 12,4 C 24,1 km/h (4 Bft) 100,00 %
23.05.2016 07:04 16,3 C 76 % 1007,5 hPa 0,0 l/m 14,3 km/h (3 Bft) SW 231 1 min 0,000 mm 0,0 UV-I 242 W/m 12,1 C 13,0 C 20,9 km/h (4 Bft) 100,00 %
23.05.2016 07:05 16,3 C 77 % 1007,5 hPa 0,0 l/m 8,3 km/h (2 Bft) W-SW 248 1 min 0,000 mm 0,0 UV-I 250 W/m 12,3 C 15,3 C 12,9 km/h (3 Bft) 100,00 %
23.05.2016 07:06 16,3 C 77 % 1007,5 hPa 0,0 l/m 8,4 km/h (2 Bft) S 184 1 min 0,000 mm 0,0 UV-I 230 W/m 12,3 C 15,3 C 12,9 km/h (3 Bft) 100,00 %
23.05.2016 07:07 16,3 C 77 % 1007,5 hPa 0,0 l/m 15,9 km/h (3 Bft) S-SW 212 1 min 0,000 mm 0,0 UV-I 177 W/m 12,3 C 12,5 C 20,9 km/h (4 Bft) 100,00 %
23.05.2016 07:08 16,3 C 76 % 1007,5 hPa 0,0 l/m 15,6 km/h (3 Bft) SW 229 1 min 0,000 mm 0,0 UV-I 197 W/m 12,1 C 12,6 C 19,3 km/h (3 Bft) 100,00 %
23.05.2016 07:09 16,3 C 76 % 1007,4 hPa 0,0 l/m 10,1 km/h (2 Bft) SW 222 1 min 0,000 mm 0,0 UV-I 221 W/m 12,1 C 14,5 C 19,3 km/h (3 Bft) 100,00 %
23.05.2016 07:10 16,3 C 76 % 1007,4 hPa 0,0 l/m 18,6 km/h (3 Bft) SW 228 1 min 0,000 mm 0,0 UV-I 195 W/m 12,1 C 11,8 C 24,1 km/h (4 Bft) 100,00 %
23.05.2016 07:11 16,3 C 76 % 1007,4 hPa 0,0 l/m 14,9 km/h (3 Bft) W-SW 254 1 min 0,000 mm 0,0 UV-I 238 W/m 12,1 C 12,8 C 20,9 km/h (4 Bft) 100,00 %
23.05.2016 07:12 16,3 C 76 % 1007,5 hPa 0,0 l/m 14,6 km/h (3 Bft) SW 223 1 min 0,000 mm 0,0 UV-I 250 W/m 12,1 C 12,9 C 24,1 km/h (4 Bft) 100,00 %
23.05.2016 07:13 16,3 C 76 % 1007,5 hPa 0,0 l/m 14,9 km/h (3 Bft) W-SW 248 1 min 0,000 mm 0,0 UV-I 246 W/m 12,1 C 12,8 C 20,9 km/h (4 Bft) 100,00 %
23.05.2016 07:14 16,3 C 76 % 1007,5 hPa 0,0 l/m 12,5 km/h (3 Bft) W-SW 245 1 min 0,000 mm 0,0 UV-I 230 W/m 12,1 C 13,6 C 17,7 km/h (3 Bft) 100,00 %
23.05.2016 07:15 16,4 C 76 % 1007,5 hPa 0,0 l/m 11,6 km/h (2 Bft) W 261 1 min 0,000 mm 0,0 UV-I 236 W/m 12,2 C 14,0 C 16,1 km/h (3 Bft) 96,30 %
23.05.2016 07:16 16,4 C 76 % 1007,5 hPa 0,0 l/m 10,7 km/h (2 Bft) W-SW 246 1 min 0,000 mm 0,4 UV-I 241 W/m 12,2 C 14,4 C 14,5 km/h (3 Bft) 100,00 %
23.05.2016 07:17 16,4 C 76 % 1007,5 hPa 0,0 l/m 10,0 km/h (2 Bft) SW 236 1 min 0,000 mm 0,5 UV-I 254 W/m 12,2 C 14,7 C 12,9 km/h (3 Bft) 93,33 %
23.05.2016 07:18 16,4 C 76 % 1007,5 hPa 0,0 l/m 12,5 km/h (3 Bft) W-SW 257 1 min 0,000 mm 0,5 UV-I 250 W/m 12,2 C 13,7 C 17,7 km/h (3 Bft) 100,00 %
23.05.2016 07:19 16,5 C 76 % 1007,5 hPa 0,0 l/m 12,0 km/h (2 Bft) SW 229 1 min 0,000 mm 0,5 UV-I 242 W/m 12,3 C 14,0 C 17,7 km/h (3 Bft) 100,00 %
23.05.2016 07:20 16,5 C 75 % 1007,5 hPa 0,0 l/m 12,5 km/h (3 Bft) W-SW 242 1 min 0,000 mm 0,5 UV-I 227 W/m 12,1 C 13,8 C 16,1 km/h (3 Bft) 100,00 %
23.05.2016 07:21 16,5 C 75 % 1007,5 hPa 0,0 l/m 15,9 km/h (3 Bft) W-SW 247 1 min 0,000 mm 0,5 UV-I 205 W/m 12,1 C 12,7 C 25,7 km/h (4 Bft) 100,00 %
23.05.2016 07:22 16,5 C 75 % 1007,5 hPa 0,0 l/m 14,6 km/h (3 Bft) W-SW 244 1 min 0,000 mm 0,5 UV-I 194 W/m 12,1 C 13,1 C 19,3 km/h (3 Bft) 100,00 %
23.05.2016 07:23 16,5 C 75 % 1007,5 hPa 0,0 l/m 16,9 km/h (3 Bft) SW 234 1 min 0,000 mm 0,5 UV-I 176 W/m 12,1 C 12,5 C 22,5 km/h (4 Bft) 100,00 %
23.05.2016 07:24 16,4 C 75 % 1007,5 hPa 0,0 l/m 12,2 km/h (2 Bft) W 274 0 min 0,000 mm 0,5 UV-I 172 W/m 12,0 C 13,8 C 19,3 km/h (3 Bft) 100,00 %
23.05.2016 07:25 16,4 C 75 % 1007,5 hPa 0,0 l/m 8,8 km/h (2 Bft) W-SW 248 0 min 0,000 mm 0,5 UV-I 156 W/m 12,0 C 15,2 C 12,9 km/h (3 Bft) 100,00 %
23.05.2016 07:26 16,4 C 75 % 1007,5 hPa 0,0 l/m 12,2 km/h (2 Bft) W-SW 258 0 min 0,000 mm 0,5 UV-I 170 W/m 12,0 C 13,8 C 16,1 km/h (3 Bft) 100,00 %
23.05.2016 07:27 16,4 C 76 % 1007,5 hPa 0,0 l/m 11,1 km/h (2 Bft) W-SW 252 0 min 0,000 mm 0,5 UV-I 170 W/m 12,2 C 14,2 C 17,7 km/h (3 Bft) 98,71 %
23.05.2016 07:28 16,4 C 75 % 1007,5 hPa 0,0 l/m 16,2 km/h (3 Bft) W-SW 257 0 min 0,000 mm 0,5 UV-I 171 W/m 12,0 C 12,5 C 20,9 km/h (4 Bft) 100,00 %
23.05.2016 07:29 16,4 C 75 % 1007,5 hPa 0,0 l/m 13,0 km/h (3 Bft) W-SW 257 1 min 0,000 mm 0,5 UV-I 191 W/m 12,0 C 13,5 C 17,7 km/h (3 Bft) 100,00 %
23.05.2016 07:30 16,4 C 75 % 1007,5 hPa 0,0 l/m 10,1 km/h (2 Bft) W-SW 257 1 min 0,000 mm 0,6 UV-I 199 W/m 12,0 C 14,6 C 14,5 km/h (3 Bft) 100,00 %
23.05.2016 07:31 16,4 C 76 % 1007,5 hPa 0,0 l/m 15,3 km/h (3 Bft) W-NW 291 1 min 0,000 mm 0,6 UV-I 221 W/m 12,2 C 12,8 C 22,5 km/h (4 Bft) 100,00 %
23.05.2016 07:32 16,4 C 76 % 1007,5 hPa 0,0 l/m 12,3 km/h (3 Bft) W 279 1 min 0,000 mm 0,6 UV-I 247 W/m 12,2 C 13,8 C 17,7 km/h (3 Bft) 100,00 %
23.05.2016 07:33 16,4 C 75 % 1007,5 hPa 0,0 l/m 11,9 km/h (2 Bft) SW 225 1 min 0,000 mm 0,6 UV-I 294 W/m 12,0 C 13,9 C 17,7 km/h (3 Bft) 100,00 %
23.05.2016 07:34 16,4 C 75 % 1007,5 hPa 0,0 l/m 12,6 km/h (3 Bft) W-SW 248 1 min 0,000 mm 0,6 UV-I 305 W/m 12,0 C 13,7 C 19,3 km/h (3 Bft) 100,00 %
23.05.2016 07:35 16,4 C 75 % 1007,6 hPa 0,0 l/m 17,5 km/h (3 Bft) W-SW 254 1 min 0,000 mm 0,6 UV-I 298 W/m 12,0 C 12,2 C 24,1 km/h (4 Bft) 100,00 %
23.05.2016 07:36 16,5 C 74 % 1007,6 hPa 0,0 l/m 12,5 km/h (3 Bft) SW 234 1 min 0,000 mm 0,7 UV-I 291 W/m 11,8 C 13,8 C 17,7 km/h (3 Bft) 98,76 %
23.05.2016 07:37 16,5 C 73 % 1007,6 hPa 0,0 l/m 13,5 km/h (3 Bft) W-SW 252 1 min 0,000 mm 0,7 UV-I 302 W/m 11,6 C 13,5 C 19,3 km/h (3 Bft) 100,00 %
23.05.2016 07:38 16,5 C 74 % 1007,5 hPa 0,0 l/m 14,1 km/h (3 Bft) W-SW 257 1 min 0,000 mm 0,6 UV-I 316 W/m 11,8 C 13,3 C 17,7 km/h (3 Bft) 100,00 %
23.05.2016 07:39 16,5 C 74 % 1007,5 hPa 0,0 l/m 10,7 km/h (2 Bft) W-SW 252 1 min 0,000 mm 0,7 UV-I 335 W/m 11,8 C 14,5 C 14,5 km/h (3 Bft) 100,00 %
23.05.2016 07:40 16,5 C 74 % 1007,6 hPa 0,0 l/m 11,3 km/h (2 Bft) W 265 1 min 0,000 mm 0,7 UV-I 338 W/m 11,8 C 14,3 C 16,1 km/h (3 Bft) 96,15 %
23.05.2016 07:41 16,6 C 73 % 1007,6 hPa 0,0 l/m 12,6 km/h (3 Bft) W-SW 252 1 min 0,000 mm 0,7 UV-I 306 W/m 11,7 C 13,9 C 19,3 km/h (3 Bft) 100,00 %
23.05.2016 07:42 16,6 C 73 % 1007,6 hPa 0,0 l/m 10,1 km/h (2 Bft) W-SW 252 1 min 0,000 mm 0,7 UV-I 309 W/m 11,7 C 14,8 C 17,7 km/h (3 Bft) 96,88 %
23.05.2016 07:43 16,6 C 73 % 1007,6 hPa 0,0 l/m 9,2 km/h (2 Bft) W-SW 244 1 min 0,000 mm 0,7 UV-I 290 W/m 11,7 C 15,2 C 14,5 km/h (3 Bft) 100,00 %
23.05.2016 07:44 16,6 C 72 % 1007,6 hPa 0,0 l/m 11,0 km/h (2 Bft) W 261 1 min 0,000 mm 0,7 UV-I 281 W/m 11,5 C 14,5 C 16,1 km/h (3 Bft) 92,86 %
23.05.2016 07:45 16,6 C 72 % 1007,5 hPa 0,0 l/m 8,9 km/h (2 Bft) W 277 1 min 0,000 mm 0,7 UV-I 240 W/m 11,5 C 15,4 C 14,5 km/h (3 Bft) 100,00 %
23.05.2016 07:46 16,6 C 73 % 1007,5 hPa 0,0 l/m 12,0 km/h (2 Bft) W 273 1 min 0,000 mm 0,7 UV-I 221 W/m 11,7 C 14,1 C 20,9 km/h (4 Bft) 95,65 %
23.05.2016 07:47 16,6 C 71 % 1007,6 hPa 0,0 l/m 20,6 km/h (4 Bft) W-SW 248 0 min 0,000 mm 0,7 UV-I 174 W/m 11,3 C 11,7 C 29,0 km/h (5 Bft) 96,30 %
23.05.2016 07:48 16,6 C 71 % 1007,6 hPa 0,0 l/m 19,0 km/h (3 Bft) NW 308 1 min 0,000 mm 0,7 UV-I 218 W/m 11,3 C 12,1 C 24,1 km/h (4 Bft) 96,55 %
23.05.2016 07:49 16,5 C 70 % 1007,6 hPa 0,0 l/m 12,6 km/h (3 Bft) W-SW 242 1 min 0,000 mm 0,8 UV-I 218 W/m 11,0 C 13,8 C 17,7 km/h (3 Bft) 93,33 %
23.05.2016 07:50 16,4 C 70 % 1007,6 hPa 0,0 l/m 8,4 km/h (2 Bft) SW 230 1 min 0,000 mm 0,8 UV-I 218 W/m 10,9 C 15,4 C 11,3 km/h (2 Bft) 96,55 %
23.05.2016 07:51 16,4 C 71 % 1007,6 hPa 0,0 l/m 8,3 km/h (2 Bft) SW 228 1 min 0,000 mm 0,7 UV-I 223 W/m 11,1 C 15,4 C 12,9 km/h (3 Bft) 95,83 %
23.05.2016 07:52 16,4 C 70 % 1007,6 hPa 0,0 l/m 14,5 km/h (3 Bft) W-SW 257 0 min 0,000 mm 0,8 UV-I 176 W/m 10,9 C 13,0 C 19,3 km/h (3 Bft) 100,00 %
23.05.2016 07:53 16,4 C 71 % 1007,6 hPa 0,0 l/m 10,3 km/h (2 Bft) W 261 1 min 0,000 mm 0,8 UV-I 227 W/m 11,1 C 14,5 C 16,1 km/h (3 Bft) 93,33 %
23.05.2016 07:54 16,4 C 71 % 1007,5 hPa 0,0 l/m 9,3 km/h (2 Bft) W 271 1 min 0,000 mm 0,8 UV-I 304 W/m 11,1 C 15,0 C 12,9 km/h (3 Bft) 100,00 %
23.05.2016 07:55 16,4 C 71 % 1007,5 hPa 0,0 l/m 6,0 km/h (2 Bft) SW 236 1 min 0,000 mm 0,8 UV-I 296 W/m 11,1 C 16,4 C 9,7 km/h (2 Bft) 96,30 %
23.05.2016 07:56 16,5 C 71 % 1007,5 hPa 0,0 l/m 5,6 km/h (1 Bft) W-SW 255 1 min 0,000 mm 0,9 UV-I 291 W/m 11,2 C 16,5 C 11,3 km/h (2 Bft) 100,00 %
23.05.2016 07:57 16,6 C 72 % 1007,5 hPa 0,0 l/m 11,0 km/h (2 Bft) W-NW 284 1 min 0,000 mm 0,9 UV-I 303 W/m 11,5 C 14,5 C 19,3 km/h (3 Bft) 93,33 %
23.05.2016 07:58 16,6 C 71 % 1007,5 hPa 0,0 l/m 11,3 km/h (2 Bft) W-SW 258 1 min 0,000 mm 0,9 UV-I 293 W/m 11,3 C 14,4 C 16,1 km/h (3 Bft) 93,10 %
23.05.2016 07:59 16,6 C 72 % 1007,5 hPa 0,0 l/m 11,7 km/h (2 Bft) W-SW 244 1 min 0,000 mm 0,9 UV-I 315 W/m 11,5 C 14,2 C 19,3 km/h (3 Bft) 100,00 %
23.05.2016 08:00 16,6 C 71 % 1007,5 hPa 0,0 l/m 15,7 km/h (3 Bft) W 271 1 min 0,177 mm 0,9 UV-I 313 W/m 11,3 C 12,9 C 22,5 km/h (4 Bft) 100,00 %
23.05.2016 08:02 16,6 C 69 % 1007,4 hPa 0,0 l/m 10,3 km/h (2 Bft) W 274 2 min 0,000 mm 1,0 UV-I 334 W/m 10,9 C 14,8 C 20,9 km/h (4 Bft) 94,92 %
23.05.2016 08:03 16,6 C 70 % 1007,4 hPa 0,0 l/m 13,8 km/h (3 Bft) W-SW 246 1 min 0,000 mm 1,0 UV-I 360 W/m 11,1 C 13,5 C 20,9 km/h (4 Bft) 100,00 %
23.05.2016 08:04 16,6 C 70 % 1007,4 hPa 0,0 l/m 10,7 km/h (2 Bft) W-SW 252 1 min 0,000 mm 1,1 UV-I 403 W/m 11,1 C 14,6 C 14,5 km/h (3 Bft) 96,67 %
23.05.2016 08:05 16,6 C 70 % 1007,4 hPa 0,0 l/m 5,5 km/h (1 Bft) W-SW 246 1 min 0,000 mm 1,1 UV-I 411 W/m 11,1 C 16,6 C 8,0 km/h (2 Bft) 96,55 %
23.05.2016 08:06 16,7 C 70 % 1007,4 hPa 0,0 l/m 9,0 km/h (2 Bft) W-SW 242 1 min 0,000 mm 1,1 UV-I 405 W/m 11,2 C 15,4 C 11,3 km/h (2 Bft) 100,00 %
23.05.2016 08:07 16,8 C 70 % 1007,4 hPa 0,0 l/m 12,6 km/h (3 Bft) W 267 1 min 0,000 mm 1,1 UV-I 381 W/m 11,3 C 14,1 C 16,1 km/h (3 Bft) 100,00 %
23.05.2016 08:08 16,8 C 70 % 1007,4 hPa 0,0 l/m 11,7 km/h (2 Bft) W-SW 251 1 min 0,000 mm 1,2 UV-I 392 W/m 11,3 C 14,5 C 17,7 km/h (3 Bft) 95,83 %
23.05.2016 08:09 16,8 C 70 % 1007,3 hPa 0,0 l/m 8,4 km/h (2 Bft) W 280 1 min 0,000 mm 1,2 UV-I 450 W/m 11,3 C 15,8 C 17,7 km/h (3 Bft) 95,65 %
23.05.2016 08:10 16,9 C 70 % 1007,3 hPa 0,0 l/m 10,7 km/h (2 Bft) SW 223 1 min 0,000 mm 1,2 UV-I 461 W/m 11,4 C 14,9 C 16,1 km/h (3 Bft) 96,30 %
23.05.2016 08:11 17,0 C 70 % 1007,3 hPa 0,0 l/m 16,8 km/h (3 Bft) SW 217 1 min 0,000 mm 1,2 UV-I 454 W/m 11,5 C 13,1 C 25,7 km/h (4 Bft) 95,65 %
23.05.2016 08:12 17,1 C 70 % 1007,3 hPa 0,0 l/m 13,4 km/h (3 Bft) W-SW 242 1 min 0,000 mm 1,2 UV-I 454 W/m 11,6 C 14,2 C 19,3 km/h (3 Bft) 100,00 %
23.05.2016 08:13 17,1 C 69 % 1007,3 hPa 0,0 l/m 14,9 km/h (3 Bft) W-NW 293 1 min 0,000 mm 1,2 UV-I 465 W/m 11,4 C 13,8 C 17,7 km/h (3 Bft) 100,00 %
23.05.2016 08:14 17,2 C 70 % 1007,3 hPa 0,0 l/m 9,4 km/h (2 Bft) W-SW 238 1 min 0,000 mm 1,2 UV-I 466 W/m 11,7 C 15,8 C 14,5 km/h (3 Bft) 100,00 %
23.05.2016 08:15 17,2 C 69 % 1007,2 hPa 0,0 l/m 9,7 km/h (2 Bft) W-NW 288 1 min 0,000 mm 1,2 UV-I 458 W/m 11,5 C 15,7 C 12,9 km/h (3 Bft) 96,15 %
23.05.2016 08:16 17,2 C 68 % 1007,2 hPa 0,0 l/m 8,6 km/h (2 Bft) SW 221 1 min 0,000 mm 1,2 UV-I 437 W/m 11,2 C 16,1 C 14,5 km/h (3 Bft) 100,00 %
23.05.2016 08:17 17,2 C 69 % 1007,2 hPa 0,0 l/m 13,0 km/h (3 Bft) W-SW 254 1 min 0,000 mm 1,1 UV-I 396 W/m 11,5 C 14,5 C 19,3 km/h (3 Bft) 96,55 %
23.05.2016 08:18 17,2 C 68 % 1007,2 hPa 0,0 l/m 11,6 km/h (2 Bft) SW 221 1 min 0,000 mm 1,1 UV-I 326 W/m 11,2 C 14,9 C 14,5 km/h (3 Bft) 100,00 %
23.05.2016 08:19 17,2 C 69 % 1007,2 hPa 0,0 l/m 12,6 km/h (3 Bft) W-NW 286 1 min 0,000 mm 1,1 UV-I 293 W/m 11,5 C 14,6 C 17,7 km/h (3 Bft) 100,00 %
23.05.2016 08:20 17,1 C 68 % 1007,2 hPa 0,0 l/m 9,3 km/h (2 Bft) W 264 1 min 0,000 mm 1,0 UV-I 270 W/m 11,1 C 15,7 C 14,5 km/h (3 Bft) 94,12 %
23.05.2016 08:21 17,1 C 68 % 1007,2 hPa 0,0 l/m 8,3 km/h (2 Bft) W 268 0 min 0,000 mm 1,0 UV-I 237 W/m 11,1 C 16,2 C 14,5 km/h (3 Bft) 100,00 %
23.05.2016 08:22 17,0 C 69 % 1007,2 hPa 0,0 l/m 6,4 km/h (2 Bft) W-NW 303 0 min 0,000 mm 1,0 UV-I 207 W/m 11,3 C 17,0 C 11,3 km/h (2 Bft) 100,00 %
23.05.2016 08:23 16,9 C 70 % 1007,2 hPa 0,0 l/m 8,3 km/h (2 Bft) W-SW 242 0 min 0,000 mm 1,0 UV-I 210 W/m 11,4 C 16,0 C 17,7 km/h (3 Bft) 100,00 %
23.05.2016 08:24 16,9 C 69 % 1007,2 hPa 0,0 l/m 8,6 km/h (2 Bft) W-SW 251 0 min 0,000 mm 1,0 UV-I 226 W/m 11,2 C 15,8 C 12,9 km/h (3 Bft) 95,65 %
23.05.2016 08:25 16,8 C 69 % 1007,2 hPa 0,0 l/m 10,2 km/h (2 Bft) W 259 0 min 0,000 mm 1,1 UV-I 237 W/m 11,1 C 15,0 C 12,9 km/h (3 Bft) 100,00 %
23.05.2016 08:26 16,8 C 69 % 1007,2 hPa 0,0 l/m 7,6 km/h (2 Bft) SW 215 0 min 0,000 mm 1,1 UV-I 210 W/m 11,1 C 16,2 C 11,3 km/h (2 Bft) 100,00 %
23.05.2016 08:27 16,8 C 70 % 1007,2 hPa 0,0 l/m 7,7 km/h (2 Bft) SW 219 0 min 0,000 mm 1,1 UV-I 211 W/m 11,3 C 16,1 C 11,3 km/h (2 Bft) 100,00 %
23.05.2016 08:28 16,8 C 70 % 1007,2 hPa 0,0 l/m 9,8 km/h (2 Bft) W-SW 242 0 min 0,000 mm 1,1 UV-I 216 W/m 11,3 C 15,2 C 14,5 km/h (3 Bft) 100,00 %
23.05.2016 08:29 16,8 C 70 % 1007,2 hPa 0,0 l/m 12,4 km/h (3 Bft) W-SW 240 0 min 0,000 mm 1,3 UV-I 250 W/m 11,3 C 14,2 C 17,7 km/h (3 Bft) 100,00 %
23.05.2016 08:30 16,8 C 71 % 1007,2 hPa 0,0 l/m 11,3 km/h (2 Bft) W-SW 254 1 min 0,000 mm 1,4 UV-I 414 W/m 11,5 C 14,6 C 14,5 km/h (3 Bft) 100,00 %
23.05.2016 08:31 16,8 C 70 % 1007,2 hPa 0,0 l/m 11,6 km/h (2 Bft) W-NW 292 1 min 0,000 mm 1,4 UV-I 420 W/m 11,3 C 14,5 C 16,1 km/h (3 Bft) 100,00 %
23.05.2016 08:32 16,9 C 70 % 1007,2 hPa 0,0 l/m 11,8 km/h (2 Bft) W-SW 248 1 min 0,000 mm 1,4 UV-I 405 W/m 11,4 C 14,5 C 17,7 km/h (3 Bft) 98,59 %
23.05.2016 08:33 16,9 C 69 % 1007,2 hPa 0,0 l/m 11,5 km/h (2 Bft) W-SW 248 1 min 0,000 mm 1,5 UV-I 417 W/m 11,2 C 14,6 C 16,1 km/h (3 Bft) 97,73 %
23.05.2016 08:34 17,0 C 70 % 1007,2 hPa 0,0 l/m 9,5 km/h (2 Bft) W-SW 253 1 min 0,000 mm 1,6 UV-I 441 W/m 11,5 C 15,5 C 14,5 km/h (3 Bft) 100,00 %
23.05.2016 08:35 17,1 C 70 % 1007,2 hPa 0,0 l/m 11,4 km/h (2 Bft) W 278 1 min 0,000 mm 1,6 UV-I 533 W/m 11,6 C 14,9 C 16,1 km/h (3 Bft) 100,00 %
23.05.2016 08:36 17,2 C 70 % 1007,1 hPa 0,0 l/m 12,2 km/h (2 Bft) W-NW 285 1 min 0,000 mm 1,6 UV-I 512 W/m 11,7 C 14,7 C 20,9 km/h (4 Bft) 100,00 %
23.05.2016 08:37 17,3 C 68 % 1007,1 hPa 0,0 l/m 16,4 km/h (3 Bft) W-SW 248 1 min 0,000 mm 1,6 UV-I 511 W/m 11,3 C 13,6 C 22,5 km/h (4 Bft) 100,00 %
23.05.2016 08:38 17,3 C 68 % 1007,1 hPa 0,0 l/m 12,5 km/h (3 Bft) W-SW 237 1 min 0,000 mm 1,6 UV-I 494 W/m 11,3 C 14,8 C 17,7 km/h (3 Bft) 100,00 %
23.05.2016 08:39 17,3 C 68 % 1007,1 hPa 0,0 l/m 8,0 km/h (2 Bft) W-SW 248 1 min 0,000 mm 1,7 UV-I 529 W/m 11,3 C 16,5 C 11,3 km/h (2 Bft) 100,00 %
23.05.2016 08:40 17,3 C 69 % 1007,1 hPa 0,0 l/m 9,3 km/h (2 Bft) W-NW 297 1 min 0,000 mm 1,7 UV-I 575 W/m 11,6 C 15,9 C 12,9 km/h (3 Bft) 96,15 %
23.05.2016 08:41 17,3 C 68 % 1007,1 hPa 0,0 l/m 4,9 km/h (1 Bft) SW 234 1 min 0,000 mm 1,7 UV-I 552 W/m 11,3 C 17,3 C 6,4 km/h (2 Bft) 100,00 %
23.05.2016 08:42 17,4 C 69 % 1007,1 hPa 0,0 l/m 10,1 km/h (2 Bft) W-SW 245 1 min 0,000 mm 1,7 UV-I 495 W/m 11,7 C 15,7 C 14,5 km/h (3 Bft) 100,00 %
23.05.2016 08:43 17,4 C 68 % 1007,1 hPa 0,0 l/m 6,2 km/h (2 Bft) W 279 1 min 0,000 mm 1,5 UV-I 475 W/m 11,4 C 17,4 C 9,7 km/h (2 Bft) 100,00 %
23.05.2016 08:44 17,4 C 68 % 1007,1 hPa 0,0 l/m 7,2 km/h (2 Bft) W-NW 296 1 min 0,000 mm 1,6 UV-I 475 W/m 11,4 C 17,0 C 14,5 km/h (3 Bft) 93,33 %
23.05.2016 08:45 17,5 C 69 % 1007,0 hPa 0,0 l/m 5,1 km/h (1 Bft) W 271 1 min 0,000 mm 1,8 UV-I 510 W/m 11,7 C 17,5 C 8,0 km/h (2 Bft) 100,00 %
23.05.2016 08:46 17,6 C 69 % 1007,1 hPa 0,0 l/m 3,9 km/h (1 Bft) W 272 1 min 0,000 mm 1,8 UV-I 518 W/m 11,8 C 17,6 C 6,4 km/h (2 Bft) 100,00 %
23.05.2016 08:47 17,6 C 68 % 1007,1 hPa 0,0 l/m 7,9 km/h (2 Bft) SW 227 1 min 0,000 mm 1,8 UV-I 554 W/m 11,6 C 16,9 C 11,3 km/h (2 Bft) 95,65 %
23.05.2016 08:48 17,6 C 68 % 1007,1 hPa 0,0 l/m 11,7 km/h (2 Bft) W-SW 244 1 min 0,000 mm 1,9 UV-I 531 W/m 11,6 C 15,4 C 17,7 km/h (3 Bft) 100,00 %
23.05.2016 08:49 17,6 C 67 % 1007,0 hPa 0,0 l/m 12,9 km/h (3 Bft) SW 234 1 min 0,000 mm 1,7 UV-I 497 W/m 11,4 C 15,0 C 17,7 km/h (3 Bft) 100,00 %
23.05.2016 08:50 17,6 C 68 % 1007,0 hPa 0,0 l/m 6,8 km/h (2 Bft) W-SW 250 1 min 0,000 mm 1,7 UV-I 477 W/m 11,6 C 17,4 C 12,9 km/h (3 Bft) 100,00 %
23.05.2016 08:51 17,6 C 70 % 1007,0 hPa 0,0 l/m 3,4 km/h (1 Bft) W-SW 238 1 min 0,000 mm 1,7 UV-I 504 W/m 12,1 C 17,6 C 6,4 km/h (2 Bft) 95,65 %
23.05.2016 08:52 17,6 C 70 % 1007,0 hPa 0,0 l/m 5,7 km/h (1 Bft) W-SW 239 1 min 0,000 mm 1,7 UV-I 427 W/m 12,1 C 17,6 C 9,7 km/h (2 Bft) 100,00 %
23.05.2016 08:53 17,7 C 68 % 1007,0 hPa 0,0 l/m 5,4 km/h (1 Bft) W-SW 246 1 min 0,000 mm 1,5 UV-I 347 W/m 11,7 C 17,7 C 11,3 km/h (2 Bft) 95,00 %
23.05.2016 08:54 17,6 C 68 % 1007,0 hPa 0,0 l/m 10,5 km/h (2 Bft) SW 236 1 min 0,000 mm 1,6 UV-I 318 W/m 11,6 C 15,8 C 14,5 km/h (3 Bft) 100,00 %
23.05.2016 08:55 17,6 C 67 % 1007,0 hPa 0,0 l/m 8,6 km/h (2 Bft) W-SW 258 1 min 0,000 mm 1,9 UV-I 315 W/m 11,4 C 16,6 C 12,9 km/h (3 Bft) 100,00 %
23.05.2016 08:56 17,5 C 68 % 1007,0 hPa 0,0 l/m 5,3 km/h (1 Bft) S-SW 211 1 min 0,000 mm 2,1 UV-I 556 W/m 11,5 C 17,5 C 6,4 km/h (2 Bft) 100,00 %
23.05.2016 08:57 17,4 C 69 % 1007,0 hPa 0,0 l/m 5,2 km/h (1 Bft) SW 236 1 min 0,000 mm 2,0 UV-I 518 W/m 11,7 C 17,4 C 8,0 km/h (2 Bft) 96,30 %
23.05.2016 08:58 17,5 C 70 % 1007,0 hPa 0,0 l/m 3,8 km/h (1 Bft) SW 226 1 min 0,000 mm 2,0 UV-I 509 W/m 12,0 C 17,5 C 9,7 km/h (2 Bft) 95,65 %
23.05.2016 08:59 17,7 C 70 % 1007,0 hPa 0,0 l/m 6,8 km/h (2 Bft) SW 232 1 min 0,000 mm 1,9 UV-I 473 W/m 12,2 C 17,5 C 8,0 km/h (2 Bft) 100,00 %
23.05.2016 09:00 17,8 C 68 % 1007,0 hPa 0,0 l/m 5,3 km/h (1 Bft) W-SW 245 1 min 0,000 mm 1,9 UV-I 451 W/m 11,8 C 17,8 C 9,7 km/h (2 Bft) 100,00 %
23.05.2016 09:02 17,8 C 67 % 1007,0 hPa 0,0 l/m 7,9 km/h (2 Bft) SW 217 2 min 0,254 mm 1,9 UV-I 448 W/m 11,6 C 17,1 C 12,9 km/h (3 Bft) 100,00 %
23.05.2016 09:03 17,8 C 67 % 1007,0 hPa 0,0 l/m 6,3 km/h (2 Bft) SW 216 1 min 0,000 mm 2,0 UV-I 512 W/m 11,6 C 17,8 C 11,3 km/h (2 Bft) 100,00 %
23.05.2016 09:04 17,8 C 68 % 1007,0 hPa 0,0 l/m 3,6 km/h (1 Bft) W-NW 294 1 min 0,000 mm 1,9 UV-I 474 W/m 11,8 C 17,8 C 6,4 km/h (2 Bft) 100,00 %
23.05.2016 09:05 17,9 C 69 % 1007,0 hPa 0,0 l/m 4,1 km/h (1 Bft) W 264 1 min 0,000 mm 2,0 UV-I 468 W/m 12,1 C 17,9 C 4,8 km/h (1 Bft) 100,00 %
23.05.2016 09:06 17,8 C 68 % 1006,9 hPa 0,0 l/m 3,6 km/h (1 Bft) N-NO 15 1 min 0,000 mm 2,0 UV-I 459 W/m 11,8 C 17,8 C 6,4 km/h (2 Bft) 100,00 %
23.05.2016 09:07 17,8 C 70 % 1006,9 hPa 0,0 l/m 4,2 km/h (1 Bft) NW 317 1 min 0,000 mm 1,9 UV-I 395 W/m 12,3 C 17,8 C 9,7 km/h (2 Bft) 100,00 %
23.05.2016 09:08 17,8 C 68 % 1006,9 hPa 0,0 l/m 6,8 km/h (2 Bft) W 275 1 min 0,000 mm 2,0 UV-I 416 W/m 11,8 C 17,6 C 12,9 km/h (3 Bft) 100,00 %
23.05.2016 09:09 17,8 C 68 % 1006,9 hPa 0,0 l/m 6,7 km/h (2 Bft) W-SW 250 1 min 0,000 mm 1,9 UV-I 419 W/m 11,8 C 17,7 C 12,9 km/h (3 Bft) 100,00 %
23.05.2016 09:10 17,7 C 68 % 1006,9 hPa 0,0 l/m 4,1 km/h (1 Bft) W 263 1 min 0,000 mm 2,0 UV-I 404 W/m 11,7 C 17,7 C 6,4 km/h (2 Bft) 92,86 %
23.05.2016 09:11 17,7 C 69 % 1006,9 hPa 0,0 l/m 9,5 km/h (2 Bft) W 272 1 min 0,000 mm 1,9 UV-I 449 W/m 11,9 C 16,3 C 14,5 km/h (3 Bft) 100,00 %
23.05.2016 09:12 17,7 C 69 % 1006,9 hPa 0,0 l/m 6,1 km/h (2 Bft) W-SW 247 1 min 0,000 mm 2,0 UV-I 516 W/m 11,9 C 17,7 C 12,9 km/h (3 Bft) 100,00 %
23.05.2016 09:13 17,7 C 69 % 1006,9 hPa 0,0 l/m 3,7 km/h (1 Bft) SW 231 1 min 0,000 mm 2,1 UV-I 544 W/m 11,9 C 17,7 C 6,4 km/h (2 Bft) 100,00 %
23.05.2016 09:14 17,8 C 70 % 1007,0 hPa 0,0 l/m 2,8 km/h (1 Bft) W-NW 292 1 min 0,000 mm 2,4 UV-I 585 W/m 12,3 C 17,8 C 4,8 km/h (1 Bft) 100,00 %
23.05.2016 09:15 17,9 C 68 % 1006,9 hPa 0,0 l/m 1,7 km/h (1 Bft) W-NW 302 1 min 0,000 mm 2,3 UV-I 520 W/m 11,9 C 17,9 C 3,2 km/h (1 Bft) 100,00 %
23.05.2016 09:16 18,1 C 69 % 1006,9 hPa 0,0 l/m 2,7 km/h (1 Bft) W-NW 303 1 min 0,000 mm 2,4 UV-I 477 W/m 12,3 C 18,1 C 6,4 km/h (2 Bft) 100,00 %
23.05.2016 09:17 18,1 C 69 % 1006,9 hPa 0,0 l/m 2,3 km/h (1 Bft) W-NW 298 1 min 0,000 mm 2,2 UV-I 465 W/m 12,3 C 18,1 C 4,8 km/h (1 Bft) 100,00 %
23.05.2016 09:18 18,1 C 69 % 1006,9 hPa 0,0 l/m 5,7 km/h (1 Bft) S-SW 193 1 min 0,000 mm 2,2 UV-I 430 W/m 12,3 C 18,1 C 9,7 km/h (2 Bft) 100,00 %
23.05.2016 09:19 18,0 C 67 % 1006,8 hPa 0,0 l/m 8,8 km/h (2 Bft) SW 222 1 min 0,000 mm 2,3 UV-I 427 W/m 11,8 C 16,9 C 16,1 km/h (3 Bft) 100,00 %
23.05.2016 09:20 18,0 C 67 % 1006,9 hPa 0,0 l/m 8,6 km/h (2 Bft) W-NW 283 1 min 0,000 mm 2,4 UV-I 598 W/m 11,8 C 17,0 C 12,9 km/h (3 Bft) 100,00 %
23.05.2016 09:21 18,1 C 69 % 1006,9 hPa 0,0 l/m 9,7 km/h (2 Bft) W-SW 250 1 min 0,000 mm 2,0 UV-I 556 W/m 12,3 C 16,7 C 12,9 km/h (3 Bft) 100,00 %
23.05.2016 09:22 18,1 C 68 % 1006,9 hPa 0,0 l/m 10,7 km/h (2 Bft) W 267 1 min 0,000 mm 2,1 UV-I 408 W/m 12,1 C 16,3 C 14,5 km/h (3 Bft) 100,00 %
23.05.2016 09:23 18,1 C 67 % 1006,9 hPa 0,0 l/m 10,1 km/h (2 Bft) W 259 1 min 0,000 mm 2,4 UV-I 492 W/m 11,9 C 16,5 C 14,5 km/h (3 Bft) 100,00 %
23.05.2016 09:24 18,2 C 66 % 1006,9 hPa 0,0 l/m 9,9 km/h (2 Bft) SW 225 1 min 0,000 mm 2,5 UV-I 584 W/m 11,7 C 16,7 C 12,9 km/h (3 Bft) 100,00 %
23.05.2016 09:25 18,2 C 66 % 1006,9 hPa 0,0 l/m 11,1 km/h (2 Bft) W-SW 248 1 min 0,000 mm 2,6 UV-I 596 W/m 11,7 C 16,3 C 16,1 km/h (3 Bft) 100,00 %
23.05.2016 09:26 18,1 C 67 % 1006,9 hPa 0,0 l/m 9,4 km/h (2 Bft) W-SW 239 1 min 0,000 mm 2,3 UV-I 499 W/m 11,9 C 16,8 C 11,3 km/h (2 Bft) 100,00 %
23.05.2016 09:27 18,1 C 66 % 1006,9 hPa 0,0 l/m 12,8 km/h (3 Bft) W-SW 254 1 min 0,000 mm 2,4 UV-I 584 W/m 11,6 C 15,6 C 16,1 km/h (3 Bft) 100,00 %
23.05.2016 09:28 18,1 C 67 % 1006,9 hPa 0,0 l/m 13,6 km/h (3 Bft) W-SW 248 1 min 0,000 mm 2,4 UV-I 552 W/m 11,9 C 15,3 C 17,7 km/h (3 Bft) 100,00 %
23.05.2016 09:29 18,1 C 67 % 1006,9 hPa 0,0 l/m 6,9 km/h (2 Bft) SW 235 1 min 0,000 mm 2,2 UV-I 459 W/m 11,9 C 17,9 C 11,3 km/h (2 Bft) 100,00 %
23.05.2016 09:30 17,9 C 66 % 1006,8 hPa 0,0 l/m 4,7 km/h (1 Bft) S 180 1 min 0,000 mm 2,2 UV-I 418 W/m 11,5 C 17,9 C 6,4 km/h (2 Bft) 100,00 %
23.05.2016 09:31 17,8 C 67 % 1006,8 hPa 0,0 l/m 6,8 km/h (2 Bft) W-SW 254 1 min 0,000 mm 2,2 UV-I 431 W/m 11,6 C 17,6 C 9,7 km/h (2 Bft) 100,00 %
23.05.2016 09:32 17,8 C 68 % 1006,8 hPa 0,0 l/m 8,3 km/h (2 Bft) W 263 1 min 0,000 mm 2,0 UV-I 477 W/m 11,8 C 16,9 C 12,9 km/h (3 Bft) 100,00 %
23.05.2016 09:33 17,8 C 66 % 1006,8 hPa 0,0 l/m 8,9 km/h (2 Bft) W-SW 242 1 min 0,000 mm 2,2 UV-I 522 W/m 11,4 C 16,7 C 14,5 km/h (3 Bft) 100,00 %
23.05.2016 09:34 17,9 C 67 % 1006,7 hPa 0,0 l/m 3,7 km/h (1 Bft) W-SW 252 1 min 0,000 mm 2,2 UV-I 558 W/m 11,7 C 17,9 C 6,4 km/h (2 Bft) 100,00 %
23.05.2016 09:35 17,9 C 68 % 1006,7 hPa 0,0 l/m 4,5 km/h (1 Bft) W-NW 284 1 min 0,000 mm 2,3 UV-I 549 W/m 11,9 C 17,9 C 12,9 km/h (3 Bft) 95,83 %
23.05.2016 09:36 18,1 C 68 % 1006,6 hPa 0,0 l/m 4,0 km/h (1 Bft) W-NW 284 1 min 0,000 mm 2,4 UV-I 515 W/m 12,1 C 18,1 C 9,7 km/h (2 Bft) 96,15 %
23.05.2016 09:37 18,1 C 68 % 1006,7 hPa 0,0 l/m 4,3 km/h (1 Bft) W 274 1 min 0,000 mm 2,5 UV-I 515 W/m 12,1 C 18,1 C 8,0 km/h (2 Bft) 95,65 %
23.05.2016 09:38 18,1 C 68 % 1006,7 hPa 0,0 l/m 6,4 km/h (2 Bft) W 259 1 min 0,000 mm 2,2 UV-I 498 W/m 12,1 C 18,1 C 11,3 km/h (2 Bft) 100,00 %
23.05.2016 09:39 18,2 C 68 % 1006,7 hPa 0,0 l/m 5,9 km/h (2 Bft) W-SW 247 1 min 0,000 mm 2,2 UV-I 403 W/m 12,2 C 18,2 C 9,7 km/h (2 Bft) 91,67 %
23.05.2016 09:40 18,2 C 67 % 1006,7 hPa 0,0 l/m 4,7 km/h (1 Bft) W-NW 293 1 min 0,000 mm 2,3 UV-I 392 W/m 12,0 C 18,2 C 8,0 km/h (2 Bft) 100,00 %
23.05.2016 09:41 18,1 C 66 % 1006,6 hPa 0,0 l/m 8,0 km/h (2 Bft) NW 315 1 min 0,000 mm 2,6 UV-I 539 W/m 11,6 C 17,4 C 12,9 km/h (3 Bft) 96,30 %
23.05.2016 09:42 18,1 C 68 % 1006,7 hPa 0,0 l/m 8,9 km/h (2 Bft) W-SW 246 1 min 0,000 mm 2,3 UV-I 686 W/m 12,1 C 17,0 C 12,9 km/h (3 Bft) 100,00 %
23.05.2016 09:43 18,1 C 67 % 1006,7 hPa 0,0 l/m 4,7 km/h (1 Bft) W-SW 245 1 min 0,000 mm 2,1 UV-I 686 W/m 11,9 C 18,1 C 6,4 km/h (2 Bft) 96,30 %
23.05.2016 09:44 18,1 C 66 % 1006,7 hPa 0,0 l/m 5,2 km/h (1 Bft) SW 220 1 min 0,000 mm 2,0 UV-I 371 W/m 11,6 C 18,1 C 8,0 km/h (2 Bft) 92,86 %
23.05.2016 09:45 18,1 C 66 % 1006,7 hPa 0,0 l/m 6,4 km/h (2 Bft) W 272 1 min 0,000 mm 2,1 UV-I 393 W/m 11,6 C 18,1 C 11,3 km/h (2 Bft) 96,77 %
23.05.2016 09:46 18,1 C 67 % 1006,7 hPa 0,0 l/m 6,6 km/h (2 Bft) W 263 1 min 0,000 mm 2,1 UV-I 397 W/m 11,9 C 18,0 C 9,7 km/h (2 Bft) 96,15 %
23.05.2016 09:47 18,1 C 67 % 1006,6 hPa 0,0 l/m 6,0 km/h (2 Bft) W-SW 258 1 min 0,000 mm 2,2 UV-I 388 W/m 11,9 C 18,1 C 9,7 km/h (2 Bft) 100,00 %
23.05.2016 09:48 18,2 C 68 % 1006,6 hPa 0,0 l/m 6,6 km/h (2 Bft) W-SW 252 1 min 0,000 mm 2,5 UV-I 492 W/m 12,2 C 18,1 C 9,7 km/h (2 Bft) 95,65 %
23.05.2016 09:49 18,3 C 67 % 1006,6 hPa 0,0 l/m 8,9 km/h (2 Bft) W-SW 246 1 min 0,000 mm 2,2 UV-I 479 W/m 12,1 C 17,2 C 14,5 km/h (3 Bft) 100,00 %
23.05.2016 09:50 18,3 C 67 % 1006,6 hPa 0,0 l/m 8,0 km/h (2 Bft) W-SW 241 1 min 0,000 mm 1,3 UV-I 399 W/m 12,1 C 17,6 C 11,3 km/h (2 Bft) 88,46 %
23.05.2016 09:51 18,4 C 68 % 1006,6 hPa 0,0 l/m 6,0 km/h (2 Bft) SW 223 1 min 0,000 mm 2,4 UV-I 399 W/m 12,4 C 18,4 C 8,0 km/h (2 Bft) 96,30 %
23.05.2016 09:52 18,4 C 68 % 1006,6 hPa 0,0 l/m 6,8 km/h (2 Bft) NW 309 1 min 0,000 mm 2,2 UV-I 398 W/m 12,4 C 18,2 C 11,3 km/h (2 Bft) 100,00 %
23.05.2016 09:53 18,4 C 67 % 1006,6 hPa 0,0 l/m 3,5 km/h (1 Bft) W 279 0 min 0,000 mm 2,0 UV-I 374 W/m 12,2 C 18,4 C 6,4 km/h (2 Bft) 93,33 %
23.05.2016 09:54 18,3 C 67 % 1006,6 hPa 0,0 l/m 3,2 km/h (1 Bft) W-SW 242 1 min 0,000 mm 2,1 UV-I 377 W/m 12,1 C 18,3 C 9,7 km/h (2 Bft) 95,83 %
23.05.2016 09:55 18,2 C 67 % 1006,6 hPa 0,0 l/m 8,6 km/h (2 Bft) W-SW 246 1 min 0,000 mm 2,2 UV-I 388 W/m 12,0 C 17,2 C 11,3 km/h (2 Bft) 96,15 %
23.05.2016 09:56 18,1 C 67 % 1006,6 hPa 0,0 l/m 6,2 km/h (2 Bft) SW 214 1 min 0,000 mm 2,3 UV-I 392 W/m 11,9 C 18,1 C 11,3 km/h (2 Bft) 100,00 %
23.05.2016 09:57 18,1 C 67 % 1006,6 hPa 0,0 l/m 5,5 km/h (1 Bft) SW 231 1 min 0,000 mm 2,3 UV-I 418 W/m 11,9 C 18,1 C 11,3 km/h (2 Bft) 96,15 %
23.05.2016 09:58 18,2 C 68 % 1006,6 hPa 0,0 l/m 9,2 km/h (2 Bft) SW 231 1 min 0,000 mm 2,6 UV-I 448 W/m 12,2 C 17,0 C 14,5 km/h (3 Bft) 96,15 %
23.05.2016 09:59 18,2 C 68 % 1006,6 hPa 0,0 l/m 6,9 km/h (2 Bft) SW 229 1 min 0,000 mm 2,5 UV-I 493 W/m 12,2 C 18,0 C 9,7 km/h (2 Bft) 100,00 %
23.05.2016 10:00 18,3 C 67 % 1006,6 hPa 0,0 l/m 8,4 km/h (2 Bft) W-SW 244 1 min 0,305 mm 2,6 UV-I 536 W/m 12,1 C 17,4 C 12,9 km/h (3 Bft) 100,00 %
23.05.2016 10:02 18,3 C 67 % 1006,5 hPa 0,0 l/m 8,6 km/h (2 Bft) W-SW 242 2 min 0,000 mm 2,4 UV-I 448 W/m 12,1 C 17,3 C 14,5 km/h (3 Bft) 96,43 %
23.05.2016 10:03 18,3 C 68 % 1006,6 hPa 0,0 l/m 13,4 km/h (3 Bft) W-SW 242 1 min 0,000 mm 2,6 UV-I 478 W/m 12,3 C 15,6 C 17,7 km/h (3 Bft) 100,00 %
23.05.2016 10:04 18,3 C 66 % 1006,6 hPa 0,0 l/m 7,3 km/h (2 Bft) NW 309 1 min 0,000 mm 2,4 UV-I 514 W/m 11,8 C 17,9 C 11,3 km/h (2 Bft) 95,83 %
23.05.2016 10:05 18,2 C 67 % 1006,5 hPa 0,0 l/m 8,0 km/h (2 Bft) W 271 1 min 0,000 mm 2,7 UV-I 540 W/m 12,0 C 17,5 C 14,5 km/h (3 Bft) 100,00 %
23.05.2016 10:06 18,1 C 66 % 1006,6 hPa 0,0 l/m 7,8 km/h (2 Bft) W-SW 248 1 min 0,000 mm 2,6 UV-I 541 W/m 11,6 C 17,4 C 12,9 km/h (3 Bft) 100,00 %
23.05.2016 10:07 18,1 C 67 % 1006,5 hPa 0,0 l/m 3,1 km/h (1 Bft) W 276 1 min 0,000 mm 2,6 UV-I 554 W/m 11,9 C 18,1 C 6,4 km/h (2 Bft) 100,00 %
23.05.2016 10:08 18,0 C 68 % 1006,5 hPa 0,0 l/m 4,3 km/h (1 Bft) W 259 1 min 0,000 mm 2,4 UV-I 476 W/m 12,0 C 18,0 C 9,7 km/h (2 Bft) 100,00 %
23.05.2016 10:09 18,0 C 68 % 1006,5 hPa 0,0 l/m 3,5 km/h (1 Bft) W-SW 249 1 min 0,000 mm 2,4 UV-I 448 W/m 12,0 C 18,0 C 6,4 km/h (2 Bft) 100,00 %
23.05.2016 10:10 18,1 C 68 % 1006,5 hPa 0,0 l/m 6,8 km/h (2 Bft) W-SW 237 1 min 0,000 mm 2,3 UV-I 436 W/m 12,1 C 17,9 C 11,3 km/h (2 Bft) 100,00 %
23.05.2016 10:11 18,1 C 68 % 1006,5 hPa 0,0 l/m 6,9 km/h (2 Bft) SW 226 1 min 0,000 mm 2,5 UV-I 480 W/m 12,1 C 17,9 C 11,3 km/h (2 Bft) 100,00 %
23.05.2016 10:12 18,1 C 69 % 1006,5 hPa 0,0 l/m 4,5 km/h (1 Bft) W-SW 238 1 min 0,000 mm 2,6 UV-I 451 W/m 12,3 C 18,1 C 6,4 km/h (2 Bft) 100,00 %
23.05.2016 10:13 18,2 C 70 % 1006,4 hPa 0,0 l/m 5,8 km/h (2 Bft) W-SW 250 1 min 0,000 mm 2,5 UV-I 474 W/m 12,6 C 18,2 C 11,3 km/h (2 Bft) 92,31 %
23.05.2016 10:14 18,2 C 68 % 1006,4 hPa 0,0 l/m 6,2 km/h (2 Bft) SW 232 1 min 0,000 mm 2,6 UV-I 399 W/m 12,2 C 18,2 C 8,0 km/h (2 Bft) 100,00 %
23.05.2016 10:15 18,2 C 68 % 1006,5 hPa 0,0 l/m 3,1 km/h (1 Bft) W-SW 249 1 min 0,000 mm 2,9 UV-I 451 W/m 12,2 C 18,2 C 6,4 km/h (2 Bft) 100,00 %
23.05.2016 10:16 18,2 C 69 % 1006,5 hPa 0,0 l/m 5,2 km/h (1 Bft) W-SW 252 1 min 0,000 mm 2,9 UV-I 573 W/m 12,4 C 18,2 C 6,4 km/h (2 Bft) 100,00 %
23.05.2016 10:17 18,3 C 68 % 1006,5 hPa 0,0 l/m 8,0 km/h (2 Bft) SW 234 1 min 0,000 mm 2,6 UV-I 520 W/m 12,3 C 17,6 C 12,9 km/h (3 Bft) 100,00 %
23.05.2016 10:18 18,3 C 69 % 1006,5 hPa 0,0 l/m 5,6 km/h (1 Bft) S-SW 209 1 min 0,000 mm 2,5 UV-I 416 W/m 12,5 C 18,3 C 8,0 km/h (2 Bft) 100,00 %
23.05.2016 10:19 18,3 C 69 % 1006,4 hPa 0,0 l/m 3,0 km/h (1 Bft) SW 228 1 min 0,000 mm 2,5 UV-I 416 W/m 12,5 C 18,3 C 4,8 km/h (1 Bft) 100,00 %
23.05.2016 10:20 18,3 C 69 % 1006,5 hPa 0,0 l/m 2,7 km/h (1 Bft) NO 50 1 min 0,000 mm 2,4 UV-I 423 W/m 12,5 C 18,3 C 3,2 km/h (1 Bft) 100,00 %
23.05.2016 10:21 18,4 C 69 % 1006,4 hPa 0,0 l/m 2,0 km/h (1 Bft) W-NW 299 1 min 0,000 mm 2,6 UV-I 430 W/m 12,6 C 18,4 C 3,2 km/h (1 Bft) 100,00 %
23.05.2016 10:22 18,4 C 69 % 1006,4 hPa 0,0 l/m 7,1 km/h (2 Bft) W 269 1 min 0,000 mm 2,4 UV-I 419 W/m 12,6 C 18,1 C 12,9 km/h (3 Bft) 100,00 %
23.05.2016 10:23 18,3 C 69 % 1006,4 hPa 0,0 l/m 3,8 km/h (1 Bft) W 265 1 min 0,000 mm 2,5 UV-I 408 W/m 12,5 C 18,3 C 6,4 km/h (2 Bft) 100,00 %
23.05.2016 10:24 18,3 C 68 % 1006,4 hPa 0,0 l/m 7,8 km/h (2 Bft) W-SW 237 1 min 0,000 mm 2,6 UV-I 447 W/m 12,3 C 17,7 C 12,9 km/h (3 Bft) 100,00 %
23.05.2016 10:25 18,3 C 69 % 1006,4 hPa 0,0 l/m 7,2 km/h (2 Bft) W 268 1 min 0,000 mm 2,5 UV-I 456 W/m 12,5 C 17,9 C 9,7 km/h (2 Bft) 96,30 %
23.05.2016 10:26 18,3 C 69 % 1006,3 hPa 0,0 l/m 7,7 km/h (2 Bft) SW 232 0 min 0,000 mm 2,5 UV-I 394 W/m 12,5 C 17,7 C 11,3 km/h (2 Bft) 100,00 %
23.05.2016 10:27 18,3 C 70 % 1006,4 hPa 0,0 l/m 5,6 km/h (1 Bft) W 267 0 min 0,000 mm 2,5 UV-I 387 W/m 12,7 C 18,3 C 6,4 km/h (2 Bft) 100,00 %
23.05.2016 10:28 18,4 C 69 % 1006,4 hPa 0,0 l/m 7,1 km/h (2 Bft) W-NW 292 0 min 0,000 mm 2,7 UV-I 387 W/m 12,6 C 18,1 C 9,7 km/h (2 Bft) 100,00 %
23.05.2016 10:29 18,3 C 67 % 1006,4 hPa 0,0 l/m 6,1 km/h (2 Bft) W 273 0 min 0,000 mm 2,6 UV-I 406 W/m 12,1 C 18,3 C 9,7 km/h (2 Bft) 100,00 %
23.05.2016 10:30 18,2 C 66 % 1006,3 hPa 0,0 l/m 4,9 km/h (1 Bft) SW 223 0 min 0,000 mm 2,6 UV-I 388 W/m 11,7 C 18,2 C 9,7 km/h (2 Bft) 100,00 %
23.05.2016 10:31 18,1 C 67 % 1006,3 hPa 0,0 l/m 4,0 km/h (1 Bft) W-SW 248 0 min 0,000 mm 2,8 UV-I 385 W/m 11,9 C 18,1 C 8,0 km/h (2 Bft) 100,00 %
23.05.2016 10:32 18,0 C 67 % 1006,4 hPa 0,0 l/m 5,4 km/h (1 Bft) W-SW 237 0 min 0,000 mm 2,7 UV-I 387 W/m 11,8 C 18,0 C 11,3 km/h (2 Bft) 100,00 %
23.05.2016 10:33 17,9 C 67 % 1006,4 hPa 0,0 l/m 4,9 km/h (1 Bft) W-NW 290 0 min 0,000 mm 2,6 UV-I 397 W/m 11,7 C 17,9 C 8,0 km/h (2 Bft) 95,65 %
23.05.2016 10:34 17,9 C 68 % 1006,4 hPa 0,0 l/m 6,8 km/h (2 Bft) SW 226 1 min 0,000 mm 2,9 UV-I 446 W/m 11,9 C 17,7 C 9,7 km/h (2 Bft) 96,30 %
23.05.2016 10:35 17,9 C 68 % 1006,4 hPa 0,0 l/m 5,6 km/h (1 Bft) W-SW 255 1 min 0,000 mm 3,0 UV-I 459 W/m 11,9 C 17,9 C 8,0 km/h (2 Bft) 100,00 %
23.05.2016 10:36 18,0 C 69 % 1006,4 hPa 0,0 l/m 8,9 km/h (2 Bft) W-SW 245 1 min 0,000 mm 2,8 UV-I 460 W/m 12,2 C 16,9 C 16,1 km/h (3 Bft) 100,00 %
23.05.2016 10:37 18,0 C 68 % 1006,4 hPa 0,0 l/m 5,8 km/h (2 Bft) N-NW 335 1 min 0,000 mm 2,9 UV-I 492 W/m 12,0 C 18,0 C 11,3 km/h (2 Bft) 95,65 %
23.05.2016 10:38 18,1 C 68 % 1006,5 hPa 0,0 l/m 4,5 km/h (1 Bft) W-NW 300 1 min 0,000 mm 2,6 UV-I 487 W/m 12,1 C 18,1 C 9,7 km/h (2 Bft) 100,00 %
23.05.2016 10:39 18,0 C 69 % 1006,4 hPa 0,0 l/m 3,2 km/h (1 Bft) W 263 1 min 0,000 mm 2,9 UV-I 450 W/m 12,2 C 18,0 C 4,8 km/h (1 Bft) 100,00 %
23.05.2016 10:40 18,1 C 70 % 1006,4 hPa 0,0 l/m 4,8 km/h (1 Bft) W-SW 257 1 min 0,000 mm 2,9 UV-I 446 W/m 12,5 C 18,1 C 9,7 km/h (2 Bft) 96,30 %
23.05.2016 10:41 18,1 C 69 % 1006,4 hPa 0,0 l/m 5,4 km/h (1 Bft) S-SW 195 0 min 0,000 mm 2,8 UV-I 420 W/m 12,3 C 18,1 C 8,0 km/h (2 Bft) 100,00 %
23.05.2016 10:42 18,1 C 68 % 1006,4 hPa 0,0 l/m 4,4 km/h (1 Bft) W 267 1 min 0,000 mm 3,1 UV-I 428 W/m 12,1 C 18,1 C 8,0 km/h (2 Bft) 98,64 %
23.05.2016 10:43 18,1 C 69 % 1006,4 hPa 0,0 l/m 8,4 km/h (2 Bft) W-SW 253 1 min 0,000 mm 3,8 UV-I 617 W/m 12,3 C 17,2 C 12,9 km/h (3 Bft) 97,56 %
23.05.2016 10:44 18,1 C 68 % 1006,4 hPa 0,0 l/m 5,8 km/h (2 Bft) W-SW 252 1 min 0,000 mm 2,8 UV-I 536 W/m 12,1 C 18,1 C 12,9 km/h (3 Bft) 100,00 %
23.05.2016 10:45 18,2 C 69 % 1006,4 hPa 0,0 l/m 3,7 km/h (1 Bft) W 278 1 min 0,000 mm 2,9 UV-I 446 W/m 12,4 C 18,2 C 6,4 km/h (2 Bft) 100,00 %
23.05.2016 10:46 18,1 C 68 % 1006,4 hPa 0,0 l/m 3,4 km/h (1 Bft) S-SW 208 1 min 0,000 mm 2,9 UV-I 452 W/m 12,1 C 18,1 C 6,4 km/h (2 Bft) 100,00 %
23.05.2016 10:47 18,1 C 69 % 1006,3 hPa 0,0 l/m 3,8 km/h (1 Bft) S 185 1 min 0,000 mm 2,8 UV-I 452 W/m 12,3 C 18,1 C 8,0 km/h (2 Bft) 100,00 %
23.05.2016 10:48 18,2 C 70 % 1006,4 hPa 0,0 l/m 6,6 km/h (2 Bft) W-SW 241 1 min 0,000 mm 3,1 UV-I 472 W/m 12,6 C 18,1 C 11,3 km/h (2 Bft) 100,00 %
23.05.2016 10:49 18,2 C 69 % 1006,4 hPa 0,0 l/m 9,3 km/h (2 Bft) W-SW 249 1 min 0,000 mm 2,8 UV-I 610 W/m 12,4 C 16,9 C 12,9 km/h (3 Bft) 100,00 %
23.05.2016 10:50 18,2 C 68 % 1006,3 hPa 0,0 l/m 10,1 km/h (2 Bft) W 270 1 min 0,000 mm 2,7 UV-I 530 W/m 12,2 C 16,6 C 12,9 km/h (3 Bft) 95,12 %
23.05.2016 10:51 18,2 C 67 % 1006,3 hPa 0,0 l/m 8,2 km/h (2 Bft) W-SW 245 0 min 0,000 mm 2,6 UV-I 399 W/m 12,0 C 17,4 C 11,3 km/h (2 Bft) 100,00 %
23.05.2016 10:52 18,2 C 68 % 1006,4 hPa 0,0 l/m 5,2 km/h (1 Bft) SW 234 1 min 0,000 mm 2,7 UV-I 434 W/m 12,2 C 18,2 C 6,4 km/h (2 Bft) 100,00 %
23.05.2016 10:53 18,2 C 68 % 1006,3 hPa 0,0 l/m 3,0 km/h (1 Bft) W 267 1 min 0,000 mm 3,0 UV-I 476 W/m 12,2 C 18,2 C 4,8 km/h (1 Bft) 100,00 %
23.05.2016 10:54 18,3 C 70 % 1006,3 hPa 0,0 l/m 8,5 km/h (2 Bft) W 267 1 min 0,000 mm 3,1 UV-I 483 W/m 12,7 C 17,4 C 11,3 km/h (2 Bft) 100,00 %
23.05.2016 10:55 18,2 C 67 % 1006,3 hPa 0,0 l/m 6,4 km/h (2 Bft) NW 304 1 min 0,000 mm 3,0 UV-I 475 W/m 12,0 C 18,2 C 12,9 km/h (3 Bft) 100,00 %
23.05.2016 10:56 18,2 C 67 % 1006,3 hPa 0,0 l/m 6,8 km/h (2 Bft) SW 229 1 min 0,000 mm 2,8 UV-I 461 W/m 12,0 C 18,0 C 9,7 km/h (2 Bft) 100,00 %
23.05.2016 10:57 18,1 C 67 % 1006,3 hPa 0,0 l/m 9,3 km/h (2 Bft) S-SW 195 1 min 0,000 mm 2,9 UV-I 461 W/m 11,9 C 16,8 C 11,3 km/h (2 Bft) 100,00 %
23.05.2016 10:58 18,1 C 68 % 1006,2 hPa 0,0 l/m 4,7 km/h (1 Bft) W-NW 285 0 min 0,000 mm 2,7 UV-I 417 W/m 12,1 C 18,1 C 9,7 km/h (2 Bft) 100,00 %
23.05.2016 10:59 18,2 C 69 % 1006,2 hPa 0,0 l/m 0,7 km/h (0 Bft) W-NW 296 0 min 0,000 mm 3,2 UV-I 399 W/m 12,4 C 18,2 C 1,6 km/h (1 Bft) 100,00 %
23.05.2016 11:00 18,2 C 68 % 1006,2 hPa 0,0 l/m 1,0 km/h (0 Bft) N-NW 328 0 min 0,000 mm 2,9 UV-I 399 W/m 12,2 C 18,2 C 3,2 km/h (1 Bft) 98,67 %
23.05.2016 11:01 18,3 C 69 % 1006,2 hPa 0,0 l/m 2,2 km/h (1 Bft) N-NW 338 0 min 0,305 mm 2,8 UV-I 414 W/m 12,5 C 18,3 C 4,8 km/h (1 Bft) 100,00 %
23.05.2016 11:02 18,3 C 69 % 1006,2 hPa 0,0 l/m 3,8 km/h (1 Bft) W-NW 287 1 min 0,000 mm 3,1 UV-I 448 W/m 12,5 C 18,3 C 6,4 km/h (2 Bft) 100,00 %
23.05.2016 11:03 18,3 C 71 % 1006,2 hPa 0,0 l/m 6,3 km/h (2 Bft) W 263 1 min 0,000 mm 3,2 UV-I 526 W/m 12,9 C 18,3 C 14,5 km/h (3 Bft) 100,00 %
23.05.2016 11:04 18,3 C 68 % 1006,2 hPa 0,0 l/m 13,1 km/h (3 Bft) W-SW 258 1 min 0,000 mm 2,9 UV-I 550 W/m 12,3 C 15,7 C 17,7 km/h (3 Bft) 100,00 %
23.05.2016 11:05 18,2 C 67 % 1006,2 hPa 0,0 l/m 6,4 km/h (2 Bft) W 273 0 min 0,000 mm 2,7 UV-I 417 W/m 12,0 C 18,2 C 12,9 km/h (3 Bft) 96,30 %
23.05.2016 11:06 18,2 C 68 % 1006,2 hPa 0,0 l/m 6,6 km/h (2 Bft) SW 235 0 min 0,000 mm 2,7 UV-I 398 W/m 12,2 C 18,1 C 9,7 km/h (2 Bft) 100,00 %
23.05.2016 11:07 18,2 C 68 % 1006,2 hPa 0,0 l/m 4,8 km/h (1 Bft) W 259 0 min 0,000 mm 2,6 UV-I 331 W/m 12,2 C 18,2 C 6,4 km/h (2 Bft) 91,67 %
23.05.2016 11:08 18,2 C 68 % 1006,2 hPa 0,0 l/m 4,3 km/h (1 Bft) W-SW 252 0 min 0,000 mm 2,6 UV-I 368 W/m 12,2 C 18,2 C 6,4 km/h (2 Bft) 100,00 %
23.05.2016 11:09 18,2 C 69 % 1006,2 hPa 0,0 l/m 1,4 km/h (1 Bft) W 273 0 min 0,000 mm 2,5 UV-I 366 W/m 12,4 C 18,2 C 3,2 km/h (1 Bft) 100,00 %
23.05.2016 11:10 18,3 C 69 % 1006,1 hPa 0,0 l/m 0,6 km/h (0 Bft) W 273 0 min 0,000 mm 2,5 UV-I 366 W/m 12,5 C 18,3 C 1,6 km/h (1 Bft) 96,15 %
23.05.2016 11:11 18,2 C 68 % 1006,1 hPa 0,0 l/m 3,5 km/h (1 Bft) W-NW 290 0 min 0,000 mm 2,6 UV-I 374 W/m 12,2 C 18,2 C 12,9 km/h (3 Bft) 96,30 %
23.05.2016 11:12 18,2 C 67 % 1006,0 hPa 0,0 l/m 7,6 km/h (2 Bft) W-NW 298 0 min 0,000 mm 2,7 UV-I 443 W/m 12,0 C 17,6 C 11,3 km/h (2 Bft) 98,67 %
23.05.2016 11:13 18,1 C 69 % 1006,1 hPa 0,0 l/m 4,2 km/h (1 Bft) W 265 0 min 0,000 mm 3,0 UV-I 432 W/m 12,3 C 18,1 C 6,4 km/h (2 Bft) 100,00 %
23.05.2016 11:14 18,1 C 69 % 1006,1 hPa 0,0 l/m 4,0 km/h (1 Bft) NW 309 0 min 0,000 mm 3,0 UV-I 432 W/m 12,3 C 18,1 C 8,0 km/h (2 Bft) 100,00 %
23.05.2016 11:15 18,1 C 69 % 1006,1 hPa 0,0 l/m 4,8 km/h (1 Bft) W-NW 288 0 min 0,000 mm 2,7 UV-I 360 W/m 12,3 C 18,1 C 8,0 km/h (2 Bft) 95,83 %
23.05.2016 11:16 18,1 C 69 % 1006,1 hPa 0,0 l/m 8,1 km/h (2 Bft) NW 314 0 min 0,000 mm 2,7 UV-I 342 W/m 12,3 C 17,3 C 12,9 km/h (3 Bft) 100,00 %
23.05.2016 11:17 18,1 C 68 % 1006,1 hPa 0,0 l/m 4,8 km/h (1 Bft) W-SW 255 0 min 0,000 mm 2,8 UV-I 368 W/m 12,1 C 18,1 C 6,4 km/h (2 Bft) 100,00 %
23.05.2016 11:18 18,1 C 69 % 1006,1 hPa 0,0 l/m 3,4 km/h (1 Bft) W 281 0 min 0,000 mm 2,8 UV-I 346 W/m 12,3 C 18,1 C 6,4 km/h (2 Bft) 100,00 %
23.05.2016 11:19 18,1 C 70 % 1006,1 hPa 0,0 l/m 3,2 km/h (1 Bft) W-NW 284 0 min 0,000 mm 3,1 UV-I 417 W/m 12,5 C 18,1 C 4,8 km/h (1 Bft) 100,00 %
23.05.2016 11:20 18,1 C 69 % 1006,2 hPa 0,0 l/m 3,4 km/h (1 Bft) W 266 0 min 0,000 mm 2,9 UV-I 413 W/m 12,3 C 18,1 C 6,4 km/h (2 Bft) 100,00 %
23.05.2016 11:21 18,1 C 67 % 1006,1 hPa 0,0 l/m 3,5 km/h (1 Bft) W-SW 257 0 min 0,000 mm 2,9 UV-I 415 W/m 11,9 C 18,1 C 6,4 km/h (2 Bft) 100,00 %
23.05.2016 11:22 18,1 C 69 % 1006,1 hPa 0,0 l/m 2,6 km/h (1 Bft) W-SW 248 0 min 0,000 mm 3,5 UV-I 418 W/m 12,3 C 18,1 C 4,8 km/h (1 Bft) 100,00 %
23.05.2016 11:23 18,1 C 70 % 1006,1 hPa 0,0 l/m 2,4 km/h (1 Bft) W 273 0 min 0,000 mm 3,3 UV-I 418 W/m 12,5 C 18,1 C 4,8 km/h (1 Bft) 100,00 %
23.05.2016 11:24 18,2 C 69 % 1006,1 hPa 0,0 l/m 5,0 km/h (1 Bft) W 271 0 min 0,000 mm 2,6 UV-I 412 W/m 12,4 C 18,2 C 9,7 km/h (2 Bft) 100,00 %
23.05.2016 11:25 18,2 C 68 % 1006,1 hPa 0,0 l/m 5,9 km/h (2 Bft) W 271 0 min 0,000 mm 2,5 UV-I 392 W/m 12,2 C 18,2 C 8,0 km/h (2 Bft) 100,00 %
23.05.2016 11:26 18,2 C 68 % 1006,1 hPa 0,0 l/m 7,4 km/h (2 Bft) W 277 0 min 0,000 mm 2,7 UV-I 392 W/m 12,2 C 17,7 C 11,3 km/h (2 Bft) 100,00 %
23.05.2016 11:27 18,2 C 67 % 1006,1 hPa 0,0 l/m 7,6 km/h (2 Bft) W 281 0 min 0,000 mm 2,9 UV-I 395 W/m 12,0 C 17,6 C 11,3 km/h (2 Bft) 100,00 %
23.05.2016 11:28 18,1 C 68 % 1006,1 hPa 0,0 l/m 6,2 km/h (2 Bft) W-SW 257 0 min 0,000 mm 2,8 UV-I 390 W/m 12,1 C 18,1 C 11,3 km/h (2 Bft) 100,00 %
23.05.2016 11:29 18,1 C 68 % 1006,1 hPa 0,0 l/m 4,7 km/h (1 Bft) W-SW 248 0 min 0,000 mm 2,8 UV-I 387 W/m 12,1 C 18,1 C 8,0 km/h (2 Bft) 100,00 %
23.05.2016 11:30 18,1 C 69 % 1006,2 hPa 0,0 l/m 4,0 km/h (1 Bft) W 265 0 min 0,000 mm 3,0 UV-I 412 W/m 12,3 C 18,1 C 6,4 km/h (2 Bft) 96,30 %
23.05.2016 11:31 18,1 C 69 % 1006,1 hPa 0,0 l/m 6,3 km/h (2 Bft) W 277 0 min 0,000 mm 3,1 UV-I 427 W/m 12,3 C 18,1 C 11,3 km/h (2 Bft) 100,00 %
23.05.2016 11:32 18,2 C 68 % 1006,1 hPa 0,0 l/m 8,4 km/h (2 Bft) SW 236 0 min 0,000 mm 2,9 UV-I 393 W/m 12,2 C 17,3 C 14,5 km/h (3 Bft) 96,15 %
23.05.2016 11:33 18,2 C 67 % 1006,1 hPa 0,0 l/m 4,3 km/h (1 Bft) W 271 0 min 0,000 mm 2,8 UV-I 389 W/m 12,0 C 18,2 C 4,8 km/h (1 Bft) 100,00 %
23.05.2016 11:34 18,1 C 68 % 1006,0 hPa 0,0 l/m 3,6 km/h (1 Bft) W 273 0 min 0,000 mm 2,9 UV-I 387 W/m 12,1 C 18,1 C 6,4 km/h (2 Bft) 95,65 %
23.05.2016 11:35 18,1 C 68 % 1006,0 hPa 0,0 l/m 1,9 km/h (1 Bft) S-SW 205 0 min 0,000 mm 2,8 UV-I 385 W/m 12,1 C 18,1 C 3,2 km/h (1 Bft) 95,83 %
23.05.2016 11:36 18,2 C 68 % 1006,1 hPa 0,0 l/m 7,4 km/h (2 Bft) W-SW 257 0 min 0,000 mm 2,9 UV-I 386 W/m 12,2 C 17,7 C 12,9 km/h (3 Bft) 95,65 %
23.05.2016 11:37 18,2 C 69 % 1006,1 hPa 0,0 l/m 5,2 km/h (1 Bft) W 265 0 min 0,000 mm 2,9 UV-I 400 W/m 12,4 C 18,2 C 9,7 km/h (2 Bft) 96,30 %
23.05.2016 11:38 18,3 C 71 % 1006,1 hPa 0,0 l/m 6,2 km/h (2 Bft) W 281 0 min 0,000 mm 3,0 UV-I 406 W/m 12,9 C 18,3 C 11,3 km/h (2 Bft) 100,00 %
23.05.2016 11:39 18,3 C 68 % 1006,0 hPa 0,0 l/m 3,6 km/h (1 Bft) W 263 0 min 0,000 mm 3,0 UV-I 404 W/m 12,3 C 18,3 C 6,4 km/h (2 Bft) 91,67 %
23.05.2016 11:40 18,3 C 69 % 1006,1 hPa 0,0 l/m 4,0 km/h (1 Bft) W-NW 284 0 min 0,000 mm 3,0 UV-I 404 W/m 12,5 C 18,3 C 4,8 km/h (1 Bft) 100,00 %
23.05.2016 11:41 18,3 C 69 % 1006,0 hPa 0,0 l/m 3,8 km/h (1 Bft) SW 221 0 min 0,000 mm 3,0 UV-I 363 W/m 12,5 C 18,3 C 6,4 km/h (2 Bft) 97,56 %
23.05.2016 11:42 18,2 C 68 % 1006,1 hPa 0,0 l/m 3,6 km/h (1 Bft) NW 309 0 min 0,000 mm 3,1 UV-I 421 W/m 12,2 C 18,2 C 8,0 km/h (2 Bft) 100,00 %
23.05.2016 11:43 18,2 C 70 % 1006,0 hPa 0,0 l/m 3,7 km/h (1 Bft) SW 226 0 min 0,000 mm 3,1 UV-I 412 W/m 12,6 C 18,2 C 6,4 km/h (2 Bft) 96,97 %
23.05.2016 11:44 18,2 C 70 % 1006,1 hPa 0,0 l/m 1,9 km/h (1 Bft) SW 226 0 min 0,000 mm 3,0 UV-I 404 W/m 12,6 C 18,2 C 3,2 km/h (1 Bft) 100,00 %
23.05.2016 11:45 18,2 C 71 % 1006,0 hPa 0,0 l/m 1,3 km/h (1 Bft) W-SW 239 0 min 0,000 mm 3,0 UV-I 378 W/m 12,9 C 18,2 C 3,2 km/h (1 Bft) 96,55 %
23.05.2016 11:46 18,3 C 68 % 1006,0 hPa 0,0 l/m 1,6 km/h (1 Bft) W-SW 239 0 min 0,000 mm 3,0 UV-I 396 W/m 12,3 C 18,3 C 3,2 km/h (1 Bft) 95,65 %
23.05.2016 11:47 18,3 C 68 % 1006,0 hPa 0,0 l/m 3,9 km/h (1 Bft) W-SW 248 0 min 0,000 mm 3,0 UV-I 374 W/m 12,3 C 18,3 C 4,8 km/h (1 Bft) 100,00 %
23.05.2016 11:48 18,3 C 69 % 1006,0 hPa 0,0 l/m 8,0 km/h (2 Bft) W-SW 254 0 min 0,000 mm 2,8 UV-I 391 W/m 12,5 C 17,6 C 12,9 km/h (3 Bft) 95,65 %
23.05.2016 11:49 18,3 C 68 % 1006,0 hPa 0,0 l/m 10,5 km/h (2 Bft) W 259 0 min 0,000 mm 3,3 UV-I 432 W/m 12,3 C 16,6 C 12,9 km/h (3 Bft) 100,00 %
23.05.2016 11:50 18,4 C 67 % 1006,0 hPa 0,0 l/m 7,4 km/h (2 Bft) SW 227 0 min 0,000 mm 3,5 UV-I 432 W/m 12,2 C 17,9 C 11,3 km/h (2 Bft) 96,55 %
23.05.2016 11:51 18,4 C 69 % 1006,0 hPa 0,0 l/m 7,5 km/h (2 Bft) W-SW 258 1 min 0,000 mm 3,3 UV-I 495 W/m 12,6 C 17,9 C 11,3 km/h (2 Bft) 95,83 %
23.05.2016 11:52 18,5 C 68 % 1005,9 hPa 0,0 l/m 5,1 km/h (1 Bft) S-SW 204 1 min 0,000 mm 3,3 UV-I 518 W/m 12,5 C 18,5 C 8,0 km/h (2 Bft) 100,00 %
23.05.2016 11:53 18,5 C 66 % 1005,9 hPa 0,0 l/m 7,3 km/h (2 Bft) SW 234 1 min 0,000 mm 3,6 UV-I 485 W/m 12,0 C 18,1 C 11,3 km/h (2 Bft) 96,15 %
23.05.2016 11:54 18,5 C 67 % 1005,9 hPa 0,0 l/m 5,8 km/h (2 Bft) W 272 0 min 0,000 mm 3,4 UV-I 451 W/m 12,3 C 18,5 C 8,0 km/h (2 Bft) 96,30 %
23.05.2016 11:55 18,4 C 67 % 1005,9 hPa 0,0 l/m 4,3 km/h (1 Bft) W 262 0 min 0,000 mm 3,1 UV-I 429 W/m 12,2 C 18,4 C 8,0 km/h (2 Bft) 94,12 %
23.05.2016 11:56 18,4 C 67 % 1005,9 hPa 0,0 l/m 2,1 km/h (1 Bft) W 262 0 min 0,000 mm 3,0 UV-I 416 W/m 12,2 C 18,4 C 6,4 km/h (2 Bft) 100,00 %
23.05.2016 11:57 18,4 C 69 % 1005,9 hPa 0,0 l/m 4,1 km/h (1 Bft) W-SW 250 0 min 0,000 mm 3,1 UV-I 408 W/m 12,6 C 18,4 C 9,7 km/h (2 Bft) 96,15 %
23.05.2016 11:58 18,4 C 69 % 1005,9 hPa 0,0 l/m 2,3 km/h (1 Bft) W-SW 250 1 min 0,000 mm 3,3 UV-I 496 W/m 12,6 C 18,4 C 3,2 km/h (1 Bft) 100,00 %
23.05.2016 11:59 18,5 C 69 % 1005,9 hPa 0,0 l/m 2,5 km/h (1 Bft) W-SW 255 1 min 0,000 mm 3,7 UV-I 506 W/m 12,7 C 18,5 C 3,2 km/h (1 Bft) 96,15 %
23.05.2016 12:00 18,5 C 69 % 1005,9 hPa 0,0 l/m 1,1 km/h (1 Bft) W-SW 255 0 min 0,000 mm 3,3 UV-I 468 W/m 12,7 C 18,5 C 3,2 km/h (1 Bft) 100,00 %
23.05.2016 12:02 18,6 C 72 % 1006,0 hPa 0,0 l/m 3,8 km/h (1 Bft) W-NW 293 0 min 0,254 mm 3,0 UV-I 379 W/m 13,4 C 18,6 C 8,0 km/h (2 Bft) 98,21 %
23.05.2016 12:03 18,6 C 69 % 1005,9 hPa 0,0 l/m 3,9 km/h (1 Bft) W-NW 284 0 min 0,000 mm 2,8 UV-I 348 W/m 12,8 C 18,6 C 6,4 km/h (2 Bft) 100,00 %
23.05.2016 12:04 18,4 C 69 % 1005,9 hPa 0,0 l/m 5,6 km/h (1 Bft) W-SW 247 0 min 0,000 mm 2,8 UV-I 341 W/m 12,6 C 18,4 C 9,7 km/h (2 Bft) 100,00 %
23.05.2016 12:05 18,4 C 68 % 1005,9 hPa 0,0 l/m 5,8 km/h (2 Bft) W-SW 257 0 min 0,000 mm 2,8 UV-I 371 W/m 12,4 C 18,4 C 9,7 km/h (2 Bft) 100,00 %
23.05.2016 12:06 18,4 C 67 % 1005,9 hPa 0,0 l/m 8,7 km/h (2 Bft) W-SW 245 0 min 0,000 mm 2,8 UV-I 376 W/m 12,2 C 17,4 C 11,3 km/h (2 Bft) 100,00 %
23.05.2016 12:07 18,4 C 68 % 1005,9 hPa 0,0 l/m 4,1 km/h (1 Bft) NW 312 0 min 0,000 mm 2,8 UV-I 390 W/m 12,4 C 18,4 C 6,4 km/h (2 Bft) 98,64 %
23.05.2016 12:08 18,4 C 68 % 1005,9 hPa 0,0 l/m 4,4 km/h (1 Bft) W 271 0 min 0,000 mm 2,9 UV-I 406 W/m 12,4 C 18,4 C 9,7 km/h (2 Bft) 97,73 %
23.05.2016 12:09 18,4 C 68 % 1005,9 hPa 0,0 l/m 7,2 km/h (2 Bft) W-SW 258 0 min 0,000 mm 3,1 UV-I 429 W/m 12,4 C 18,0 C 11,3 km/h (2 Bft) 95,65 %
23.05.2016 12:10 18,4 C 67 % 1005,9 hPa 0,0 l/m 2,9 km/h (1 Bft) W 277 0 min 0,000 mm 3,3 UV-I 434 W/m 12,2 C 18,4 C 4,8 km/h (1 Bft) 100,00 %
23.05.2016 12:11 18,4 C 69 % 1005,9 hPa 0,0 l/m 4,3 km/h (1 Bft) W 265 0 min 0,000 mm 4,0 UV-I 434 W/m 12,6 C 18,4 C 6,4 km/h (2 Bft) 100,00 %
23.05.2016 12:12 18,4 C 67 % 1005,9 hPa 0,0 l/m 7,6 km/h (2 Bft) W-NW 290 0 min 0,000 mm 3,3 UV-I 434 W/m 12,2 C 17,8 C 11,3 km/h (2 Bft) 100,00 %
23.05.2016 12:13 18,4 C 67 % 1005,9 hPa 0,0 l/m 6,4 km/h (2 Bft) W-SW 243 0 min 0,000 mm 3,4 UV-I 434 W/m 12,2 C 18,4 C 9,7 km/h (2 Bft) 100,00 %
23.05.2016 12:14 18,4 C 68 % 1005,9 hPa 0,0 l/m 4,2 km/h (1 Bft) SW 233 1 min 0,000 mm 4,0 UV-I 572 W/m 12,4 C 18,4 C 6,4 km/h (2 Bft) 100,00 %
23.05.2016 12:15 18,5 C 69 % 1005,9 hPa 0,0 l/m 5,2 km/h (1 Bft) W-SW 253 1 min 0,000 mm 3,6 UV-I 526 W/m 12,7 C 18,5 C 8,0 km/h (2 Bft) 100,00 %
23.05.2016 12:16 18,6 C 68 % 1005,9 hPa 0,0 l/m 5,6 km/h (1 Bft) W-SW 242 1 min 0,000 mm 3,2 UV-I 535 W/m 12,6 C 18,6 C 6,4 km/h (2 Bft) 100,00 %
23.05.2016 12:17 18,7 C 68 % 1005,9 hPa 0,0 l/m 4,5 km/h (1 Bft) W-SW 254 1 min 0,000 mm 3,7 UV-I 606 W/m 12,7 C 18,7 C 6,4 km/h (2 Bft) 95,83 %
23.05.2016 12:18 18,7 C 68 % 1005,9 hPa 0,0 l/m 4,8 km/h (1 Bft) NW 314 1 min 0,000 mm 3,6 UV-I 533 W/m 12,7 C 18,7 C 9,7 km/h (2 Bft) 100,00 %
23.05.2016 12:19 18,7 C 67 % 1005,9 hPa 0,0 l/m 4,9 km/h (1 Bft) W-SW 246 0 min 0,000 mm 3,1 UV-I 423 W/m 12,4 C 18,7 C 8,0 km/h (2 Bft) 100,00 %
23.05.2016 12:20 18,7 C 68 % 1005,9 hPa 0,0 l/m 3,2 km/h (1 Bft) W-SW 254 0 min 0,000 mm 3,1 UV-I 425 W/m 12,7 C 18,7 C 4,8 km/h (1 Bft) 100,00 %
23.05.2016 12:21 18,7 C 67 % 1005,9 hPa 0,0 l/m 4,6 km/h (1 Bft) W-SW 250 0 min 0,000 mm 3,1 UV-I 384 W/m 12,4 C 18,7 C 8,0 km/h (2 Bft) 100,00 %
23.05.2016 12:22 18,7 C 68 % 1005,9 hPa 0,0 l/m 2,6 km/h (1 Bft) W-SW 248 0 min 0,000 mm 3,3 UV-I 453 W/m 12,7 C 18,7 C 4,8 km/h (1 Bft) 100,00 %
23.05.2016 12:23 18,7 C 67 % 1005,9 hPa 0,0 l/m 9,2 km/h (2 Bft) W-SW 237 0 min 0,000 mm 3,4 UV-I 457 W/m 12,4 C 17,5 C 12,9 km/h (3 Bft) 100,00 %
23.05.2016 12:24 18,7 C 66 % 1005,9 hPa 0,0 l/m 7,5 km/h (2 Bft) S-SW 212 0 min 0,000 mm 4,2 UV-I 475 W/m 12,2 C 18,2 C 12,9 km/h (3 Bft) 96,15 %
23.05.2016 12:25 18,7 C 66 % 1005,9 hPa 0,0 l/m 8,1 km/h (2 Bft) W-SW 251 0 min 0,000 mm 3,3 UV-I 432 W/m 12,2 C 17,9 C 11,3 km/h (2 Bft) 100,00 %
23.05.2016 12:26 18,6 C 65 % 1005,9 hPa 0,0 l/m 11,1 km/h (2 Bft) W-SW 248 0 min 0,000 mm 3,0 UV-I 413 W/m 11,9 C 16,7 C 12,9 km/h (3 Bft) 96,15 %
23.05.2016 12:27 18,6 C 65 % 1006,0 hPa 0,0 l/m 7,5 km/h (2 Bft) W-SW 248 0 min 0,000 mm 3,1 UV-I 435 W/m 11,9 C 18,1 C 11,3 km/h (2 Bft) 100,00 %
23.05.2016 12:28 18,4 C 66 % 1005,9 hPa 0,0 l/m 4,5 km/h (1 Bft) SW 225 0 min 0,000 mm 3,0 UV-I 404 W/m 11,9 C 18,4 C 6,4 km/h (2 Bft) 92,31 %
23.05.2016 12:29 18,3 C 66 % 1005,9 hPa 0,0 l/m 7,1 km/h (2 Bft) W-SW 248 0 min 0,000 mm 2,9 UV-I 399 W/m 11,8 C 18,0 C 11,3 km/h (2 Bft) 100,00 %
23.05.2016 12:30 18,3 C 67 % 1005,9 hPa 0,0 l/m 5,5 km/h (1 Bft) W-NW 288 0 min 0,000 mm 2,9 UV-I 385 W/m 12,1 C 18,3 C 6,4 km/h (2 Bft) 100,00 %
23.05.2016 12:31 18,4 C 67 % 1006,0 hPa 0,0 l/m 7,7 km/h (2 Bft) SW 226 0 min 0,000 mm 2,9 UV-I 399 W/m 12,2 C 17,8 C 9,7 km/h (2 Bft) 100,00 %
23.05.2016 12:32 18,4 C 67 % 1005,9 hPa 0,0 l/m 7,9 km/h (2 Bft) W 265 0 min 0,000 mm 2,9 UV-I 386 W/m 12,2 C 17,7 C 11,3 km/h (2 Bft) 100,00 %
23.05.2016 12:33 18,4 C 68 % 1005,9 hPa 0,0 l/m 7,0 km/h (2 Bft) SW 236 0 min 0,000 mm 2,8 UV-I 378 W/m 12,4 C 18,1 C 11,3 km/h (2 Bft) 100,00 %
23.05.2016 12:34 18,4 C 68 % 1005,9 hPa 0,0 l/m 8,0 km/h (2 Bft) W-SW 248 0 min 0,000 mm 2,8 UV-I 388 W/m 12,4 C 17,7 C 11,3 km/h (2 Bft) 100,00 %
23.05.2016 12:35 18,4 C 67 % 1005,9 hPa 0,0 l/m 4,6 km/h (1 Bft) W 276 0 min 0,000 mm 2,8 UV-I 394 W/m 12,2 C 18,4 C 8,0 km/h (2 Bft) 100,00 %
23.05.2016 12:36 18,4 C 69 % 1005,9 hPa 0,0 l/m 3,9 km/h (1 Bft) W 260 0 min 0,000 mm 2,8 UV-I 395 W/m 12,6 C 18,4 C 4,8 km/h (1 Bft) 100,00 %
23.05.2016 12:37 18,4 C 70 % 1005,9 hPa 0,0 l/m 3,8 km/h (1 Bft) W-NW 290 0 min 0,000 mm 2,8 UV-I 398 W/m 12,8 C 18,4 C 6,4 km/h (2 Bft) 100,00 %
23.05.2016 12:38 18,4 C 69 % 1005,8 hPa 0,0 l/m 2,7 km/h (1 Bft) W 277 0 min 0,000 mm 2,8 UV-I 398 W/m 12,6 C 18,4 C 4,8 km/h (1 Bft) 100,00 %
23.05.2016 12:39 18,5 C 71 % 1005,8 hPa 0,0 l/m 3,1 km/h (1 Bft) N-NW 336 0 min 0,000 mm 2,8 UV-I 390 W/m 13,1 C 18,5 C 6,4 km/h (2 Bft) 100,00 %
23.05.2016 12:40 18,4 C 70 % 1005,8 hPa 0,0 l/m 1,4 km/h (1 Bft) W 263 0 min 0,000 mm 2,7 UV-I 380 W/m 12,8 C 18,4 C 3,2 km/h (1 Bft) 100,00 %
23.05.2016 12:41 18,6 C 69 % 1005,8 hPa 0,0 l/m 1,3 km/h (1 Bft) W 263 0 min 0,000 mm 2,6 UV-I 373 W/m 12,8 C 18,6 C 3,2 km/h (1 Bft) 91,30 %
23.05.2016 12:42 18,6 C 68 % 1005,9 hPa 0,0 l/m 2,8 km/h (1 Bft) W 280 0 min 0,000 mm 2,6 UV-I 370 W/m 12,6 C 18,6 C 6,4 km/h (2 Bft) 100,00 %
23.05.2016 12:43 18,6 C 70 % 1005,9 hPa 0,0 l/m 4,5 km/h (1 Bft) W-SW 249 0 min 0,000 mm 2,6 UV-I 371 W/m 13,0 C 18,6 C 9,7 km/h (2 Bft) 100,00 %
23.05.2016 12:44 18,6 C 69 % 1005,8 hPa 0,0 l/m 3,8 km/h (1 Bft) W-NW 294 0 min 0,000 mm 2,6 UV-I 374 W/m 12,8 C 18,6 C 11,3 km/h (2 Bft) 100,00 %
23.05.2016 12:45 18,6 C 68 % 1005,8 hPa 0,0 l/m 2,9 km/h (1 Bft) NW 310 0 min 0,000 mm 2,6 UV-I 318 W/m 12,6 C 18,6 C 4,8 km/h (1 Bft) 100,00 %
23.05.2016 12:46 18,6 C 70 % 1005,8 hPa 0,0 l/m 1,7 km/h (1 Bft) O-NO 57 0 min 0,000 mm 2,6 UV-I 376 W/m 13,0 C 18,6 C 8,0 km/h (2 Bft) 100,00 %
23.05.2016 12:47 18,6 C 70 % 1005,8 hPa 0,0 l/m 5,4 km/h (1 Bft) W-NW 290 0 min 0,000 mm 2,6 UV-I 376 W/m 13,0 C 18,6 C 12,9 km/h (3 Bft) 100,00 %
23.05.2016 12:48 18,6 C 70 % 1005,8 hPa 0,0 l/m 5,4 km/h (1 Bft) W-SW 258 0 min 0,000 mm 2,6 UV-I 378 W/m 13,0 C 18,6 C 8,0 km/h (2 Bft) 95,83 %
23.05.2016 12:49 18,5 C 69 % 1005,7 hPa 0,0 l/m 4,4 km/h (1 Bft) W-NW 302 0 min 0,000 mm 2,7 UV-I 379 W/m 12,7 C 18,5 C 11,3 km/h (2 Bft) 100,00 %
23.05.2016 12:50 18,5 C 71 % 1005,7 hPa 0,0 l/m 3,5 km/h (1 Bft) W-SW 253 0 min 0,000 mm 2,6 UV-I 382 W/m 13,1 C 18,5 C 6,4 km/h (2 Bft) 100,00 %
23.05.2016 12:51 18,5 C 69 % 1005,8 hPa 0,0 l/m 2,1 km/h (1 Bft) SW 216 0 min 0,000 mm 2,6 UV-I 358 W/m 12,7 C 18,5 C 3,2 km/h (1 Bft) 96,30 %
23.05.2016 12:52 18,6 C 71 % 1005,8 hPa 0,0 l/m 2,4 km/h (1 Bft) SW 227 0 min 0,000 mm 2,6 UV-I 388 W/m 13,2 C 18,6 C 3,2 km/h (1 Bft) 100,00 %
23.05.2016 12:53 18,6 C 70 % 1005,7 hPa 0,0 l/m 3,7 km/h (1 Bft) W-SW 248 0 min 0,000 mm 2,6 UV-I 390 W/m 13,0 C 18,6 C 4,8 km/h (1 Bft) 100,00 %
23.05.2016 12:54 18,7 C 71 % 1005,8 hPa 0,0 l/m 2,9 km/h (1 Bft) W-SW 248 0 min 0,000 mm 2,6 UV-I 390 W/m 13,3 C 18,7 C 4,8 km/h (1 Bft) 100,00 %
23.05.2016 12:55 18,7 C 70 % 1005,8 hPa 0,0 l/m 7,7 km/h (2 Bft) S-SW 211 0 min 0,000 mm 2,6 UV-I 390 W/m 13,1 C 18,1 C 11,3 km/h (2 Bft) 100,00 %
23.05.2016 12:56 18,8 C 69 % 1005,7 hPa 0,0 l/m 9,9 km/h (2 Bft) W-SW 242 0 min 0,000 mm 2,6 UV-I 390 W/m 13,0 C 17,4 C 17,7 km/h (3 Bft) 100,00 %
23.05.2016 12:57 18,7 C 68 % 1005,7 hPa 0,0 l/m 9,5 km/h (2 Bft) W-SW 255 0 min 0,000 mm 2,6 UV-I 383 W/m 12,7 C 17,4 C 14,5 km/h (3 Bft) 100,00 %
23.05.2016 12:58 18,7 C 68 % 1005,7 hPa 0,0 l/m 7,5 km/h (2 Bft) W-SW 243 0 min 0,000 mm 2,5 UV-I 381 W/m 12,7 C 18,2 C 11,3 km/h (2 Bft) 100,00 %
23.05.2016 12:59 18,7 C 68 % 1005,7 hPa 0,0 l/m 5,5 km/h (1 Bft) W 273 0 min 0,000 mm 2,5 UV-I 382 W/m 12,7 C 18,7 C 8,0 km/h (2 Bft) 100,00 %
23.05.2016 13:00 18,7 C 70 % 1005,7 hPa 0,0 l/m 4,2 km/h (1 Bft) W 277 0 min 0,254 mm 2,5 UV-I 383 W/m 13,1 C 18,7 C 6,4 km/h (2 Bft) 100,00 %
23.05.2016 13:01 18,7 C 69 % 1005,7 hPa 0,0 l/m 7,4 km/h (2 Bft) W 270 0 min 0,000 mm 2,5 UV-I 383 W/m 12,9 C 18,2 C 11,3 km/h (2 Bft) 100,00 %
23.05.2016 13:02 18,7 C 68 % 1005,7 hPa 0,0 l/m 5,4 km/h (1 Bft) W-NW 285 0 min 0,000 mm 2,5 UV-I 381 W/m 12,7 C 18,7 C 8,0 km/h (2 Bft) 100,00 %
23.05.2016 13:03 18,8 C 69 % 1005,7 hPa 0,0 l/m 4,3 km/h (1 Bft) S 177 0 min 0,000 mm 2,5 UV-I 378 W/m 13,0 C 18,8 C 9,7 km/h (2 Bft) 100,00 %
23.05.2016 13:04 18,7 C 68 % 1005,7 hPa 0,0 l/m 4,2 km/h (1 Bft) W 267 0 min 0,000 mm 2,5 UV-I 362 W/m 12,7 C 18,7 C 9,7 km/h (2 Bft) 100,00 %
23.05.2016 13:05 18,7 C 69 % 1005,7 hPa 0,0 l/m 5,0 km/h (1 Bft) W-NW 284 0 min 0,000 mm 2,5 UV-I 376 W/m 12,9 C 18,7 C 11,3 km/h (2 Bft) 100,00 %
23.05.2016 13:06 18,7 C 69 % 1005,7 hPa 0,0 l/m 7,5 km/h (2 Bft) W-SW 247 0 min 0,000 mm 2,4 UV-I 368 W/m 12,9 C 18,2 C 12,9 km/h (3 Bft) 100,00 %
23.05.2016 13:07 18,6 C 69 % 1005,7 hPa 0,0 l/m 5,6 km/h (1 Bft) NW 317 0 min 0,000 mm 2,4 UV-I 358 W/m 12,8 C 18,6 C 8,0 km/h (2 Bft) 100,00 %
23.05.2016 13:08 18,6 C 69 % 1005,8 hPa 0,0 l/m 3,0 km/h (1 Bft) NW 311 0 min 0,000 mm 2,3 UV-I 349 W/m 12,8 C 18,6 C 8,0 km/h (2 Bft) 96,15 %
23.05.2016 13:09 18,6 C 73 % 1005,7 hPa 0,0 l/m 2,8 km/h (1 Bft) W 276 0 min 0,000 mm 2,2 UV-I 338 W/m 13,7 C 18,6 C 6,4 km/h (2 Bft) 100,00 %
23.05.2016 13:10 18,6 C 71 % 1005,7 hPa 0,0 l/m 6,7 km/h (2 Bft) W 280 0 min 0,000 mm 2,2 UV-I 330 W/m 13,2 C 18,5 C 9,7 km/h (2 Bft) 100,00 %
23.05.2016 13:11 18,5 C 70 % 1005,7 hPa 0,0 l/m 5,6 km/h (1 Bft) N-NW 333 0 min 0,000 mm 2,1 UV-I 326 W/m 12,9 C 18,5 C 6,4 km/h (2 Bft) 91,30 %
23.05.2016 13:12 18,5 C 68 % 1005,7 hPa 0,0 l/m 6,3 km/h (2 Bft) W-SW 245 0 min 0,000 mm 2,1 UV-I 292 W/m 12,5 C 18,5 C 12,9 km/h (3 Bft) 100,00 %
23.05.2016 13:13 18,4 C 69 % 1005,7 hPa 0,0 l/m 5,1 km/h (1 Bft) W-SW 238 0 min 0,000 mm 2,1 UV-I 304 W/m 12,6 C 18,4 C 8,0 km/h (2 Bft) 100,00 %
23.05.2016 13:14 18,4 C 67 % 1005,7 hPa 0,0 l/m 10,4 km/h (2 Bft) W 269 0 min 0,000 mm 2,1 UV-I 327 W/m 12,2 C 16,7 C 14,5 km/h (3 Bft) 100,00 %
23.05.2016 13:15 18,3 C 67 % 1005,7 hPa 0,0 l/m 6,6 km/h (2 Bft) W-SW 249 0 min 0,000 mm 2,2 UV-I 333 W/m 12,1 C 18,2 C 11,3 km/h (2 Bft) 100,00 %
23.05.2016 13:16 18,3 C 68 % 1005,7 hPa 0,0 l/m 5,4 km/h (1 Bft) W-SW 253 0 min 0,000 mm 2,2 UV-I 339 W/m 12,3 C 18,3 C 6,4 km/h (2 Bft) 100,00 %
23.05.2016 13:17 18,4 C 68 % 1005,7 hPa 0,0 l/m 5,6 km/h (1 Bft) W-NW 287 0 min 0,000 mm 2,2 UV-I 343 W/m 12,4 C 18,4 C 11,3 km/h (2 Bft) 97,73 %
23.05.2016 13:18 18,3 C 68 % 1005,8 hPa 0,0 l/m 8,2 km/h (2 Bft) W 259 0 min 0,000 mm 2,2 UV-I 349 W/m 12,3 C 17,5 C 12,9 km/h (3 Bft) 100,00 %
23.05.2016 13:19 18,4 C 69 % 1005,8 hPa 0,0 l/m 6,4 km/h (2 Bft) SW 236 0 min 0,000 mm 2,3 UV-I 355 W/m 12,6 C 18,4 C 11,3 km/h (2 Bft) 100,00 %
23.05.2016 13:20 18,4 C 69 % 1005,8 hPa 0,0 l/m 8,9 km/h (2 Bft) W-SW 238 0 min 0,000 mm 2,3 UV-I 359 W/m 12,6 C 17,3 C 14,5 km/h (3 Bft) 100,00 %
23.05.2016 13:21 18,4 C 67 % 1005,8 hPa 0,0 l/m 4,2 km/h (1 Bft) SW 236 0 min 0,000 mm 2,3 UV-I 357 W/m 12,2 C 18,4 C 6,4 km/h (2 Bft) 100,00 %
23.05.2016 13:22 18,4 C 69 % 1005,7 hPa 0,0 l/m 5,2 km/h (1 Bft) W 269 0 min 0,000 mm 2,3 UV-I 356 W/m 12,6 C 18,4 C 6,4 km/h (2 Bft) 100,00 %
23.05.2016 13:23 18,6 C 70 % 1005,7 hPa 0,0 l/m 7,9 km/h (2 Bft) W 267 0 min 0,000 mm 2,3 UV-I 352 W/m 13,0 C 17,9 C 11,3 km/h (2 Bft) 100,00 %
23.05.2016 13:24 18,6 C 70 % 1005,6 hPa 0,0 l/m 6,6 km/h (2 Bft) W-SW 257 0 min 0,000 mm 2,2 UV-I 347 W/m 13,0 C 18,5 C 12,9 km/h (3 Bft) 100,00 %
23.05.2016 13:25 18,6 C 68 % 1005,6 hPa 0,0 l/m 7,4 km/h (2 Bft) W 263 0 min 0,000 mm 2,1 UV-I 344 W/m 12,6 C 18,1 C 11,3 km/h (2 Bft) 95,65 %
23.05.2016 13:26 18,7 C 70 % 1005,7 hPa 0,0 l/m 3,5 km/h (1 Bft) W-SW 247 0 min 0,000 mm 2,2 UV-I 343 W/m 13,1 C 18,7 C 6,4 km/h (2 Bft) 100,00 %
23.05.2016 13:27 18,7 C 69 % 1005,7 hPa 0,0 l/m 1,9 km/h (1 Bft) W-NW 296 0 min 0,000 mm 2,2 UV-I 343 W/m 12,9 C 18,7 C 4,8 km/h (1 Bft) 95,83 %
23.05.2016 13:28 18,7 C 69 % 1005,7 hPa 0,0 l/m 3,9 km/h (1 Bft) W 268 0 min 0,000 mm 2,2 UV-I 342 W/m 12,9 C 18,7 C 6,4 km/h (2 Bft) 96,15 %
23.05.2016 13:29 18,7 C 69 % 1005,7 hPa 0,0 l/m 9,6 km/h (2 Bft) W-SW 250 0 min 0,000 mm 2,2 UV-I 341 W/m 12,9 C 17,4 C 17,7 km/h (3 Bft) 100,00 %
23.05.2016 13:30 18,7 C 68 % 1005,7 hPa 0,0 l/m 4,2 km/h (1 Bft) NW 309 0 min 0,000 mm 2,2 UV-I 341 W/m 12,7 C 18,7 C 6,4 km/h (2 Bft) 93,33 %
23.05.2016 13:31 18,6 C 69 % 1005,7 hPa 0,0 l/m 4,0 km/h (1 Bft) W-SW 250 0 min 0,000 mm 2,2 UV-I 341 W/m 12,8 C 18,6 C 6,4 km/h (2 Bft) 100,00 %
23.05.2016 13:32 18,6 C 70 % 1005,7 hPa 0,0 l/m 0,7 km/h (0 Bft) W 280 0 min 0,000 mm 2,2 UV-I 341 W/m 13,0 C 18,6 C 1,6 km/h (1 Bft) 96,15 %
23.05.2016 13:33 18,6 C 69 % 1005,7 hPa 0,0 l/m 7,1 km/h (2 Bft) W 261 0 min 0,000 mm 2,1 UV-I 343 W/m 12,8 C 18,3 C 11,3 km/h (2 Bft) 100,00 %
23.05.2016 13:34 18,6 C 68 % 1005,7 hPa 0,0 l/m 4,1 km/h (1 Bft) W-SW 254 0 min 0,000 mm 2,2 UV-I 343 W/m 12,6 C 18,6 C 9,7 km/h (2 Bft) 96,15 %
23.05.2016 13:35 18,6 C 69 % 1005,7 hPa 0,0 l/m 3,3 km/h (1 Bft) S-SW 211 0 min 0,000 mm 2,2 UV-I 344 W/m 12,8 C 18,6 C 4,8 km/h (1 Bft) 100,00 %
23.05.2016 13:36 18,6 C 70 % 1005,7 hPa 0,0 l/m 3,8 km/h (1 Bft) SW 236 0 min 0,000 mm 2,2 UV-I 347 W/m 13,0 C 18,6 C 9,7 km/h (2 Bft) 96,15 %
23.05.2016 13:37 18,6 C 70 % 1005,7 hPa 0,0 l/m 5,6 km/h (1 Bft) W-SW 246 0 min 0,000 mm 2,2 UV-I 350 W/m 13,0 C 18,6 C 8,0 km/h (2 Bft) 100,00 %
23.05.2016 13:38 18,6 C 68 % 1005,7 hPa 0,0 l/m 4,3 km/h (1 Bft) W-SW 238 0 min 0,000 mm 2,2 UV-I 353 W/m 12,6 C 18,6 C 12,9 km/h (3 Bft) 96,15 %
23.05.2016 13:39 18,6 C 69 % 1005,7 hPa 0,0 l/m 8,7 km/h (2 Bft) W 261 0 min 0,000 mm 2,2 UV-I 356 W/m 12,8 C 17,6 C 11,3 km/h (2 Bft) 96,30 %
23.05.2016 13:40 18,6 C 70 % 1005,7 hPa 0,0 l/m 12,4 km/h (3 Bft) W-NW 303 0 min 0,000 mm 2,3 UV-I 359 W/m 13,0 C 16,3 C 16,1 km/h (3 Bft) 96,55 %
23.05.2016 13:41 18,6 C 69 % 1005,7 hPa 0,0 l/m 9,5 km/h (2 Bft) W-NW 283 0 min 0,000 mm 2,3 UV-I 361 W/m 12,8 C 17,3 C 16,1 km/h (3 Bft) 91,67 %
23.05.2016 13:42 18,6 C 69 % 1005,7 hPa 0,0 l/m 4,3 km/h (1 Bft) W 261 0 min 0,000 mm 2,3 UV-I 363 W/m 12,8 C 18,6 C 9,7 km/h (2 Bft) 100,00 %
23.05.2016 13:43 18,6 C 69 % 1005,8 hPa 0,0 l/m 5,4 km/h (1 Bft) W 263 0 min 0,000 mm 2,3 UV-I 366 W/m 12,8 C 18,6 C 9,7 km/h (2 Bft) 95,83 %
23.05.2016 13:44 18,6 C 70 % 1005,8 hPa 0,0 l/m 2,5 km/h (1 Bft) W-SW 252 0 min 0,000 mm 2,3 UV-I 364 W/m 13,0 C 18,6 C 4,8 km/h (1 Bft) 100,00 %
23.05.2016 13:45 18,7 C 71 % 1005,7 hPa 0,0 l/m 0,7 km/h (0 Bft) SW 232 0 min 0,000 mm 2,3 UV-I 361 W/m 13,3 C 18,7 C 1,6 km/h (1 Bft) 95,83 %
23.05.2016 13:46 18,8 C 71 % 1005,8 hPa 0,0 l/m 5,2 km/h (1 Bft) W 280 0 min 0,000 mm 2,2 UV-I 356 W/m 13,4 C 18,8 C 9,7 km/h (2 Bft) 95,65 %
23.05.2016 13:47 18,7 C 68 % 1005,8 hPa 0,0 l/m 7,3 km/h (2 Bft) NW 306 0 min 0,000 mm 2,2 UV-I 351 W/m 12,7 C 18,3 C 11,3 km/h (2 Bft) 100,00 %
23.05.2016 13:48 18,7 C 68 % 1005,8 hPa 0,0 l/m 10,2 km/h (2 Bft) SW 232 0 min 0,000 mm 2,2 UV-I 351 W/m 12,7 C 17,1 C 16,1 km/h (3 Bft) 96,55 %
23.05.2016 13:49 18,6 C 69 % 1005,8 hPa 0,0 l/m 9,0 km/h (2 Bft) W 262 0 min 0,000 mm 2,2 UV-I 350 W/m 12,8 C 17,5 C 12,9 km/h (3 Bft) 100,00 %
23.05.2016 13:50 18,6 C 69 % 1005,8 hPa 0,0 l/m 9,3 km/h (2 Bft) W 263 0 min 0,000 mm 2,2 UV-I 350 W/m 12,8 C 17,4 C 12,9 km/h (3 Bft) 96,30 %
23.05.2016 13:51 18,6 C 69 % 1005,7 hPa 0,0 l/m 7,8 km/h (2 Bft) W-NW 288 0 min 0,000 mm 2,2 UV-I 352 W/m 12,8 C 18,0 C 12,9 km/h (3 Bft) 100,00 %
23.05.2016 13:52 18,6 C 69 % 1005,7 hPa 0,0 l/m 10,8 km/h (2 Bft) W-SW 246 0 min 0,000 mm 2,2 UV-I 353 W/m 12,8 C 16,8 C 16,1 km/h (3 Bft) 96,30 %
23.05.2016 13:53 18,6 C 69 % 1005,7 hPa 0,0 l/m 4,1 km/h (1 Bft) W-SW 252 0 min 0,000 mm 2,2 UV-I 355 W/m 12,8 C 18,6 C 9,7 km/h (2 Bft) 96,15 %
23.05.2016 13:54 18,6 C 71 % 1005,7 hPa 0,0 l/m 6,0 km/h (2 Bft) SW 233 0 min 0,000 mm 2,2 UV-I 359 W/m 13,2 C 18,6 C 16,1 km/h (3 Bft) 93,33 %
23.05.2016 13:55 18,6 C 70 % 1005,6 hPa 0,0 l/m 6,0 km/h (2 Bft) S-SW 192 0 min 0,000 mm 2,3 UV-I 375 W/m 13,0 C 18,6 C 9,7 km/h (2 Bft) 96,15 %
23.05.2016 13:56 18,5 C 70 % 1005,7 hPa 0,0 l/m 11,1 km/h (2 Bft) W 259 0 min 0,000 mm 2,3 UV-I 367 W/m 12,9 C 16,6 C 16,1 km/h (3 Bft) 98,63 %
23.05.2016 13:57 18,6 C 69 % 1005,6 hPa 0,0 l/m 3,0 km/h (1 Bft) W 260 0 min 0,000 mm 2,3 UV-I 367 W/m 12,8 C 18,6 C 4,8 km/h (1 Bft) 95,83 %
23.05.2016 13:58 18,6 C 71 % 1005,7 hPa 0,0 l/m 2,6 km/h (1 Bft) SW 229 0 min 0,000 mm 2,3 UV-I 364 W/m 13,2 C 18,6 C 4,8 km/h (1 Bft) 100,00 %
23.05.2016 13:59 18,6 C 71 % 1005,6 hPa 0,0 l/m 6,2 km/h (2 Bft) W 268 0 min 0,000 mm 2,2 UV-I 362 W/m 13,2 C 18,6 C 12,9 km/h (3 Bft) 95,65 %
23.05.2016 14:00 18,6 C 70 % 1005,7 hPa 0,0 l/m 4,5 km/h (1 Bft) NW 319 0 min 0,000 mm 2,3 UV-I 366 W/m 13,0 C 18,6 C 8,0 km/h (2 Bft) 100,00 %
23.05.2016 14:02 18,6 C 69 % 1005,7 hPa 0,0 l/m 6,1 km/h (2 Bft) W 263 0 min 0,229 mm 2,4 UV-I 386 W/m 12,8 C 18,6 C 12,9 km/h (3 Bft) 98,00 %
23.05.2016 14:03 18,6 C 69 % 1005,7 hPa 0,0 l/m 8,2 km/h (2 Bft) S 186 0 min 0,000 mm 2,5 UV-I 410 W/m 12,8 C 17,8 C 12,9 km/h (3 Bft) 100,00 %
23.05.2016 14:04 18,5 C 69 % 1005,7 hPa 0,0 l/m 7,1 km/h (2 Bft) SW 219 0 min 0,000 mm 2,6 UV-I 419 W/m 12,7 C 18,2 C 11,3 km/h (2 Bft) 100,00 %
23.05.2016 14:05 18,6 C 70 % 1005,7 hPa 0,0 l/m 5,3 km/h (1 Bft) W-SW 248 0 min 0,000 mm 2,6 UV-I 421 W/m 13,0 C 18,6 C 8,0 km/h (2 Bft) 100,00 %
23.05.2016 14:06 18,7 C 69 % 1005,8 hPa 0,0 l/m 4,2 km/h (1 Bft) N 355 0 min 0,000 mm 2,5 UV-I 419 W/m 12,9 C 18,7 C 9,7 km/h (2 Bft) 96,30 %
23.05.2016 14:07 18,7 C 69 % 1005,7 hPa 0,0 l/m 6,0 km/h (2 Bft) W-NW 297 0 min 0,000 mm 2,5 UV-I 415 W/m 12,9 C 18,7 C 11,3 km/h (2 Bft) 100,00 %
23.05.2016 14:08 18,7 C 69 % 1005,7 hPa 0,0 l/m 6,5 km/h (2 Bft) W-NW 285 0 min 0,000 mm 2,4 UV-I 402 W/m 12,9 C 18,7 C 16,1 km/h (3 Bft) 100,00 %
23.05.2016 14:09 18,7 C 70 % 1005,7 hPa 0,0 l/m 3,1 km/h (1 Bft) W-NW 287 0 min 0,000 mm 2,4 UV-I 395 W/m 13,1 C 18,7 C 6,4 km/h (2 Bft) 96,30 %
23.05.2016 14:10 18,7 C 68 % 1005,7 hPa 0,0 l/m 4,5 km/h (1 Bft) NW 309 0 min 0,000 mm 2,3 UV-I 393 W/m 12,7 C 18,7 C 9,7 km/h (2 Bft) 100,00 %
23.05.2016 14:11 18,6 C 69 % 1005,7 hPa 0,0 l/m 6,4 km/h (2 Bft) N-NW 327 0 min 0,000 mm 2,4 UV-I 401 W/m 12,8 C 18,6 C 11,3 km/h (2 Bft) 100,00 %
23.05.2016 14:12 18,6 C 68 % 1005,6 hPa 0,0 l/m 5,2 km/h (1 Bft) W 279 0 min 0,000 mm 2,9 UV-I 408 W/m 12,6 C 18,6 C 12,9 km/h (3 Bft) 96,15 %
23.05.2016 14:13 18,6 C 69 % 1005,6 hPa 0,0 l/m 6,0 km/h (2 Bft) S-SO 167 0 min 0,000 mm 3,0 UV-I 408 W/m 12,8 C 18,6 C 14,5 km/h (3 Bft) 100,00 %
23.05.2016 14:14 18,7 C 70 % 1005,6 hPa 0,0 l/m 1,7 km/h (1 Bft) N-NW 329 0 min 0,000 mm 2,5 UV-I 409 W/m 13,1 C 18,7 C 4,8 km/h (1 Bft) 100,00 %
23.05.2016 14:15 18,7 C 71 % 1005,6 hPa 0,0 l/m 12,1 km/h (2 Bft) W 276 0 min 0,000 mm 2,4 UV-I 416 W/m 13,3 C 16,5 C 17,7 km/h (3 Bft) 100,00 %
23.05.2016 14:16 18,7 C 67 % 1005,5 hPa 0,0 l/m 8,0 km/h (2 Bft) W-NW 291 0 min 0,000 mm 2,5 UV-I 426 W/m 12,4 C 18,0 C 14,5 km/h (3 Bft) 90,91 %
23.05.2016 14:17 18,7 C 68 % 1005,6 hPa 0,0 l/m 6,8 km/h (2 Bft) S-SW 196 0 min 0,000 mm 2,7 UV-I 454 W/m 12,7 C 18,5 C 11,3 km/h (2 Bft) 100,00 %
23.05.2016 14:18 18,7 C 68 % 1005,5 hPa 0,0 l/m 10,9 km/h (2 Bft) SW 228 1 min 0,000 mm 3,0 UV-I 468 W/m 12,7 C 16,9 C 17,7 km/h (3 Bft) 100,00 %
23.05.2016 14:19 18,7 C 67 % 1005,5 hPa 0,0 l/m 13,5 km/h (3 Bft) W 259 1 min 0,000 mm 3,2 UV-I 608 W/m 12,4 C 16,1 C 16,1 km/h (3 Bft) 100,00 %
23.05.2016 14:20 18,8 C 67 % 1005,5 hPa 0,0 l/m 9,4 km/h (2 Bft) W 266 1 min 0,000 mm 3,9 UV-I 615 W/m 12,5 C 17,5 C 17,7 km/h (3 Bft) 98,63 %
23.05.2016 14:21 18,9 C 68 % 1005,5 hPa 0,0 l/m 10,4 km/h (2 Bft) W 259 1 min 0,000 mm 3,7 UV-I 650 W/m 12,9 C 17,3 C 17,7 km/h (3 Bft) 100,00 %
23.05.2016 14:22 19,1 C 66 % 1005,6 hPa 0,0 l/m 13,2 km/h (3 Bft) W 272 1 min 0,000 mm 4,1 UV-I 684 W/m 12,6 C 16,6 C 17,7 km/h (3 Bft) 100,00 %
23.05.2016 14:23 19,2 C 66 % 1005,6 hPa 0,0 l/m 10,0 km/h (2 Bft) W-SW 244 1 min 0,000 mm 4,4 UV-I 821 W/m 12,7 C 17,8 C 16,1 km/h (3 Bft) 92,59 %
23.05.2016 14:24 19,3 C 66 % 1005,6 hPa 0,0 l/m 8,1 km/h (2 Bft) W 259 1 min 0,000 mm 4,7 UV-I 895 W/m 12,8 C 18,6 C 14,5 km/h (3 Bft) 100,00 %
23.05.2016 14:25 19,5 C 67 % 1005,6 hPa 0,0 l/m 8,2 km/h (2 Bft) W-SW 258 1 min 0,000 mm 4,4 UV-I 916 W/m 13,2 C 18,7 C 12,9 km/h (3 Bft) 96,15 %
23.05.2016 14:26 19,6 C 66 % 1005,6 hPa 0,0 l/m 8,2 km/h (2 Bft) N 355 1 min 0,000 mm 4,8 UV-I 1013 W/m 13,1 C 18,9 C 14,5 km/h (3 Bft) 100,00 %
23.05.2016 14:27 19,8 C 70 % 1005,6 hPa 0,0 l/m 5,6 km/h (1 Bft) W-NW 284 1 min 0,000 mm 4,8 UV-I 988 W/m 14,2 C 19,8 C 12,9 km/h (3 Bft) 100,00 %
23.05.2016 14:28 19,9 C 67 % 1005,5 hPa 0,0 l/m 3,0 km/h (1 Bft) W-NW 299 1 min 0,000 mm 4,8 UV-I 996 W/m 13,6 C 19,9 C 8,0 km/h (2 Bft) 100,00 %
23.05.2016 14:29 20,2 C 66 % 1005,5 hPa 0,0 l/m 6,5 km/h (2 Bft) SW 235 1 min 0,000 mm 4,8 UV-I 950 W/m 13,6 C 20,2 C 11,3 km/h (2 Bft) 93,33 %
23.05.2016 14:30 20,5 C 65 % 1005,5 hPa 0,0 l/m 11,7 km/h (2 Bft) W-SW 250 1 min 0,000 mm 4,8 UV-I 993 W/m 13,7 C 18,7 C 19,3 km/h (3 Bft) 100,00 %
23.05.2016 14:31 20,6 C 65 % 1005,4 hPa 0,0 l/m 12,6 km/h (3 Bft) W-SW 240 1 min 0,000 mm 4,8 UV-I 970 W/m 13,8 C 18,6 C 17,7 km/h (3 Bft) 100,00 %
23.05.2016 14:32 20,6 C 64 % 1005,4 hPa 0,0 l/m 10,1 km/h (2 Bft) W 263 1 min 0,000 mm 4,6 UV-I 944 W/m 13,5 C 19,3 C 17,7 km/h (3 Bft) 100,00 %
23.05.2016 14:33 20,5 C 63 % 1005,4 hPa 0,0 l/m 15,5 km/h (3 Bft) SW 221 1 min 0,000 mm 4,1 UV-I 823 W/m 13,2 C 17,7 C 22,5 km/h (4 Bft) 100,00 %
23.05.2016 14:34 20,3 C 63 % 1005,4 hPa 0,0 l/m 7,3 km/h (2 Bft) W 264 1 min 0,000 mm 4,3 UV-I 774 W/m 13,0 C 19,9 C 16,1 km/h (3 Bft) 100,00 %
23.05.2016 14:35 20,2 C 63 % 1005,4 hPa 0,0 l/m 7,7 km/h (2 Bft) W 281 1 min 0,000 mm 4,4 UV-I 851 W/m 12,9 C 19,7 C 14,5 km/h (3 Bft) 100,00 %
23.05.2016 14:36 20,1 C 63 % 1005,2 hPa 0,0 l/m 7,6 km/h (2 Bft) W 261 1 min 0,000 mm 4,2 UV-I 786 W/m 12,8 C 19,6 C 12,9 km/h (3 Bft) 100,00 %
23.05.2016 14:37 20,1 C 64 % 1005,4 hPa 0,0 l/m 5,5 km/h (1 Bft) SW 232 1 min 0,000 mm 3,7 UV-I 767 W/m 13,1 C 20,1 C 6,4 km/h (2 Bft) 100,00 %
23.05.2016 14:38 20,1 C 65 % 1005,4 hPa 0,0 l/m 11,6 km/h (2 Bft) W-SW 240 1 min 0,000 mm 3,6 UV-I 630 W/m 13,3 C 18,3 C 16,1 km/h (3 Bft) 100,00 %
23.05.2016 14:39 19,9 C 63 % 1005,4 hPa 0,0 l/m 9,8 km/h (2 Bft) W-SW 238 1 min 0,000 mm 3,3 UV-I 578 W/m 12,6 C 18,6 C 17,7 km/h (3 Bft) 100,00 %
23.05.2016 14:40 19,8 C 65 % 1005,4 hPa 0,0 l/m 8,3 km/h (2 Bft) W-NW 288 1 min 0,000 mm 3,0 UV-I 501 W/m 13,0 C 19,0 C 14,5 km/h (3 Bft) 100,00 %
23.05.2016 14:41 19,6 C 64 % 1005,3 hPa 0,0 l/m 9,6 km/h (2 Bft) SW 220 0 min 0,000 mm 2,8 UV-I 430 W/m 12,6 C 18,3 C 16,1 km/h (3 Bft) 100,00 %
23.05.2016 14:42 19,6 C 65 % 1005,3 hPa 0,0 l/m 9,3 km/h (2 Bft) W 266 0 min 0,000 mm 2,6 UV-I 390 W/m 12,8 C 18,4 C 14,5 km/h (3 Bft) 100,00 %
23.05.2016 14:43 19,4 C 66 % 1005,3 hPa 0,0 l/m 10,4 km/h (2 Bft) W-SW 246 0 min 0,000 mm 2,3 UV-I 353 W/m 12,9 C 17,8 C 16,1 km/h (3 Bft) 100,00 %
23.05.2016 14:44 19,4 C 66 % 1005,3 hPa 0,0 l/m 4,7 km/h (1 Bft) W-SW 254 0 min 0,000 mm 2,2 UV-I 331 W/m 12,9 C 19,4 C 6,4 km/h (2 Bft) 100,00 %
23.05.2016 14:45 19,4 C 67 % 1005,3 hPa 0,0 l/m 4,7 km/h (1 Bft) W 259 0 min 0,000 mm 2,1 UV-I 295 W/m 13,1 C 19,4 C 6,4 km/h (2 Bft) 100,00 %
23.05.2016 14:46 19,4 C 67 % 1005,2 hPa 0,0 l/m 7,3 km/h (2 Bft) W-NW 300 0 min 0,000 mm 1,9 UV-I 277 W/m 13,1 C 19,0 C 16,1 km/h (3 Bft) 100,00 %
23.05.2016 14:47 19,3 C 67 % 1005,2 hPa 0,0 l/m 3,7 km/h (1 Bft) W-NW 284 0 min 0,000 mm 1,7 UV-I 256 W/m 13,0 C 19,3 C 6,4 km/h (2 Bft) 100,00 %
23.05.2016 14:48 19,2 C 67 % 1005,2 hPa 0,0 l/m 8,0 km/h (2 Bft) W 279 0 min 0,000 mm 1,6 UV-I 239 W/m 12,9 C 18,5 C 17,7 km/h (3 Bft) 95,65 %
23.05.2016 14:49 19,1 C 67 % 1005,2 hPa 0,0 l/m 6,8 km/h (2 Bft) W-NW 298 0 min 0,000 mm 1,4 UV-I 223 W/m 12,8 C 18,9 C 16,1 km/h (3 Bft) 100,00 %
23.05.2016 14:50 19,0 C 66 % 1005,3 hPa 0,0 l/m 5,1 km/h (1 Bft) NW 317 0 min 0,000 mm 1,3 UV-I 208 W/m 12,5 C 19,0 C 8,0 km/h (2 Bft) 100,00 %
23.05.2016 14:51 18,9 C 68 % 1005,3 hPa 0,0 l/m 7,5 km/h (2 Bft) W-SW 250 0 min 0,000 mm 1,2 UV-I 193 W/m 12,9 C 18,4 C 12,9 km/h (3 Bft) 100,00 %
23.05.2016 14:52 18,9 C 68 % 1005,3 hPa 0,0 l/m 6,4 km/h (2 Bft) SW 214 0 min 0,000 mm 1,1 UV-I 179 W/m 12,9 C 18,9 C 12,9 km/h (3 Bft) 100,00 %
23.05.2016 14:53 18,8 C 68 % 1005,3 hPa 0,0 l/m 6,7 km/h (2 Bft) W-SW 246 0 min 0,000 mm 0,9 UV-I 166 W/m 12,8 C 18,7 C 8,0 km/h (2 Bft) 100,00 %
23.05.2016 14:54 18,9 C 68 % 1005,3 hPa 0,0 l/m 4,6 km/h (1 Bft) W-NW 292 0 min 0,000 mm 0,9 UV-I 155 W/m 12,9 C 18,9 C 8,0 km/h (2 Bft) 100,00 %
23.05.2016 14:55 18,8 C 68 % 1005,3 hPa 0,0 l/m 12,2 km/h (2 Bft) W 278 0 min 0,000 mm 0,8 UV-I 144 W/m 12,8 C 16,6 C 19,3 km/h (3 Bft) 100,00 %
23.05.2016 14:56 18,8 C 67 % 1005,2 hPa 0,0 l/m 10,8 km/h (2 Bft) W 275 0 min 0,000 mm 0,7 UV-I 133 W/m 12,5 C 17,0 C 19,3 km/h (3 Bft) 100,00 %
23.05.2016 14:57 18,7 C 67 % 1005,2 hPa 0,0 l/m 7,4 km/h (2 Bft) W-SW 249 0 min 0,000 mm 0,7 UV-I 124 W/m 12,4 C 18,2 C 17,7 km/h (3 Bft) 100,00 %
23.05.2016 14:58 18,7 C 68 % 1005,2 hPa 0,0 l/m 6,9 km/h (2 Bft) W-SW 238 0 min 0,000 mm 0,6 UV-I 116 W/m 12,7 C 18,5 C 12,9 km/h (3 Bft) 100,00 %
23.05.2016 14:59 18,6 C 67 % 1005,3 hPa 0,0 l/m 8,8 km/h (2 Bft) W-SW 252 0 min 0,000 mm 0,5 UV-I 104 W/m 12,3 C 17,6 C 16,1 km/h (3 Bft) 100,00 %
23.05.2016 15:00 18,6 C 68 % 1005,4 hPa 0,0 l/m 7,2 km/h (2 Bft) W 270 0 min 0,304 mm 0,1 UV-I 90 W/m 12,6 C 18,2 C 12,9 km/h (3 Bft) 100,00 %
23.05.2016 15:01 18,6 C 69 % 1005,4 hPa 0,0 l/m 11,1 km/h (2 Bft) W-SW 252 0 min 0,000 mm 0,0 UV-I 78 W/m 12,8 C 16,7 C 16,1 km/h (3 Bft) 100,00 %
23.05.2016 15:02 18,6 C 68 % 1005,5 hPa 0,0 l/m 12,3 km/h (3 Bft) W 263 0 min 0,000 mm 0,0 UV-I 66 W/m 12,6 C 16,3 C 16,1 km/h (3 Bft) 100,00 %
23.05.2016 15:03 18,5 C 68 % 1005,6 hPa 0,0 l/m 5,6 km/h (1 Bft) W 270 0 min 0,000 mm 0,0 UV-I 56 W/m 12,5 C 18,5 C 9,7 km/h (2 Bft) 100,00 %
23.05.2016 15:04 18,5 C 68 % 1005,6 hPa 0,0 l/m 7,1 km/h (2 Bft) W 263 0 min 0,000 mm 0,0 UV-I 47 W/m 12,5 C 18,2 C 12,9 km/h (3 Bft) 92,31 %
23.05.2016 15:05 18,4 C 68 % 1005,6 hPa 0,0 l/m 7,7 km/h (2 Bft) SW 224 0 min 0,000 mm 0,0 UV-I 40 W/m 12,4 C 17,8 C 14,5 km/h (3 Bft) 100,00 %
23.05.2016 15:06 18,4 C 68 % 1005,7 hPa 0,0 l/m 6,0 km/h (2 Bft) W-SW 253 0 min 0,000 mm 0,0 UV-I 37 W/m 12,4 C 18,4 C 9,7 km/h (2 Bft) 100,00 %
23.05.2016 15:07 18,4 C 68 % 1005,7 hPa 0,0 l/m 7,5 km/h (2 Bft) W-SW 248 0 min 0,000 mm 0,0 UV-I 35 W/m 12,4 C 17,9 C 9,7 km/h (2 Bft) 100,00 %
23.05.2016 15:08 18,3 C 69 % 1005,7 hPa 0,0 l/m 9,3 km/h (2 Bft) W-NW 282 0 min 0,000 mm 0,0 UV-I 33 W/m 12,5 C 17,0 C 14,5 km/h (3 Bft) 100,00 %
23.05.2016 15:09 18,3 C 68 % 1005,7 hPa 0,0 l/m 7,1 km/h (2 Bft) SW 221 0 min 0,000 mm 0,0 UV-I 32 W/m 12,3 C 18,0 C 11,3 km/h (2 Bft) 100,00 %
23.05.2016 15:10 18,3 C 69 % 1005,7 hPa 0,0 l/m 4,2 km/h (1 Bft) W-NW 283 0 min 0,000 mm 0,0 UV-I 31 W/m 12,5 C 18,3 C 8,0 km/h (2 Bft) 100,00 %
23.05.2016 15:11 18,3 C 70 % 1005,8 hPa 0,0 l/m 7,0 km/h (2 Bft) W 265 0 min 0,000 mm 0,0 UV-I 30 W/m 12,7 C 18,0 C 16,1 km/h (3 Bft) 100,00 %
23.05.2016 15:12 18,2 C 68 % 1005,8 hPa 0,0 l/m 7,2 km/h (2 Bft) W 279 0 min 0,000 mm 0,0 UV-I 30 W/m 12,2 C 17,8 C 14,5 km/h (3 Bft) 100,00 %
23.05.2016 15:13 18,2 C 69 % 1005,8 hPa 0,0 l/m 3,6 km/h (1 Bft) W 275 0 min 0,000 mm 0,0 UV-I 31 W/m 12,4 C 18,2 C 6,4 km/h (2 Bft) 100,00 %
23.05.2016 15:14 18,2 C 70 % 1005,8 hPa 0,0 l/m 6,3 km/h (2 Bft) W 263 0 min 0,000 mm 0,0 UV-I 32 W/m 12,6 C 18,2 C 11,3 km/h (2 Bft) 95,83 %
23.05.2016 15:15 18,1 C 72 % 1005,7 hPa 0,0 l/m 3,4 km/h (1 Bft) W 273 0 min 0,000 mm 0,0 UV-I 34 W/m 13,0 C 18,1 C 4,8 km/h (1 Bft) 100,00 %
23.05.2016 15:16 18,1 C 71 % 1005,7 hPa 0,0 l/m 2,7 km/h (1 Bft) W 273 0 min 0,000 mm 0,0 UV-I 36 W/m 12,8 C 18,1 C 4,8 km/h (1 Bft) 100,00 %
23.05.2016 15:17 18,1 C 72 % 1005,7 hPa 0,0 l/m 2,5 km/h (1 Bft) W 273 0 min 0,000 mm 0,0 UV-I 40 W/m 13,0 C 18,1 C 4,8 km/h (1 Bft) 100,00 %
23.05.2016 15:18 18,0 C 74 % 1005,7 hPa 0,0 l/m 4,0 km/h (1 Bft) W-SW 244 0 min 0,000 mm 0,0 UV-I 40 W/m 13,3 C 18,0 C 6,4 km/h (2 Bft) 100,00 %
23.05.2016 15:19 17,9 C 74 % 1005,7 hPa 0,0 l/m 7,0 km/h (2 Bft) W 272 0 min 0,000 mm 0,0 UV-I 42 W/m 13,2 C 17,6 C 11,3 km/h (2 Bft) 100,00 %
23.05.2016 15:20 17,9 C 72 % 1005,7 hPa 0,0 l/m 8,2 km/h (2 Bft) W-SW 256 0 min 0,000 mm 0,0 UV-I 43 W/m 12,8 C 17,1 C 12,9 km/h (3 Bft) 100,00 %
23.05.2016 15:21 17,8 C 74 % 1005,7 hPa 0,0 l/m 9,1 km/h (2 Bft) SW 233 0 min 0,000 mm 0,0 UV-I 45 W/m 13,1 C 16,6 C 12,9 km/h (3 Bft) 96,88 %
23.05.2016 15:22 17,8 C 74 % 1005,6 hPa 0,0 l/m 9,2 km/h (2 Bft) W-NW 282 0 min 0,000 mm 0,0 UV-I 47 W/m 13,1 C 16,5 C 12,9 km/h (3 Bft) 100,00 %
23.05.2016 15:23 17,7 C 76 % 1005,6 hPa 0,0 l/m 11,0 km/h (2 Bft) SW 232 0 min 0,000 mm 0,0 UV-I 47 W/m 13,4 C 15,7 C 14,5 km/h (3 Bft) 96,30 %
23.05.2016 15:24 17,6 C 75 % 1005,5 hPa 0,2 l/m 9,3 km/h (2 Bft) W-SW 253 0 min 0,000 mm 0,0 UV-I 49 W/m 13,1 C 16,3 C 11,3 km/h (2 Bft) 100,00 %
23.05.2016 15:25 17,5 C 75 % 1005,5 hPa 0,0 l/m 8,6 km/h (2 Bft) W-SW 248 0 min 0,000 mm 0,0 UV-I 49 W/m 13,0 C 16,5 C 12,9 km/h (3 Bft) 95,65 %
23.05.2016 15:26 17,4 C 77 % 1005,5 hPa 0,0 l/m 8,4 km/h (2 Bft) W-SW 257 0 min 0,000 mm 0,0 UV-I 49 W/m 13,3 C 16,4 C 14,5 km/h (3 Bft) 100,00 %
23.05.2016 15:27 17,3 C 78 % 1005,4 hPa 0,2 l/m 8,9 km/h (2 Bft) NW 306 0 min 0,000 mm 0,0 UV-I 50 W/m 13,4 C 16,1 C 11,3 km/h (2 Bft) 96,55 %
23.05.2016 15:28 17,1 C 80 % 1005,4 hPa 0,2 l/m 8,8 km/h (2 Bft) W-SW 249 0 min 0,000 mm 0,0 UV-I 51 W/m 13,6 C 15,9 C 14,5 km/h (3 Bft) 100,00 %
23.05.2016 15:29 16,9 C 80 % 1005,3 hPa 0,0 l/m 11,9 km/h (2 Bft) W-SW 255 0 min 0,000 mm 0,0 UV-I 49 W/m 13,4 C 14,5 C 14,5 km/h (3 Bft) 96,67 %
23.05.2016 15:30 16,8 C 81 % 1005,2 hPa 0,0 l/m 12,6 km/h (3 Bft) W 277 0 min 0,000 mm 0,0 UV-I 46 W/m 13,5 C 14,1 C 16,1 km/h (3 Bft) 96,15 %
23.05.2016 15:33 16,5 C 81 % 1005,4 hPa 0,0 l/m 8,0 km/h (2 Bft) W-SW 246 0 min 0,000 mm 0,0 UV-I 43 W/m 13,2 C 15,7 C 8,0 km/h (2 Bft) 98,46 %
23.05.2016 15:35 16,4 C 81 % 1005,4 hPa 0,0 l/m 16,1 km/h (3 Bft) W-SW 247 0 min 0,000 mm 0,0 UV-I 39 W/m 13,1 C 12,6 C 29,0 km/h (5 Bft) 100,00 %
23.05.2016 15:37 16,3 C 81 % 1005,4 hPa 0,2 l/m 15,6 km/h (3 Bft) W-SW 241 0 min 0,000 mm 0,0 UV-I 36 W/m 13,0 C 12,6 C 19,3 km/h (3 Bft) 96,94 %
23.05.2016 15:40 16,2 C 83 % 1005,7 hPa 0,4 l/m 14,5 km/h (3 Bft) W-SW 247 0 min 0,000 mm 0,0 UV-I 29 W/m 13,3 C 12,8 C 22,5 km/h (4 Bft) 100,00 %
23.05.2016 15:42 16,2 C 83 % 1005,8 hPa 0,0 l/m 10,2 km/h (2 Bft) W-SW 257 0 min 0,000 mm 0,0 UV-I 24 W/m 13,3 C 14,4 C 14,5 km/h (3 Bft) 97,41 %
23.05.2016 15:43 16,2 C 83 % 1005,9 hPa 0,0 l/m 15,6 km/h (3 Bft) W 271 0 min 0,000 mm 0,0 UV-I 12 W/m 13,3 C 12,5 C 20,9 km/h (4 Bft) 95,65 %
23.05.2016 15:44 16,2 C 83 % 1005,8 hPa 0,0 l/m 13,5 km/h (3 Bft) W-SW 246 0 min 0,000 mm 0,0 UV-I 11 W/m 13,3 C 13,1 C 17,7 km/h (3 Bft) 100,00 %
23.05.2016 15:45 16,1 C 83 % 1005,8 hPa 0,0 l/m 15,7 km/h (3 Bft) W-SW 249 0 min 0,000 mm 0,0 UV-I 11 W/m 13,2 C 12,3 C 24,1 km/h (4 Bft) 91,30 %
23.05.2016 15:46 16,1 C 84 % 1005,9 hPa 0,0 l/m 21,8 km/h (4 Bft) W 261 0 min 0,000 mm 0,0 UV-I 9 W/m 13,4 C 10,8 C 30,6 km/h (5 Bft) 100,00 %
23.05.2016 15:47 16,1 C 83 % 1005,9 hPa 0,0 l/m 18,7 km/h (3 Bft) W-SW 251 0 min 0,000 mm 0,0 UV-I 9 W/m 13,2 C 11,5 C 24,1 km/h (4 Bft) 92,31 %
23.05.2016 15:48 16,1 C 84 % 1006,0 hPa 0,0 l/m 18,0 km/h (3 Bft) W 269 0 min 0,000 mm 0,0 UV-I 7 W/m 13,4 C 11,7 C 22,5 km/h (4 Bft) 100,00 %
23.05.2016 15:49 16,0 C 84 % 1006,0 hPa 0,0 l/m 18,4 km/h (3 Bft) SW 225 0 min 0,000 mm 0,0 UV-I 8 W/m 13,3 C 11,4 C 24,1 km/h (4 Bft) 96,55 %
23.05.2016 15:50 15,9 C 84 % 1005,9 hPa 0,0 l/m 21,4 km/h (4 Bft) SW 235 0 min 0,000 mm 0,0 UV-I 9 W/m 13,2 C 10,6 C 30,6 km/h (5 Bft) 95,83 %
23.05.2016 15:51 15,8 C 84 % 1006,0 hPa 0,2 l/m 26,9 km/h (4 Bft) W-SW 250 0 min 0,000 mm 0,0 UV-I 9 W/m 13,1 C 9,3 C 37,0 km/h (5 Bft) 100,00 %
23.05.2016 15:52 15,8 C 83 % 1006,0 hPa 0,0 l/m 19,6 km/h (3 Bft) SW 225 0 min 0,000 mm 0,0 UV-I 9 W/m 12,9 C 10,9 C 24,1 km/h (4 Bft) 97,37 %
23.05.2016 15:53 15,7 C 84 % 1006,0 hPa 0,2 l/m 21,6 km/h (4 Bft) W-SW 243 0 min 0,000 mm 0,0 UV-I 12 W/m 13,0 C 10,3 C 29,0 km/h (5 Bft) 95,65 %
23.05.2016 15:54 15,5 C 85 % 1006,0 hPa 0,0 l/m 14,4 km/h (3 Bft) SW 217 0 min 0,000 mm 0,0 UV-I 13 W/m 13,0 C 12,0 C 19,3 km/h (3 Bft) 95,83 %
23.05.2016 15:55 15,3 C 85 % 1006,3 hPa 0,2 l/m 28,0 km/h (4 Bft) W 271 0 min 0,000 mm 0,0 UV-I 12 W/m 12,8 C 8,4 C 37,0 km/h (5 Bft) 100,00 %
23.05.2016 15:56 15,1 C 85 % 1006,2 hPa 0,0 l/m 18,2 km/h (3 Bft) S-SW 212 0 min 0,000 mm 0,0 UV-I 11 W/m 12,6 C 10,4 C 32,2 km/h (5 Bft) 100,00 %
23.05.2016 15:57 14,9 C 85 % 1006,2 hPa 0,0 l/m 22,0 km/h (4 Bft) W 272 0 min 0,000 mm 0,0 UV-I 12 W/m 12,4 C 9,1 C 32,2 km/h (5 Bft) 100,00 %
23.05.2016 15:58 14,8 C 85 % 1006,2 hPa 0,2 l/m 17,2 km/h (3 Bft) SW 234 0 min 0,000 mm 0,0 UV-I 12 W/m 12,3 C 10,3 C 27,4 km/h (4 Bft) 100,00 %
23.05.2016 15:59 14,7 C 86 % 1006,2 hPa 0,0 l/m 15,9 km/h (3 Bft) W 266 0 min 0,000 mm 0,0 UV-I 12 W/m 12,4 C 10,5 C 24,1 km/h (4 Bft) 100,00 %
23.05.2016 16:00 14,5 C 86 % 1006,2 hPa 0,2 l/m 18,9 km/h (3 Bft) W-SW 251 0 min 0,000 mm 0,0 UV-I 12 W/m 12,2 C 9,4 C 29,0 km/h (5 Bft) 100,00 %
23.05.2016 16:02 14,3 C 87 % 1006,3 hPa 0,0 l/m 16,4 km/h (3 Bft) W-SW 241 0 min 0,051 mm 0,0 UV-I 13 W/m 12,2 C 9,9 C 22,5 km/h (4 Bft) 100,00 %
23.05.2016 16:03 14,2 C 88 % 1006,5 hPa 0,4 l/m 15,2 km/h (3 Bft) S 186 0 min 0,000 mm 0,0 UV-I 14 W/m 12,2 C 10,2 C 22,5 km/h (4 Bft) 94,44 %
23.05.2016 16:04 14,1 C 88 % 1006,7 hPa 0,4 l/m 16,7 km/h (3 Bft) W-SW 254 0 min 0,000 mm 0,0 UV-I 14 W/m 12,1 C 9,5 C 24,1 km/h (4 Bft) 100,00 %
23.05.2016 16:05 13,9 C 89 % 1006,8 hPa 0,4 l/m 21,7 km/h (4 Bft) SW 234 0 min 0,000 mm 0,0 UV-I 12 W/m 12,1 C 7,9 C 29,0 km/h (5 Bft) 100,00 %
23.05.2016 16:06 13,8 C 89 % 1006,8 hPa 0,4 l/m 20,3 km/h (4 Bft) S-SW 211 0 min 0,000 mm 0,0 UV-I 12 W/m 12,0 C 8,1 C 27,4 km/h (4 Bft) 100,00 %
23.05.2016 16:07 13,7 C 89 % 1006,8 hPa 0,0 l/m 17,4 km/h (3 Bft) W-SW 242 0 min 0,000 mm 0,0 UV-I 12 W/m 11,9 C 8,8 C 24,1 km/h (4 Bft) 95,83 %
23.05.2016 16:08 13,6 C 89 % 1006,8 hPa 0,2 l/m 23,5 km/h (4 Bft) SW 232 0 min 0,000 mm 0,0 UV-I 11 W/m 11,8 C 7,1 C 30,6 km/h (5 Bft) 100,00 %
23.05.2016 16:09 13,4 C 89 % 1006,8 hPa 0,2 l/m 21,1 km/h (4 Bft) SO 138 0 min 0,000 mm 0,0 UV-I 11 W/m 11,6 C 7,4 C 32,2 km/h (5 Bft) 100,00 %
23.05.2016 16:10 13,2 C 89 % 1006,9 hPa 0,2 l/m 14,1 km/h (3 Bft) S-SW 195 0 min 0,000 mm 0,0 UV-I 12 W/m 11,4 C 9,3 C 19,3 km/h (3 Bft) 96,15 %
23.05.2016 16:11 13,1 C 90 % 1006,8 hPa 0,2 l/m 15,5 km/h (3 Bft) S-SW 212 0 min 0,000 mm 0,0 UV-I 16 W/m 11,5 C 8,7 C 24,1 km/h (4 Bft) 100,00 %
23.05.2016 16:12 13,0 C 90 % 1006,9 hPa 0,2 l/m 15,4 km/h (3 Bft) SW 226 0 min 0,000 mm 0,0 UV-I 16 W/m 11,4 C 8,6 C 20,9 km/h (4 Bft) 100,00 %
23.05.2016 16:13 12,9 C 90 % 1006,9 hPa 0,2 l/m 14,4 km/h (3 Bft) SW 224 0 min 0,000 mm 0,0 UV-I 20 W/m 11,3 C 8,9 C 27,4 km/h (4 Bft) 96,30 %
23.05.2016 16:14 12,8 C 91 % 1007,1 hPa 0,2 l/m 12,6 km/h (3 Bft) SW 225 0 min 0,000 mm 0,0 UV-I 26 W/m 11,4 C 9,5 C 16,1 km/h (3 Bft) 100,00 %
23.05.2016 16:15 12,8 C 91 % 1007,1 hPa 0,2 l/m 12,5 km/h (3 Bft) W-SW 247 0 min 0,000 mm 0,0 UV-I 28 W/m 11,4 C 9,5 C 16,1 km/h (3 Bft) 100,00 %
23.05.2016 16:16 12,8 C 92 % 1007,2 hPa 0,2 l/m 13,9 km/h (3 Bft) SW 218 0 min 0,000 mm 0,0 UV-I 30 W/m 11,5 C 8,9 C 16,1 km/h (3 Bft) 100,00 %
23.05.2016 16:17 12,7 C 92 % 1007,3 hPa 0,2 l/m 15,2 km/h (3 Bft) SW 230 0 min 0,000 mm 0,0 UV-I 33 W/m 11,4 C 8,3 C 20,9 km/h (4 Bft) 100,00 %
23.05.2016 16:18 12,7 C 92 % 1007,4 hPa 0,2 l/m 17,7 km/h (3 Bft) W-SW 245 0 min 0,000 mm 0,0 UV-I 36 W/m 11,4 C 7,5 C 32,2 km/h (5 Bft) 100,00 %
23.05.2016 16:19 12,6 C 91 % 1007,4 hPa 0,2 l/m 16,6 km/h (3 Bft) W 261 0 min 0,000 mm 0,0 UV-I 40 W/m 11,2 C 7,7 C 20,9 km/h (4 Bft) 100,00 %
23.05.2016 16:20 12,5 C 91 % 1007,5 hPa 0,4 l/m 15,0 km/h (3 Bft) SW 235 0 min 0,000 mm 0,0 UV-I 39 W/m 11,1 C 8,2 C 22,5 km/h (4 Bft) 100,00 %
23.05.2016 16:21 12,4 C 91 % 1007,5 hPa 0,0 l/m 18,1 km/h (3 Bft) W-SW 255 0 min 0,000 mm 0,0 UV-I 38 W/m 11,0 C 7,0 C 22,5 km/h (4 Bft) 100,00 %
23.05.2016 16:22 12,4 C 91 % 1007,4 hPa 0,0 l/m 15,5 km/h (3 Bft) W-SW 241 0 min 0,000 mm 0,0 UV-I 37 W/m 11,0 C 7,9 C 22,5 km/h (4 Bft) 100,00 %
23.05.2016 16:23 12,3 C 91 % 1007,4 hPa 0,2 l/m 16,7 km/h (3 Bft) W 267 0 min 0,000 mm 0,0 UV-I 37 W/m 10,9 C 7,3 C 22,5 km/h (4 Bft) 95,65 %
23.05.2016 16:24 12,3 C 91 % 1007,3 hPa 0,0 l/m 22,0 km/h (4 Bft) SW 236 0 min 0,000 mm 0,0 UV-I 34 W/m 10,9 C 5,7 C 27,4 km/h (4 Bft) 100,00 %
23.05.2016 16:25 12,2 C 91 % 1007,2 hPa 0,0 l/m 19,9 km/h (4 Bft) W-SW 246 0 min 0,000 mm 0,0 UV-I 32 W/m 10,8 C 6,2 C 24,1 km/h (4 Bft) 100,00 %
23.05.2016 16:26 12,2 C 91 % 1007,0 hPa 0,0 l/m 17,9 km/h (3 Bft) SW 231 0 min 0,000 mm 0,0 UV-I 32 W/m 10,8 C 6,8 C 24,1 km/h (4 Bft) 100,00 %
23.05.2016 16:27 12,2 C 92 % 1006,9 hPa 0,0 l/m 20,6 km/h (4 Bft) W 265 0 min 0,000 mm 0,0 UV-I 36 W/m 10,9 C 6,0 C 27,4 km/h (4 Bft) 100,00 %
23.05.2016 16:28 12,2 C 92 % 1006,8 hPa 0,0 l/m 28,4 km/h (4 Bft) SW 219 0 min 0,000 mm 0,0 UV-I 41 W/m 10,9 C 4,1 C 37,0 km/h (5 Bft) 100,00 %
23.05.2016 16:29 12,1 C 92 % 1006,7 hPa 0,0 l/m 23,8 km/h (4 Bft) W-SW 257 0 min 0,000 mm 0,0 UV-I 48 W/m 10,8 C 5,0 C 45,1 km/h (6 Bft) 100,00 %
23.05.2016 16:30 12,0 C 92 % 1006,7 hPa 0,0 l/m 27,1 km/h (4 Bft) W-SW 255 0 min 0,000 mm 0,0 UV-I 62 W/m 10,7 C 4,1 C 40,2 km/h (6 Bft) 100,00 %
23.05.2016 16:31 11,9 C 91 % 1006,6 hPa 0,0 l/m 23,7 km/h (4 Bft) W-SW 238 0 min 0,000 mm 0,0 UV-I 76 W/m 10,5 C 4,7 C 32,2 km/h (5 Bft) 100,00 %
23.05.2016 16:32 11,9 C 91 % 1006,6 hPa 0,2 l/m 19,5 km/h (3 Bft) W-SW 258 0 min 0,000 mm 0,2 UV-I 83 W/m 10,5 C 5,9 C 27,4 km/h (4 Bft) 98,67 %
23.05.2016 16:33 11,8 C 91 % 1006,6 hPa 0,0 l/m 24,3 km/h (4 Bft) W-SW 242 0 min 0,000 mm 0,5 UV-I 92 W/m 10,4 C 4,4 C 32,2 km/h (5 Bft) 100,00 %
23.05.2016 16:34 11,8 C 91 % 1006,5 hPa 0,2 l/m 25,9 km/h (4 Bft) W-SW 256 0 min 0,000 mm 0,7 UV-I 116 W/m 10,4 C 4,1 C 35,4 km/h (5 Bft) 100,00 %
23.05.2016 16:35 11,7 C 91 % 1006,7 hPa 0,0 l/m 23,4 km/h (4 Bft) SW 223 0 min 0,000 mm 0,7 UV-I 123 W/m 10,3 C 4,5 C 33,8 km/h (5 Bft) 100,00 %
23.05.2016 16:36 11,7 C 91 % 1006,7 hPa 0,2 l/m 20,2 km/h (4 Bft) SW 216 0 min 0,000 mm 0,7 UV-I 115 W/m 10,3 C 5,4 C 30,6 km/h (5 Bft) 100,00 %
23.05.2016 16:37 11,7 C 91 % 1006,9 hPa 0,0 l/m 18,8 km/h (3 Bft) SW 224 0 min 0,000 mm 0,6 UV-I 101 W/m 10,3 C 5,9 C 27,4 km/h (4 Bft) 100,00 %
23.05.2016 16:38 11,7 C 92 % 1007,0 hPa 0,0 l/m 17,2 km/h (3 Bft) W-SW 246 0 min 0,000 mm 0,6 UV-I 102 W/m 10,4 C 6,4 C 24,1 km/h (4 Bft) 100,00 %
23.05.2016 16:39 11,7 C 92 % 1007,0 hPa 0,0 l/m 22,9 km/h (4 Bft) SW 230 0 min 0,000 mm 0,5 UV-I 98 W/m 10,4 C 4,7 C 30,6 km/h (5 Bft) 100,00 %
23.05.2016 16:40 11,6 C 92 % 1007,1 hPa 0,0 l/m 18,2 km/h (3 Bft) SW 224 0 min 0,000 mm 0,5 UV-I 90 W/m 10,3 C 5,9 C 24,1 km/h (4 Bft) 100,00 %
23.05.2016 16:41 11,6 C 92 % 1007,1 hPa 0,0 l/m 19,0 km/h (3 Bft) SW 225 0 min 0,000 mm 0,5 UV-I 86 W/m 10,3 C 5,7 C 27,4 km/h (4 Bft) 100,00 %
23.05.2016 16:42 11,6 C 92 % 1007,1 hPa 0,0 l/m 17,7 km/h (3 Bft) W 265 0 min 0,000 mm 0,5 UV-I 79 W/m 10,3 C 6,1 C 25,7 km/h (4 Bft) 95,65 %
23.05.2016 16:43 11,6 C 92 % 1007,1 hPa 0,0 l/m 19,6 km/h (3 Bft) SW 229 0 min 0,000 mm 0,5 UV-I 80 W/m 10,3 C 5,5 C 25,7 km/h (4 Bft) 100,00 %
23.05.2016 16:44 11,6 C 92 % 1007,2 hPa 0,0 l/m 15,4 km/h (3 Bft) W-SW 256 0 min 0,000 mm 0,5 UV-I 81 W/m 10,3 C 6,9 C 22,5 km/h (4 Bft) 100,00 %
23.05.2016 16:45 11,6 C 92 % 1007,2 hPa 0,0 l/m 23,0 km/h (4 Bft) S-SW 207 0 min 0,000 mm 0,5 UV-I 84 W/m 10,3 C 4,5 C 33,8 km/h (5 Bft) 100,00 %
23.05.2016 16:46 11,6 C 91 % 1007,2 hPa 0,0 l/m 19,5 km/h (3 Bft) SW 224 0 min 0,000 mm 0,6 UV-I 101 W/m 10,2 C 5,5 C 25,7 km/h (4 Bft) 100,00 %
23.05.2016 16:47 11,6 C 91 % 1007,1 hPa 0,0 l/m 14,6 km/h (3 Bft) W-SW 252 0 min 0,000 mm 0,7 UV-I 116 W/m 10,2 C 7,2 C 20,9 km/h (4 Bft) 100,00 %
23.05.2016 16:48 11,6 C 91 % 1007,2 hPa 0,0 l/m 11,4 km/h (2 Bft) W 259 0 min 0,000 mm 0,6 UV-I 111 W/m 10,2 C 8,6 C 16,1 km/h (3 Bft) 85,71 %
23.05.2016 16:49 11,6 C 92 % 1007,2 hPa 0,0 l/m 17,9 km/h (3 Bft) W 266 0 min 0,000 mm 0,7 UV-I 101 W/m 10,3 C 6,0 C 22,5 km/h (4 Bft) 100,00 %
23.05.2016 16:50 11,6 C 92 % 1007,2 hPa 0,0 l/m 16,2 km/h (3 Bft) W-SW 246 0 min 0,000 mm 0,7 UV-I 90 W/m 10,3 C 6,6 C 27,4 km/h (4 Bft) 100,00 %
23.05.2016 16:51 11,6 C 92 % 1007,2 hPa 0,0 l/m 14,7 km/h (3 Bft) SW 233 0 min 0,000 mm 0,6 UV-I 78 W/m 10,3 C 7,2 C 19,3 km/h (3 Bft) 100,00 %
23.05.2016 16:52 11,6 C 92 % 1007,2 hPa 0,0 l/m 11,7 km/h (2 Bft) W 265 0 min 0,000 mm 0,5 UV-I 71 W/m 10,3 C 8,5 C 17,7 km/h (3 Bft) 100,00 %
23.05.2016 16:53 11,5 C 92 % 1007,1 hPa 0,0 l/m 16,9 km/h (3 Bft) SW 232 0 min 0,000 mm 0,7 UV-I 83 W/m 10,2 C 6,2 C 22,5 km/h (4 Bft) 96,15 %
23.05.2016 16:54 11,6 C 92 % 1007,1 hPa 0,0 l/m 16,5 km/h (3 Bft) SW 234 0 min 0,000 mm 0,7 UV-I 85 W/m 10,3 C 6,5 C 20,9 km/h (4 Bft) 96,15 %
23.05.2016 16:55 11,5 C 92 % 1007,1 hPa 0,0 l/m 21,9 km/h (4 Bft) S-SW 196 0 min 0,000 mm 0,7 UV-I 75 W/m 10,2 C 4,7 C 32,2 km/h (5 Bft) 100,00 %
23.05.2016 16:56 11,5 C 91 % 1007,3 hPa 0,0 l/m 20,3 km/h (4 Bft) S-SW 211 0 min 0,000 mm 0,5 UV-I 60 W/m 10,1 C 5,1 C 29,0 km/h (5 Bft) 100,00 %
23.05.2016 16:57 11,5 C 91 % 1007,3 hPa 0,0 l/m 18,8 km/h (3 Bft) SW 227 0 min 0,000 mm 0,1 UV-I 47 W/m 10,1 C 5,6 C 22,5 km/h (4 Bft) 96,30 %
23.05.2016 16:58 11,4 C 91 % 1007,4 hPa 0,0 l/m 19,0 km/h (3 Bft) W-SW 237 0 min 0,000 mm 0,0 UV-I 41 W/m 10,0 C 5,4 C 25,7 km/h (4 Bft) 100,00 %
23.05.2016 16:59 11,4 C 91 % 1007,4 hPa 0,0 l/m 16,4 km/h (3 Bft) SW 226 0 min 0,000 mm 0,0 UV-I 36 W/m 10,0 C 6,3 C 22,5 km/h (4 Bft) 100,00 %
23.05.2016 17:00 11,4 C 91 % 1007,4 hPa 0,0 l/m 13,8 km/h (3 Bft) W-SW 246 0 min 0,000 mm 0,0 UV-I 36 W/m 10,0 C 7,3 C 20,9 km/h (4 Bft) 100,00 %
23.05.2016 17:02 11,4 C 91 % 1007,4 hPa 0,0 l/m 18,1 km/h (3 Bft) W-SW 238 0 min 0,051 mm 0,0 UV-I 38 W/m 10,0 C 5,7 C 25,7 km/h (4 Bft) 98,11 %
23.05.2016 17:03 11,4 C 91 % 1007,4 hPa 0,0 l/m 17,9 km/h (3 Bft) W-SW 251 0 min 0,000 mm 0,0 UV-I 37 W/m 10,0 C 5,8 C 29,0 km/h (5 Bft) 100,00 %
23.05.2016 17:04 11,4 C 90 % 1007,3 hPa 0,0 l/m 14,6 km/h (3 Bft) W-SW 248 0 min 0,000 mm 0,0 UV-I 36 W/m 9,8 C 7,0 C 22,5 km/h (4 Bft) 100,00 %
23.05.2016 17:05 11,3 C 91 % 1007,4 hPa 0,0 l/m 16,8 km/h (3 Bft) W-SW 254 0 min 0,000 mm 0,0 UV-I 34 W/m 9,9 C 6,0 C 20,9 km/h (4 Bft) 100,00 %
23.05.2016 17:06 11,3 C 91 % 1007,5 hPa 0,0 l/m 15,4 km/h (3 Bft) W-SW 243 0 min 0,000 mm 0,0 UV-I 31 W/m 9,9 C 6,6 C 20,9 km/h (4 Bft) 100,00 %
23.05.2016 17:07 11,3 C 91 % 1007,5 hPa 0,0 l/m 12,7 km/h (3 Bft) W-SW 241 0 min 0,000 mm 0,0 UV-I 30 W/m 9,9 C 7,7 C 17,7 km/h (3 Bft) 95,65 %
23.05.2016 17:08 11,3 C 91 % 1007,6 hPa 0,0 l/m 12,6 km/h (3 Bft) SW 233 0 min 0,000 mm 0,0 UV-I 32 W/m 9,9 C 7,7 C 19,3 km/h (3 Bft) 100,00 %
23.05.2016 17:09 11,3 C 91 % 1007,6 hPa 0,0 l/m 15,7 km/h (3 Bft) SW 229 0 min 0,000 mm 0,0 UV-I 36 W/m 9,9 C 6,4 C 20,9 km/h (4 Bft) 96,15 %
23.05.2016 17:10 11,3 C 91 % 1007,6 hPa 0,0 l/m 15,4 km/h (3 Bft) SW 223 0 min 0,000 mm 0,0 UV-I 41 W/m 9,9 C 6,6 C 22,5 km/h (4 Bft) 100,00 %
23.05.2016 17:11 11,3 C 91 % 1007,6 hPa 0,0 l/m 15,3 km/h (3 Bft) W-SW 246 0 min 0,000 mm 0,0 UV-I 42 W/m 9,9 C 6,6 C 20,9 km/h (4 Bft) 100,00 %
23.05.2016 17:12 11,3 C 91 % 1007,6 hPa 0,0 l/m 16,5 km/h (3 Bft) SW 215 0 min 0,000 mm 0,0 UV-I 41 W/m 9,9 C 6,1 C 22,5 km/h (4 Bft) 100,00 %
23.05.2016 17:13 11,3 C 91 % 1007,8 hPa 0,0 l/m 13,3 km/h (3 Bft) W 263 0 min 0,000 mm 0,0 UV-I 39 W/m 9,9 C 7,4 C 19,3 km/h (3 Bft) 92,31 %
23.05.2016 17:14 11,3 C 91 % 1007,7 hPa 0,0 l/m 14,6 km/h (3 Bft) W-NW 283 0 min 0,000 mm 0,0 UV-I 39 W/m 9,9 C 6,9 C 20,9 km/h (4 Bft) 96,30 %
23.05.2016 17:15 11,3 C 91 % 1007,7 hPa 0,0 l/m 9,7 km/h (2 Bft) W-SW 254 0 min 0,000 mm 0,0 UV-I 37 W/m 9,9 C 9,2 C 12,9 km/h (3 Bft) 100,00 %
23.05.2016 17:16 11,3 C 91 % 1007,7 hPa 0,0 l/m 10,7 km/h (2 Bft) SW 227 0 min 0,000 mm 0,0 UV-I 34 W/m 9,9 C 8,7 C 14,5 km/h (3 Bft) 100,00 %
23.05.2016 17:17 11,3 C 91 % 1007,9 hPa 0,0 l/m 13,8 km/h (3 Bft) W-SW 238 0 min 0,000 mm 0,0 UV-I 30 W/m 9,9 C 7,2 C 20,9 km/h (4 Bft) 100,00 %
23.05.2016 17:18 11,2 C 91 % 1007,9 hPa 0,0 l/m 12,7 km/h (3 Bft) SW 227 0 min 0,000 mm 0,0 UV-I 25 W/m 9,8 C 7,6 C 17,7 km/h (3 Bft) 100,00 %
23.05.2016 17:19 11,2 C 91 % 1007,9 hPa 0,0 l/m 14,8 km/h (3 Bft) S-SW 211 0 min 0,000 mm 0,0 UV-I 20 W/m 9,8 C 6,7 C 20,9 km/h (4 Bft) 100,00 %
23.05.2016 17:20 11,2 C 91 % 1008,0 hPa 0,0 l/m 16,1 km/h (3 Bft) W-SW 238 0 min 0,000 mm 0,0 UV-I 16 W/m 9,8 C 6,2 C 24,1 km/h (4 Bft) 100,00 %
23.05.2016 17:21 11,2 C 91 % 1008,1 hPa 0,0 l/m 14,8 km/h (3 Bft) SW 236 0 min 0,000 mm 0,0 UV-I 14 W/m 9,8 C 6,7 C 22,5 km/h (4 Bft) 100,00 %
23.05.2016 17:22 11,2 C 91 % 1008,1 hPa 0,0 l/m 13,7 km/h (3 Bft) W-SW 244 0 min 0,000 mm 0,0 UV-I 14 W/m 9,8 C 7,1 C 22,5 km/h (4 Bft) 91,30 %
23.05.2016 17:23 11,2 C 91 % 1008,1 hPa 0,0 l/m 19,2 km/h (3 Bft) S-SW 205 0 min 0,000 mm 0,0 UV-I 15 W/m 9,8 C 5,1 C 25,7 km/h (4 Bft) 91,67 %
23.05.2016 17:24 11,1 C 90 % 1008,0 hPa 0,0 l/m 21,6 km/h (4 Bft) S-SW 213 0 min 0,000 mm 0,0 UV-I 16 W/m 9,5 C 4,2 C 32,2 km/h (5 Bft) 100,00 %
23.05.2016 17:25 11,1 C 90 % 1008,0 hPa 0,0 l/m 26,3 km/h (4 Bft) W-SW 242 0 min 0,000 mm 0,0 UV-I 18 W/m 9,5 C 3,0 C 35,4 km/h (5 Bft) 93,33 %
23.05.2016 17:26 11,0 C 90 % 1008,0 hPa 0,0 l/m 20,7 km/h (4 Bft) W 259 0 min 0,000 mm 0,0 UV-I 23 W/m 9,4 C 4,4 C 29,0 km/h (5 Bft) 100,00 %
23.05.2016 17:27 10,9 C 90 % 1007,8 hPa 0,0 l/m 26,6 km/h (4 Bft) SW 225 0 min 0,000 mm 0,0 UV-I 27 W/m 9,3 C 2,7 C 38,6 km/h (5 Bft) 96,30 %
23.05.2016 17:28 10,9 C 90 % 1007,9 hPa 0,0 l/m 30,7 km/h (5 Bft) W-SW 238 0 min 0,000 mm 0,0 UV-I 31 W/m 9,3 C 1,8 C 46,7 km/h (6 Bft) 100,00 %
23.05.2016 17:29 10,8 C 90 % 1007,9 hPa 0,0 l/m 19,8 km/h (3 Bft) W-SW 246 0 min 0,000 mm 0,0 UV-I 33 W/m 9,2 C 4,4 C 25,7 km/h (4 Bft) 96,30 %
23.05.2016 17:30 10,8 C 90 % 1007,9 hPa 0,0 l/m 20,9 km/h (4 Bft) W-SW 246 0 min 0,000 mm 0,0 UV-I 30 W/m 9,2 C 4,0 C 32,2 km/h (5 Bft) 92,86 %
23.05.2016 17:31 10,7 C 90 % 1007,8 hPa 0,0 l/m 21,3 km/h (4 Bft) SW 236 0 min 0,000 mm 0,0 UV-I 27 W/m 9,1 C 3,8 C 29,0 km/h (5 Bft) 92,59 %
23.05.2016 17:32 10,7 C 90 % 1007,9 hPa 0,2 l/m 19,8 km/h (3 Bft) S-SW 207 0 min 0,000 mm 0,0 UV-I 26 W/m 9,1 C 4,3 C 24,1 km/h (4 Bft) 96,15 %
23.05.2016 17:33 10,7 C 90 % 1007,8 hPa 0,0 l/m 22,4 km/h (4 Bft) W 263 0 min 0,000 mm 0,0 UV-I 29 W/m 9,1 C 3,5 C 29,0 km/h (5 Bft) 100,00 %
23.05.2016 17:34 10,6 C 90 % 1007,8 hPa 0,0 l/m 22,5 km/h (4 Bft) W-SW 245 0 min 0,000 mm 0,0 UV-I 34 W/m 9,0 C 3,3 C 29,0 km/h (5 Bft) 98,64 %
23.05.2016 17:35 10,6 C 90 % 1007,7 hPa 0,0 l/m 19,0 km/h (3 Bft) W-SW 248 0 min 0,000 mm 0,0 UV-I 36 W/m 9,0 C 4,4 C 22,5 km/h (4 Bft) 97,56 %
23.05.2016 17:36 10,5 C 90 % 1007,8 hPa 0,0 l/m 24,4 km/h (4 Bft) SW 227 0 min 0,000 mm 0,0 UV-I 36 W/m 8,9 C 2,7 C 35,4 km/h (5 Bft) 95,83 %
23.05.2016 17:37 10,5 C 90 % 1007,8 hPa 0,0 l/m 20,3 km/h (4 Bft) W-SW 240 0 min 0,000 mm 0,0 UV-I 33 W/m 8,9 C 3,8 C 30,6 km/h (5 Bft) 95,65 %
23.05.2016 17:38 10,4 C 91 % 1007,8 hPa 0,0 l/m 20,9 km/h (4 Bft) S-SO 165 0 min 0,000 mm 0,0 UV-I 30 W/m 9,0 C 3,5 C 29,0 km/h (5 Bft) 96,15 %
23.05.2016 17:39 10,4 C 91 % 1007,9 hPa 0,2 l/m 22,7 km/h (4 Bft) W 264 0 min 0,000 mm 0,0 UV-I 26 W/m 9,0 C 3,0 C 29,0 km/h (5 Bft) 100,00 %
23.05.2016 17:40 10,4 C 91 % 1007,6 hPa 0,0 l/m 21,4 km/h (4 Bft) W-SW 240 0 min 0,000 mm 0,0 UV-I 30 W/m 9,0 C 3,4 C 25,7 km/h (4 Bft) 92,59 %
23.05.2016 17:41 10,3 C 91 % 1007,6 hPa 0,0 l/m 24,6 km/h (4 Bft) W-SW 246 0 min 0,000 mm 0,0 UV-I 41 W/m 8,9 C 2,3 C 30,6 km/h (5 Bft) 96,15 %
23.05.2016 17:42 10,3 C 91 % 1007,4 hPa 0,0 l/m 19,8 km/h (3 Bft) W 263 0 min 0,000 mm 0,0 UV-I 46 W/m 8,9 C 3,7 C 30,6 km/h (5 Bft) 100,00 %
23.05.2016 17:43 10,3 C 91 % 1007,3 hPa 0,2 l/m 18,3 km/h (3 Bft) W-SW 250 0 min 0,000 mm 0,0 UV-I 51 W/m 8,9 C 4,2 C 24,1 km/h (4 Bft) 85,71 %
23.05.2016 17:44 10,2 C 91 % 1007,3 hPa 0,0 l/m 18,4 km/h (3 Bft) W-SW 238 0 min 0,000 mm 0,0 UV-I 51 W/m 8,8 C 4,1 C 24,1 km/h (4 Bft) 92,59 %
23.05.2016 17:45 10,2 C 92 % 1007,3 hPa 0,2 l/m 20,0 km/h (4 Bft) W-SW 246 0 min 0,000 mm 0,0 UV-I 48 W/m 9,0 C 3,5 C 29,0 km/h (5 Bft) 91,30 %
23.05.2016 17:46 10,2 C 92 % 1007,4 hPa 0,0 l/m 23,1 km/h (4 Bft) W-SW 253 0 min 0,000 mm 0,0 UV-I 45 W/m 9,0 C 2,6 C 29,0 km/h (5 Bft) 100,00 %
23.05.2016 17:47 10,2 C 92 % 1007,2 hPa 0,0 l/m 22,2 km/h (4 Bft) W 262 0 min 0,000 mm 0,0 UV-I 50 W/m 9,0 C 2,9 C 33,8 km/h (5 Bft) 95,65 %
23.05.2016 17:48 10,1 C 92 % 1007,2 hPa 0,0 l/m 21,5 km/h (4 Bft) W-SW 258 0 min 0,000 mm 0,0 UV-I 60 W/m 8,9 C 2,9 C 33,8 km/h (5 Bft) 95,83 %
23.05.2016 17:49 10,1 C 92 % 1007,1 hPa 0,0 l/m 17,1 km/h (3 Bft) W 270 0 min 0,000 mm 0,0 UV-I 74 W/m 8,9 C 4,4 C 20,9 km/h (4 Bft) 100,00 %
23.05.2016 17:50 10,1 C 92 % 1007,0 hPa 0,2 l/m 14,1 km/h (3 Bft) SW 227 0 min 0,000 mm 0,0 UV-I 77 W/m 8,9 C 5,6 C 20,9 km/h (4 Bft) 95,83 %
23.05.2016 17:51 10,1 C 92 % 1006,9 hPa 0,0 l/m 19,1 km/h (3 Bft) W-SW 249 0 min 0,000 mm 0,0 UV-I 76 W/m 8,9 C 3,7 C 25,7 km/h (4 Bft) 100,00 %
23.05.2016 17:52 10,0 C 93 % 1007,0 hPa 0,0 l/m 19,5 km/h (3 Bft) W-SW 256 0 min 0,000 mm 0,0 UV-I 71 W/m 8,9 C 3,5 C 25,7 km/h (4 Bft) 96,55 %
23.05.2016 17:53 10,0 C 93 % 1007,1 hPa 0,0 l/m 24,3 km/h (4 Bft) SW 223 0 min 0,000 mm 0,0 UV-I 64 W/m 8,9 C 2,0 C 29,0 km/h (5 Bft) 100,00 %
23.05.2016 17:54 9,9 C 93 % 1007,1 hPa 0,0 l/m 21,1 km/h (4 Bft) SW 227 0 min 0,000 mm 0,0 UV-I 62 W/m 8,8 C 2,8 C 29,0 km/h (5 Bft) 96,88 %
23.05.2016 17:55 9,9 C 92 % 1007,1 hPa 0,0 l/m 18,0 km/h (3 Bft) W-SW 253 0 min 0,000 mm 0,0 UV-I 58 W/m 8,7 C 3,8 C 24,1 km/h (4 Bft) 100,00 %
23.05.2016 17:56 9,9 C 92 % 1007,1 hPa 0,0 l/m 24,1 km/h (4 Bft) SW 229 0 min 0,000 mm 0,0 UV-I 64 W/m 8,7 C 1,9 C 35,4 km/h (5 Bft) 96,30 %
23.05.2016 17:57 9,8 C 92 % 1007,2 hPa 0,0 l/m 16,4 km/h (3 Bft) SW 232 0 min 0,000 mm 0,0 UV-I 67 W/m 8,6 C 4,3 C 22,5 km/h (4 Bft) 100,00 %
23.05.2016 17:58 9,8 C 92 % 1007,3 hPa 0,0 l/m 17,6 km/h (3 Bft) S 171 0 min 0,000 mm 0,0 UV-I 69 W/m 8,6 C 3,9 C 25,7 km/h (4 Bft) 100,00 %
23.05.2016 17:59 9,8 C 92 % 1007,5 hPa 0,2 l/m 22,5 km/h (4 Bft) SW 215 0 min 0,000 mm 0,0 UV-I 70 W/m 8,6 C 2,3 C 32,2 km/h (5 Bft) 93,33 %
23.05.2016 18:00 9,8 C 92 % 1007,5 hPa 0,0 l/m 19,1 km/h (3 Bft) SW 214 0 min 0,000 mm 0,0 UV-I 68 W/m 8,6 C 3,3 C 32,2 km/h (5 Bft) 100,00 %
23.05.2016 18:02 9,8 C 92 % 1007,8 hPa 0,0 l/m 20,0 km/h (4 Bft) W-SW 253 0 min 0,025 mm 0,0 UV-I 68 W/m 8,6 C 3,0 C 30,6 km/h (5 Bft) 100,00 %
23.05.2016 18:03 9,8 C 92 % 1007,8 hPa 0,0 l/m 25,7 km/h (4 Bft) W-SW 241 0 min 0,000 mm 0,0 UV-I 74 W/m 8,6 C 1,4 C 32,2 km/h (5 Bft) 100,00 %
23.05.2016 18:04 9,7 C 92 % 1007,8 hPa 0,0 l/m 19,8 km/h (3 Bft) SW 234 0 min 0,000 mm 0,0 UV-I 80 W/m 8,5 C 3,0 C 30,6 km/h (5 Bft) 100,00 %
23.05.2016 18:05 9,7 C 91 % 1007,8 hPa 0,0 l/m 25,5 km/h (4 Bft) S 170 0 min 0,000 mm 0,0 UV-I 82 W/m 8,3 C 1,3 C 38,6 km/h (5 Bft) 100,00 %
23.05.2016 18:06 9,7 C 91 % 1007,8 hPa 0,0 l/m 23,2 km/h (4 Bft) SW 233 0 min 0,000 mm 0,0 UV-I 80 W/m 8,3 C 1,9 C 29,0 km/h (5 Bft) 100,00 %
23.05.2016 18:07 9,7 C 91 % 1007,8 hPa 0,0 l/m 22,4 km/h (4 Bft) S-SW 198 0 min 0,000 mm 0,0 UV-I 74 W/m 8,3 C 2,2 C 32,2 km/h (5 Bft) 96,67 %
23.05.2016 18:08 9,7 C 92 % 1007,8 hPa 0,0 l/m 28,6 km/h (4 Bft) SW 234 0 min 0,000 mm 0,0 UV-I 69 W/m 8,5 C 0,5 C 37,0 km/h (5 Bft) 95,65 %
23.05.2016 18:09 9,7 C 91 % 1007,8 hPa 0,0 l/m 30,2 km/h (5 Bft) SW 221 0 min 0,000 mm 0,0 UV-I 65 W/m 8,3 C 0,2 C 38,6 km/h (5 Bft) 100,00 %
23.05.2016 18:10 9,7 C 91 % 1007,9 hPa 0,0 l/m 28,2 km/h (4 Bft) W-SW 241 0 min 0,000 mm 0,0 UV-I 62 W/m 8,3 C 0,6 C 38,6 km/h (5 Bft) 100,00 %
23.05.2016 18:11 9,7 C 91 % 1007,8 hPa 0,0 l/m 24,9 km/h (4 Bft) SW 235 0 min 0,000 mm 0,0 UV-I 61 W/m 8,3 C 1,5 C 32,2 km/h (5 Bft) 100,00 %
23.05.2016 18:12 9,7 C 91 % 1007,8 hPa 0,0 l/m 22,4 km/h (4 Bft) W-NW 283 0 min 0,000 mm 0,0 UV-I 58 W/m 8,3 C 2,2 C 33,8 km/h (5 Bft) 100,00 %
23.05.2016 18:13 9,7 C 91 % 1007,9 hPa 0,0 l/m 17,8 km/h (3 Bft) SW 235 0 min 0,000 mm 0,0 UV-I 58 W/m 8,3 C 3,7 C 24,1 km/h (4 Bft) 100,00 %
23.05.2016 18:14 9,7 C 91 % 1008,0 hPa 0,0 l/m 23,7 km/h (4 Bft) W-SW 254 0 min 0,000 mm 0,0 UV-I 56 W/m 8,3 C 1,8 C 33,8 km/h (5 Bft) 100,00 %
23.05.2016 18:15 9,7 C 91 % 1008,0 hPa 0,0 l/m 26,0 km/h (4 Bft) SW 229 0 min 0,000 mm 0,0 UV-I 54 W/m 8,3 C 1,2 C 32,2 km/h (5 Bft) 100,00 %
23.05.2016 18:16 9,6 C 91 % 1008,0 hPa 0,0 l/m 21,4 km/h (4 Bft) W-SW 244 0 min 0,000 mm 0,0 UV-I 52 W/m 8,2 C 2,3 C 25,7 km/h (4 Bft) 100,00 %
23.05.2016 18:17 9,6 C 91 % 1008,1 hPa 0,0 l/m 19,7 km/h (3 Bft) W-SW 252 0 min 0,000 mm 0,0 UV-I 51 W/m 8,2 C 2,9 C 30,6 km/h (5 Bft) 100,00 %
23.05.2016 18:18 9,6 C 91 % 1008,0 hPa 0,0 l/m 23,5 km/h (4 Bft) W-SW 237 0 min 0,000 mm 0,0 UV-I 51 W/m 8,2 C 1,7 C 37,0 km/h (5 Bft) 96,15 %
23.05.2016 18:19 9,6 C 91 % 1008,1 hPa 0,0 l/m 23,5 km/h (4 Bft) SW 226 0 min 0,000 mm 0,0 UV-I 49 W/m 8,2 C 1,7 C 32,2 km/h (5 Bft) 100,00 %
23.05.2016 18:20 9,6 C 91 % 1008,1 hPa 0,0 l/m 22,7 km/h (4 Bft) SW 235 0 min 0,000 mm 0,0 UV-I 50 W/m 8,2 C 1,9 C 30,6 km/h (5 Bft) 100,00 %
23.05.2016 18:21 9,6 C 91 % 1008,2 hPa 0,0 l/m 19,8 km/h (3 Bft) W-SW 252 0 min 0,000 mm 0,0 UV-I 55 W/m 8,2 C 2,8 C 33,8 km/h (5 Bft) 100,00 %
23.05.2016 18:22 9,6 C 91 % 1008,2 hPa 0,0 l/m 21,0 km/h (4 Bft) W-SW 244 0 min 0,000 mm 0,0 UV-I 57 W/m 8,2 C 2,4 C 27,4 km/h (4 Bft) 100,00 %
23.05.2016 18:23 9,6 C 91 % 1008,2 hPa 0,0 l/m 16,2 km/h (3 Bft) SW 226 0 min 0,000 mm 0,0 UV-I 54 W/m 8,2 C 4,2 C 24,1 km/h (4 Bft) 100,00 %
23.05.2016 18:24 9,6 C 91 % 1008,3 hPa 0,0 l/m 12,8 km/h (3 Bft) SW 230 0 min 0,000 mm 0,0 UV-I 52 W/m 8,2 C 5,7 C 17,7 km/h (3 Bft) 100,00 %
23.05.2016 18:25 9,6 C 91 % 1008,3 hPa 0,0 l/m 15,6 km/h (3 Bft) SW 223 0 min 0,000 mm 0,0 UV-I 46 W/m 8,2 C 4,4 C 24,1 km/h (4 Bft) 100,00 %
23.05.2016 18:26 9,6 C 91 % 1008,4 hPa 0,0 l/m 21,6 km/h (4 Bft) S-SW 199 0 min 0,000 mm 0,0 UV-I 46 W/m 8,2 C 2,3 C 32,2 km/h (5 Bft) 100,00 %
23.05.2016 18:27 9,6 C 91 % 1008,4 hPa 0,0 l/m 24,9 km/h (4 Bft) S-SW 207 0 min 0,000 mm 0,0 UV-I 47 W/m 8,2 C 1,3 C 32,2 km/h (5 Bft) 100,00 %
23.05.2016 18:28 9,6 C 91 % 1008,5 hPa 0,0 l/m 19,5 km/h (3 Bft) W 269 0 min 0,000 mm 0,0 UV-I 46 W/m 8,2 C 2,9 C 25,7 km/h (4 Bft) 96,30 %
23.05.2016 18:29 9,6 C 91 % 1008,5 hPa 0,0 l/m 22,2 km/h (4 Bft) W-SW 242 0 min 0,000 mm 0,0 UV-I 40 W/m 8,2 C 2,1 C 30,6 km/h (5 Bft) 100,00 %
23.05.2016 18:30 9,6 C 91 % 1008,4 hPa 0,0 l/m 20,4 km/h (4 Bft) W-SW 252 0 min 0,000 mm 0,0 UV-I 33 W/m 8,2 C 2,6 C 35,4 km/h (5 Bft) 100,00 %
23.05.2016 18:31 9,6 C 91 % 1008,4 hPa 0,0 l/m 18,3 km/h (3 Bft) SW 232 0 min 0,000 mm 0,0 UV-I 28 W/m 8,2 C 3,4 C 33,8 km/h (5 Bft) 100,00 %
23.05.2016 18:32 9,5 C 91 % 1008,4 hPa 0,0 l/m 18,7 km/h (3 Bft) W-SW 244 0 min 0,000 mm 0,0 UV-I 29 W/m 8,1 C 3,1 C 24,1 km/h (4 Bft) 100,00 %
23.05.2016 18:33 9,5 C 91 % 1008,4 hPa 0,0 l/m 21,4 km/h (4 Bft) W-SW 251 0 min 0,000 mm 0,0 UV-I 30 W/m 8,1 C 2,2 C 30,6 km/h (5 Bft) 100,00 %
23.05.2016 18:34 9,5 C 91 % 1008,4 hPa 0,0 l/m 20,0 km/h (4 Bft) SW 234 0 min 0,000 mm 0,0 UV-I 31 W/m 8,1 C 2,6 C 27,4 km/h (4 Bft) 100,00 %
23.05.2016 18:35 9,4 C 91 % 1008,4 hPa 0,0 l/m 25,5 km/h (4 Bft) W-SW 246 0 min 0,000 mm 0,0 UV-I 31 W/m 8,0 C 0,9 C 30,6 km/h (5 Bft) 100,00 %
23.05.2016 18:36 9,4 C 91 % 1008,4 hPa 0,0 l/m 21,0 km/h (4 Bft) S-SW 193 0 min 0,000 mm 0,0 UV-I 28 W/m 8,0 C 2,2 C 27,4 km/h (4 Bft) 100,00 %
23.05.2016 18:37 9,4 C 91 % 1008,5 hPa 0,0 l/m 23,7 km/h (4 Bft) SW 215 0 min 0,000 mm 0,0 UV-I 30 W/m 8,0 C 1,4 C 30,6 km/h (5 Bft) 98,62 %
23.05.2016 18:38 9,4 C 90 % 1008,4 hPa 0,0 l/m 23,3 km/h (4 Bft) SW 226 0 min 0,000 mm 0,0 UV-I 31 W/m 7,8 C 1,5 C 35,4 km/h (5 Bft) 97,56 %
23.05.2016 18:39 9,4 C 90 % 1008,5 hPa 0,0 l/m 30,2 km/h (5 Bft) W-SW 255 0 min 0,000 mm 0,0 UV-I 33 W/m 7,8 C -0,2 C 40,2 km/h (6 Bft) 100,00 %
23.05.2016 18:40 9,4 C 90 % 1008,4 hPa 0,0 l/m 26,6 km/h (4 Bft) SW 235 0 min 0,000 mm 0,0 UV-I 33 W/m 7,8 C 0,6 C 33,8 km/h (5 Bft) 92,86 %
23.05.2016 18:41 9,4 C 90 % 1008,5 hPa 0,0 l/m 23,5 km/h (4 Bft) S-SW 209 0 min 0,000 mm 0,0 UV-I 33 W/m 7,8 C 1,4 C 29,0 km/h (5 Bft) 100,00 %
23.05.2016 18:42 9,4 C 90 % 1008,6 hPa 0,0 l/m 22,6 km/h (4 Bft) W-SW 241 0 min 0,000 mm 0,0 UV-I 33 W/m 7,8 C 1,7 C 27,4 km/h (4 Bft) 100,00 %
23.05.2016 18:43 9,4 C 90 % 1008,7 hPa 0,0 l/m 19,4 km/h (3 Bft) S-SW 207 0 min 0,000 mm 0,0 UV-I 36 W/m 7,8 C 2,7 C 33,8 km/h (5 Bft) 94,44 %
23.05.2016 18:44 9,4 C 90 % 1008,7 hPa 0,0 l/m 24,1 km/h (4 Bft) SW 227 0 min 0,000 mm 0,0 UV-I 39 W/m 7,8 C 1,3 C 33,8 km/h (5 Bft) 100,00 %
23.05.2016 18:45 9,4 C 90 % 1008,8 hPa 0,0 l/m 27,9 km/h (4 Bft) W-SW 237 0 min 0,000 mm 0,0 UV-I 41 W/m 7,8 C 0,3 C 41,8 km/h (6 Bft) 100,00 %
23.05.2016 18:46 9,4 C 89 % 1008,8 hPa 0,0 l/m 24,1 km/h (4 Bft) SW 229 0 min 0,000 mm 0,0 UV-I 42 W/m 7,7 C 1,3 C 37,0 km/h (5 Bft) 91,30 %
23.05.2016 18:47 9,4 C 89 % 1008,8 hPa 0,0 l/m 23,2 km/h (4 Bft) W 261 0 min 0,000 mm 0,0 UV-I 45 W/m 7,7 C 1,5 C 32,2 km/h (5 Bft) 100,00 %
23.05.2016 18:48 9,4 C 89 % 1008,8 hPa 0,0 l/m 20,3 km/h (4 Bft) W-SW 240 0 min 0,000 mm 0,0 UV-I 47 W/m 7,7 C 2,4 C 27,4 km/h (4 Bft) 100,00 %
23.05.2016 18:49 9,3 C 89 % 1008,9 hPa 0,0 l/m 23,6 km/h (4 Bft) SW 234 0 min 0,000 mm 0,0 UV-I 50 W/m 7,6 C 1,3 C 30,6 km/h (5 Bft) 100,00 %
23.05.2016 18:50 9,4 C 89 % 1008,9 hPa 0,0 l/m 20,0 km/h (4 Bft) SW 228 0 min 0,000 mm 0,0 UV-I 48 W/m 7,7 C 2,5 C 27,4 km/h (4 Bft) 100,00 %
23.05.2016 18:51 9,4 C 89 % 1008,9 hPa 0,0 l/m 18,5 km/h (3 Bft) SW 216 0 min 0,000 mm 0,0 UV-I 44 W/m 7,7 C 3,0 C 27,4 km/h (4 Bft) 100,00 %
23.05.2016 18:52 9,4 C 89 % 1008,9 hPa 0,0 l/m 24,8 km/h (4 Bft) W 267 0 min 0,000 mm 0,0 UV-I 39 W/m 7,7 C 1,1 C 32,2 km/h (5 Bft) 100,00 %
23.05.2016 18:53 9,4 C 89 % 1008,9 hPa 0,0 l/m 26,0 km/h (4 Bft) SW 232 0 min 0,000 mm 0,0 UV-I 32 W/m 7,7 C 0,8 C 32,2 km/h (5 Bft) 100,00 %
23.05.2016 18:54 9,4 C 89 % 1008,9 hPa 0,0 l/m 19,3 km/h (3 Bft) SW 228 0 min 0,000 mm 0,0 UV-I 28 W/m 7,7 C 2,7 C 22,5 km/h (4 Bft) 100,00 %
23.05.2016 18:55 9,3 C 89 % 1008,9 hPa 0,0 l/m 25,5 km/h (4 Bft) SW 226 0 min 0,000 mm 0,0 UV-I 26 W/m 7,6 C 0,8 C 32,2 km/h (5 Bft) 100,00 %
23.05.2016 18:56 9,4 C 89 % 1008,8 hPa 0,0 l/m 23,0 km/h (4 Bft) W-SW 249 0 min 0,000 mm 0,0 UV-I 24 W/m 7,7 C 1,6 C 27,4 km/h (4 Bft) 100,00 %
23.05.2016 18:57 9,3 C 89 % 1008,9 hPa 0,0 l/m 23,5 km/h (4 Bft) W-SW 246 0 min 0,000 mm 0,0 UV-I 22 W/m 7,6 C 1,3 C 35,4 km/h (5 Bft) 100,00 %
23.05.2016 18:58 9,4 C 89 % 1008,9 hPa 0,0 l/m 20,7 km/h (4 Bft) SW 227 0 min 0,000 mm 0,0 UV-I 21 W/m 7,7 C 2,3 C 27,4 km/h (4 Bft) 100,00 %
23.05.2016 18:59 9,4 C 89 % 1008,9 hPa 0,0 l/m 17,0 km/h (3 Bft) SW 226 0 min 0,000 mm 0,0 UV-I 22 W/m 7,7 C 3,6 C 22,5 km/h (4 Bft) 96,88 %
23.05.2016 19:00 9,3 C 89 % 1008,9 hPa 0,0 l/m 21,7 km/h (4 Bft) SW 233 0 min 0,000 mm 0,0 UV-I 23 W/m 7,6 C 1,8 C 35,4 km/h (5 Bft) 100,00 %
23.05.2016 19:02 9,3 C 89 % 1008,9 hPa 0,0 l/m 21,6 km/h (4 Bft) W-SW 251 0 min 0,051 mm 0,0 UV-I 23 W/m 7,6 C 1,9 C 32,2 km/h (5 Bft) 98,11 %
23.05.2016 19:03 9,3 C 89 % 1008,9 hPa 0,0 l/m 16,8 km/h (3 Bft) SW 220 0 min 0,000 mm 0,0 UV-I 23 W/m 7,6 C 3,5 C 24,1 km/h (4 Bft) 100,00 %
23.05.2016 19:04 9,3 C 89 % 1008,9 hPa 0,0 l/m 18,7 km/h (3 Bft) SW 225 0 min 0,000 mm 0,0 UV-I 23 W/m 7,6 C 2,8 C 30,6 km/h (5 Bft) 100,00 %
23.05.2016 19:05 9,3 C 88 % 1008,9 hPa 0,0 l/m 20,3 km/h (4 Bft) SW 236 0 min 0,000 mm 0,0 UV-I 23 W/m 7,4 C 2,3 C 27,4 km/h (4 Bft) 100,00 %
23.05.2016 19:06 9,3 C 88 % 1008,9 hPa 0,0 l/m 20,8 km/h (4 Bft) SW 217 0 min 0,000 mm 0,0 UV-I 23 W/m 7,4 C 2,1 C 30,6 km/h (5 Bft) 100,00 %
23.05.2016 19:07 9,3 C 89 % 1009,0 hPa 0,0 l/m 22,4 km/h (4 Bft) SW 216 0 min 0,000 mm 0,0 UV-I 24 W/m 7,6 C 1,6 C 30,6 km/h (5 Bft) 95,65 %
23.05.2016 19:08 9,3 C 89 % 1008,8 hPa 0,0 l/m 20,8 km/h (4 Bft) W-SW 238 0 min 0,000 mm 0,0 UV-I 25 W/m 7,6 C 2,1 C 30,6 km/h (5 Bft) 100,00 %
23.05.2016 19:09 9,3 C 88 % 1008,8 hPa 0,0 l/m 26,7 km/h (4 Bft) W-SW 250 0 min 0,000 mm 0,0 UV-I 26 W/m 7,4 C 0,4 C 33,8 km/h (5 Bft) 100,00 %
23.05.2016 19:10 9,3 C 88 % 1008,7 hPa 0,0 l/m 19,0 km/h (3 Bft) W-SW 249 0 min 0,000 mm 0,0 UV-I 26 W/m 7,4 C 2,7 C 24,1 km/h (4 Bft) 100,00 %
23.05.2016 19:11 9,3 C 88 % 1008,7 hPa 0,0 l/m 20,5 km/h (4 Bft) W 271 0 min 0,000 mm 0,0 UV-I 28 W/m 7,4 C 2,2 C 25,7 km/h (4 Bft) 100,00 %
23.05.2016 19:12 9,2 C 88 % 1008,7 hPa 0,0 l/m 16,9 km/h (3 Bft) W 276 0 min 0,000 mm 0,0 UV-I 28 W/m 7,3 C 3,4 C 24,1 km/h (4 Bft) 100,00 %
23.05.2016 19:13 9,2 C 89 % 1008,7 hPa 0,0 l/m 23,1 km/h (4 Bft) W-SW 240 0 min 0,000 mm 0,0 UV-I 28 W/m 7,5 C 1,3 C 35,4 km/h (5 Bft) 100,00 %
23.05.2016 19:14 9,2 C 88 % 1008,8 hPa 0,0 l/m 24,0 km/h (4 Bft) SW 215 0 min 0,000 mm 0,0 UV-I 28 W/m 7,3 C 1,0 C 35,4 km/h (5 Bft) 100,00 %
23.05.2016 19:15 9,2 C 89 % 1008,8 hPa 0,0 l/m 22,0 km/h (4 Bft) W-SW 247 0 min 0,000 mm 0,0 UV-I 27 W/m 7,5 C 1,6 C 29,0 km/h (5 Bft) 100,00 %
23.05.2016 19:16 9,2 C 89 % 1008,9 hPa 0,0 l/m 20,9 km/h (4 Bft) SW 236 0 min 0,000 mm 0,0 UV-I 25 W/m 7,5 C 2,0 C 27,4 km/h (4 Bft) 100,00 %
23.05.2016 19:17 9,2 C 88 % 1008,9 hPa 0,0 l/m 20,8 km/h (4 Bft) W-SW 248 0 min 0,000 mm 0,0 UV-I 25 W/m 7,3 C 2,0 C 32,2 km/h (5 Bft) 100,00 %
23.05.2016 19:18 9,2 C 88 % 1009,0 hPa 0,0 l/m 21,9 km/h (4 Bft) W 261 0 min 0,000 mm 0,0 UV-I 25 W/m 7,3 C 1,6 C 29,0 km/h (5 Bft) 100,00 %
23.05.2016 19:19 9,2 C 89 % 1009,0 hPa 0,0 l/m 26,6 km/h (4 Bft) W-SW 238 0 min 0,000 mm 0,0 UV-I 26 W/m 7,5 C 0,3 C 38,6 km/h (5 Bft) 100,00 %
23.05.2016 19:20 9,2 C 88 % 1008,9 hPa 0,0 l/m 17,3 km/h (3 Bft) SW 228 0 min 0,000 mm 0,0 UV-I 26 W/m 7,3 C 3,2 C 24,1 km/h (4 Bft) 100,00 %
23.05.2016 19:21 9,2 C 88 % 1008,9 hPa 0,0 l/m 26,4 km/h (4 Bft) W-SW 244 0 min 0,000 mm 0,0 UV-I 27 W/m 7,3 C 0,4 C 35,4 km/h (5 Bft) 100,00 %
23.05.2016 19:22 9,2 C 89 % 1008,9 hPa 0,0 l/m 21,2 km/h (4 Bft) W-SW 244 0 min 0,000 mm 0,0 UV-I 28 W/m 7,5 C 1,9 C 32,2 km/h (5 Bft) 100,00 %
23.05.2016 19:23 9,1 C 89 % 1009,0 hPa 0,0 l/m 19,5 km/h (3 Bft) W-SW 246 0 min 0,000 mm 0,0 UV-I 30 W/m 7,4 C 2,3 C 27,4 km/h (4 Bft) 92,59 %
23.05.2016 19:24 9,2 C 89 % 1009,1 hPa 0,0 l/m 23,6 km/h (4 Bft) SW 219 0 min 0,000 mm 0,0 UV-I 30 W/m 7,5 C 1,1 C 30,6 km/h (5 Bft) 94,12 %
23.05.2016 19:25 9,1 C 89 % 1009,1 hPa 0,0 l/m 21,3 km/h (4 Bft) W-SW 258 0 min 0,000 mm 0,0 UV-I 28 W/m 7,4 C 1,7 C 29,0 km/h (5 Bft) 96,30 %
23.05.2016 19:26 9,1 C 89 % 1009,1 hPa 0,0 l/m 18,9 km/h (3 Bft) W-SW 256 0 min 0,000 mm 0,0 UV-I 27 W/m 7,4 C 2,5 C 25,7 km/h (4 Bft) 100,00 %
23.05.2016 19:27 9,1 C 89 % 1009,2 hPa 0,0 l/m 19,3 km/h (3 Bft) SW 232 0 min 0,000 mm 0,0 UV-I 26 W/m 7,4 C 2,4 C 29,0 km/h (5 Bft) 96,15 %
23.05.2016 19:28 9,1 C 88 % 1009,2 hPa 0,0 l/m 19,5 km/h (3 Bft) SW 234 0 min 0,000 mm 0,0 UV-I 27 W/m 7,2 C 2,3 C 25,7 km/h (4 Bft) 100,00 %
23.05.2016 19:29 9,1 C 89 % 1009,2 hPa 0,0 l/m 21,1 km/h (4 Bft) W-SW 248 0 min 0,000 mm 0,0 UV-I 28 W/m 7,4 C 1,8 C 37,0 km/h (5 Bft) 96,30 %
23.05.2016 19:30 9,1 C 88 % 1009,2 hPa 0,0 l/m 20,3 km/h (4 Bft) SW 218 0 min 0,000 mm 0,0 UV-I 28 W/m 7,2 C 2,0 C 27,4 km/h (4 Bft) 100,00 %
23.05.2016 19:31 9,1 C 88 % 1009,1 hPa 0,0 l/m 16,6 km/h (3 Bft) S-SW 208 0 min 0,000 mm 0,0 UV-I 27 W/m 7,2 C 3,4 C 20,9 km/h (4 Bft) 96,30 %
23.05.2016 19:32 9,1 C 88 % 1009,2 hPa 0,0 l/m 17,4 km/h (3 Bft) W 265 0 min 0,000 mm 0,0 UV-I 26 W/m 7,2 C 3,1 C 24,1 km/h (4 Bft) 95,65 %
23.05.2016 19:33 9,1 C 89 % 1009,1 hPa 0,0 l/m 21,7 km/h (4 Bft) W-SW 257 0 min 0,000 mm 0,0 UV-I 25 W/m 7,4 C 1,6 C 29,0 km/h (5 Bft) 100,00 %
23.05.2016 19:34 9,1 C 88 % 1009,2 hPa 0,0 l/m 19,9 km/h (4 Bft) W 259 0 min 0,000 mm 0,0 UV-I 23 W/m 7,2 C 2,2 C 25,7 km/h (4 Bft) 98,63 %
23.05.2016 19:35 9,1 C 89 % 1009,1 hPa 0,0 l/m 20,7 km/h (4 Bft) W 261 0 min 0,000 mm 0,0 UV-I 21 W/m 7,4 C 1,9 C 30,6 km/h (5 Bft) 93,62 %
23.05.2016 19:36 9,1 C 89 % 1009,2 hPa 0,0 l/m 21,5 km/h (4 Bft) SW 230 0 min 0,000 mm 0,0 UV-I 21 W/m 7,4 C 1,6 C 27,4 km/h (4 Bft) 91,67 %
23.05.2016 19:37 9,1 C 89 % 1009,2 hPa 0,0 l/m 19,6 km/h (3 Bft) W-SW 238 0 min 0,000 mm 0,0 UV-I 19 W/m 7,4 C 2,3 C 29,0 km/h (5 Bft) 100,00 %
23.05.2016 19:38 9,1 C 89 % 1009,2 hPa 0,0 l/m 24,8 km/h (4 Bft) W-SW 240 0 min 0,000 mm 0,0 UV-I 19 W/m 7,4 C 0,7 C 32,2 km/h (5 Bft) 91,67 %
23.05.2016 19:39 9,1 C 89 % 1009,2 hPa 0,0 l/m 25,7 km/h (4 Bft) W-SW 248 0 min 0,000 mm 0,0 UV-I 18 W/m 7,4 C 0,4 C 37,0 km/h (5 Bft) 100,00 %
23.05.2016 19:40 9,1 C 88 % 1009,2 hPa 0,0 l/m 22,2 km/h (4 Bft) SW 229 0 min 0,000 mm 0,0 UV-I 18 W/m 7,2 C 1,4 C 30,6 km/h (5 Bft) 96,30 %
23.05.2016 19:41 9,1 C 88 % 1009,2 hPa 0,0 l/m 21,2 km/h (4 Bft) W-SW 241 0 min 0,000 mm 0,0 UV-I 18 W/m 7,2 C 1,7 C 30,6 km/h (5 Bft) 96,15 %
23.05.2016 19:42 9,1 C 88 % 1009,2 hPa 0,0 l/m 24,0 km/h (4 Bft) W-SW 255 0 min 0,000 mm 0,0 UV-I 17 W/m 7,2 C 0,9 C 35,4 km/h (5 Bft) 100,00 %
23.05.2016 19:43 9,1 C 88 % 1009,3 hPa 0,0 l/m 21,2 km/h (4 Bft) W-SW 257 0 min 0,000 mm 0,0 UV-I 16 W/m 7,2 C 1,7 C 27,4 km/h (4 Bft) 96,15 %
23.05.2016 19:44 9,1 C 88 % 1009,3 hPa 0,0 l/m 19,1 km/h (3 Bft) W 259 0 min 0,000 mm 0,0 UV-I 15 W/m 7,2 C 2,4 C 22,5 km/h (4 Bft) 96,30 %
23.05.2016 19:45 9,1 C 88 % 1009,4 hPa 0,0 l/m 22,5 km/h (4 Bft) W-SW 254 0 min 0,000 mm 0,0 UV-I 14 W/m 7,2 C 1,3 C 27,4 km/h (4 Bft) 95,65 %
23.05.2016 19:46 9,1 C 88 % 1009,5 hPa 0,0 l/m 22,1 km/h (4 Bft) SW 232 0 min 0,000 mm 0,0 UV-I 12 W/m 7,2 C 1,4 C 32,2 km/h (5 Bft) 100,00 %
23.05.2016 19:47 9,1 C 88 % 1009,6 hPa 0,0 l/m 25,7 km/h (4 Bft) SW 221 0 min 0,000 mm 0,0 UV-I 12 W/m 7,2 C 0,4 C 37,0 km/h (5 Bft) 95,65 %
23.05.2016 19:48 9,1 C 87 % 1009,7 hPa 0,0 l/m 18,8 km/h (3 Bft) W-SW 244 0 min 0,000 mm 0,0 UV-I 11 W/m 7,1 C 2,5 C 25,7 km/h (4 Bft) 96,30 %
23.05.2016 19:49 9,1 C 88 % 1009,6 hPa 0,0 l/m 17,4 km/h (3 Bft) W-SW 247 0 min 0,000 mm 0,0 UV-I 10 W/m 7,2 C 3,1 C 20,9 km/h (4 Bft) 100,00 %
23.05.2016 19:50 9,1 C 88 % 1009,7 hPa 0,0 l/m 17,7 km/h (3 Bft) W-SW 246 0 min 0,000 mm 0,0 UV-I 9 W/m 7,2 C 2,9 C 24,1 km/h (4 Bft) 92,59 %
23.05.2016 19:51 9,1 C 88 % 1009,7 hPa 0,0 l/m 22,5 km/h (4 Bft) SW 232 0 min 0,000 mm 0,0 UV-I 9 W/m 7,2 C 1,3 C 32,2 km/h (5 Bft) 100,00 %
23.05.2016 19:52 9,1 C 88 % 1009,7 hPa 0,0 l/m 15,4 km/h (3 Bft) S-SW 210 0 min 0,000 mm 0,0 UV-I 9 W/m 7,2 C 3,9 C 22,5 km/h (4 Bft) 93,33 %
23.05.2016 19:53 9,1 C 88 % 1009,7 hPa 0,0 l/m 16,5 km/h (3 Bft) W-SW 237 0 min 0,000 mm 0,0 UV-I 9 W/m 7,2 C 3,4 C 24,1 km/h (4 Bft) 100,00 %
23.05.2016 19:54 9,1 C 88 % 1009,7 hPa 0,0 l/m 22,3 km/h (4 Bft) W 260 0 min 0,000 mm 0,0 UV-I 7 W/m 7,2 C 1,4 C 30,6 km/h (5 Bft) 92,31 %
23.05.2016 19:55 9,1 C 87 % 1009,7 hPa 0,0 l/m 14,4 km/h (3 Bft) SW 221 0 min 0,000 mm 0,0 UV-I 7 W/m 7,1 C 4,3 C 24,1 km/h (4 Bft) 96,15 %
23.05.2016 19:56 9,1 C 88 % 1009,8 hPa 0,0 l/m 16,2 km/h (3 Bft) W-SW 252 0 min 0,000 mm 0,0 UV-I 7 W/m 7,2 C 3,5 C 25,7 km/h (4 Bft) 93,33 %
23.05.2016 19:57 9,1 C 88 % 1009,7 hPa 0,0 l/m 16,5 km/h (3 Bft) W-SW 242 0 min 0,000 mm 0,0 UV-I 7 W/m 7,2 C 3,4 C 22,5 km/h (4 Bft) 100,00 %
23.05.2016 19:58 9,1 C 88 % 1009,7 hPa 0,0 l/m 18,1 km/h (3 Bft) W-SW 253 0 min 0,000 mm 0,0 UV-I 7 W/m 7,2 C 2,8 C 24,1 km/h (4 Bft) 93,10 %
23.05.2016 19:59 9,1 C 88 % 1009,7 hPa 0,0 l/m 18,1 km/h (3 Bft) W 278 0 min 0,000 mm 0,0 UV-I 7 W/m 7,2 C 2,8 C 22,5 km/h (4 Bft) 93,33 %
23.05.2016 20:00 9,1 C 88 % 1009,6 hPa 0,0 l/m 17,7 km/h (3 Bft) W-SW 257 0 min 0,000 mm 0,0 UV-I 7 W/m 7,2 C 2,9 C 29,0 km/h (5 Bft) 100,00 %
23.05.2016 20:02 9,1 C 88 % 1009,7 hPa 0,0 l/m 17,5 km/h (3 Bft) W-SW 244 0 min 0,026 mm 0,0 UV-I 7 W/m 7,2 C 3,0 C 27,4 km/h (4 Bft) 98,11 %
23.05.2016 20:03 9,1 C 88 % 1009,7 hPa 0,0 l/m 13,0 km/h (3 Bft) W 262 0 min 0,000 mm 0,0 UV-I 7 W/m 7,2 C 5,0 C 20,9 km/h (4 Bft) 96,30 %
23.05.2016 20:04 9,1 C 88 % 1009,6 hPa 0,0 l/m 16,3 km/h (3 Bft) W-SW 247 0 min 0,000 mm 0,0 UV-I 5 W/m 7,2 C 3,5 C 20,9 km/h (4 Bft) 98,57 %
23.05.2016 20:05 9,1 C 89 % 1009,7 hPa 0,0 l/m 18,5 km/h (3 Bft) W 261 0 min 0,000 mm 0,0 UV-I 5 W/m 7,4 C 2,7 C 30,6 km/h (5 Bft) 97,73 %
23.05.2016 20:06 9,1 C 89 % 1009,7 hPa 0,0 l/m 16,8 km/h (3 Bft) W 260 0 min 0,000 mm 0,0 UV-I 5 W/m 7,4 C 3,3 C 24,1 km/h (4 Bft) 100,00 %
23.05.2016 20:07 9,1 C 89 % 1009,7 hPa 0,0 l/m 17,2 km/h (3 Bft) W-SW 254 0 min 0,000 mm 0,0 UV-I 5 W/m 7,4 C 3,1 C 25,7 km/h (4 Bft) 100,00 %
23.05.2016 20:08 9,1 C 88 % 1009,6 hPa 0,0 l/m 18,3 km/h (3 Bft) SW 234 0 min 0,000 mm 0,0 UV-I 5 W/m 7,2 C 2,7 C 24,1 km/h (4 Bft) 100,00 %
23.05.2016 20:09 9,1 C 88 % 1009,6 hPa 0,0 l/m 15,1 km/h (3 Bft) W-SW 244 0 min 0,000 mm 0,0 UV-I 5 W/m 7,2 C 4,0 C 20,9 km/h (4 Bft) 100,00 %
23.05.2016 20:10 9,1 C 88 % 1009,7 hPa 0,0 l/m 18,7 km/h (3 Bft) SW 223 0 min 0,000 mm 0,0 UV-I 5 W/m 7,2 C 2,6 C 25,7 km/h (4 Bft) 100,00 %
23.05.2016 20:11 9,1 C 88 % 1009,6 hPa 0,0 l/m 16,0 km/h (3 Bft) W 269 0 min 0,000 mm 0,0 UV-I 5 W/m 7,2 C 3,6 C 20,9 km/h (4 Bft) 100,00 %
23.05.2016 20:12 9,1 C 88 % 1009,6 hPa 0,0 l/m 17,3 km/h (3 Bft) W 259 0 min 0,000 mm 0,0 UV-I 5 W/m 7,2 C 3,1 C 24,1 km/h (4 Bft) 100,00 %
23.05.2016 20:13 9,1 C 88 % 1009,6 hPa 0,0 l/m 18,8 km/h (3 Bft) SW 236 0 min 0,000 mm 0,0 UV-I 5 W/m 7,2 C 2,5 C 24,1 km/h (4 Bft) 100,00 %
23.05.2016 20:14 9,1 C 88 % 1009,6 hPa 0,0 l/m 20,5 km/h (4 Bft) W-SW 252 0 min 0,000 mm 0,0 UV-I 5 W/m 7,2 C 2,0 C 29,0 km/h (5 Bft) 100,00 %
23.05.2016 20:15 9,1 C 88 % 1009,6 hPa 0,0 l/m 16,6 km/h (3 Bft) W-SW 248 0 min 0,000 mm 0,0 UV-I 5 W/m 7,2 C 3,4 C 22,5 km/h (4 Bft) 100,00 %
23.05.2016 20:16 9,1 C 88 % 1009,5 hPa 0,0 l/m 18,6 km/h (3 Bft) W-SW 240 0 min 0,000 mm 0,0 UV-I 1 W/m 7,2 C 2,6 C 24,1 km/h (4 Bft) 100,00 %
23.05.2016 20:17 9,1 C 88 % 1009,7 hPa 0,0 l/m 21,9 km/h (4 Bft) W-SW 245 0 min 0,000 mm 0,0 UV-I 0 W/m 7,2 C 1,5 C 27,4 km/h (4 Bft) 100,00 %
23.05.2016 20:18 9,1 C 88 % 1009,6 hPa 0,0 l/m 15,6 km/h (3 Bft) W-SW 257 0 min 0,000 mm 0,0 UV-I 0 W/m 7,2 C 3,8 C 20,9 km/h (4 Bft) 96,67 %
23.05.2016 20:19 9,1 C 88 % 1009,7 hPa 0,0 l/m 15,2 km/h (3 Bft) W-SW 248 0 min 0,000 mm 0,0 UV-I 0 W/m 7,2 C 4,0 C 20,9 km/h (4 Bft) 100,00 %
23.05.2016 20:20 9,1 C 89 % 1009,7 hPa 0,0 l/m 15,6 km/h (3 Bft) W 262 0 min 0,000 mm 0,0 UV-I 0 W/m 7,4 C 3,8 C 22,5 km/h (4 Bft) 100,00 %
23.05.2016 20:21 9,1 C 89 % 1009,8 hPa 0,0 l/m 18,7 km/h (3 Bft) W-SW 246 0 min 0,000 mm 0,0 UV-I 0 W/m 7,4 C 2,6 C 25,7 km/h (4 Bft) 100,00 %
23.05.2016 20:22 9,1 C 89 % 1009,8 hPa 0,0 l/m 16,0 km/h (3 Bft) W 264 0 min 0,000 mm 0,0 UV-I 0 W/m 7,4 C 3,6 C 20,9 km/h (4 Bft) 100,00 %
23.05.2016 20:23 9,1 C 89 % 1009,8 hPa 0,0 l/m 13,6 km/h (3 Bft) SW 234 0 min 0,000 mm 0,0 UV-I 0 W/m 7,4 C 4,7 C 20,9 km/h (4 Bft) 100,00 %
23.05.2016 20:24 9,1 C 89 % 1009,8 hPa 0,0 l/m 12,0 km/h (2 Bft) SW 233 0 min 0,000 mm 0,0 UV-I 0 W/m 7,4 C 5,5 C 17,7 km/h (3 Bft) 100,00 %
23.05.2016 20:25 9,1 C 89 % 1009,9 hPa 0,0 l/m 16,3 km/h (3 Bft) W 261 0 min 0,000 mm 0,0 UV-I 0 W/m 7,4 C 3,5 C 20,9 km/h (4 Bft) 100,00 %
23.05.2016 20:26 9,1 C 90 % 1010,0 hPa 0,0 l/m 9,2 km/h (2 Bft) SW 217 0 min 0,000 mm 0,0 UV-I 0 W/m 7,5 C 7,1 C 14,5 km/h (3 Bft) 100,00 %
23.05.2016 20:27 9,1 C 90 % 1010,0 hPa 0,0 l/m 15,2 km/h (3 Bft) S-SW 209 0 min 0,000 mm 0,0 UV-I 0 W/m 7,5 C 4,0 C 19,3 km/h (3 Bft) 100,00 %
23.05.2016 20:28 9,0 C 90 % 1010,1 hPa 0,0 l/m 14,5 km/h (3 Bft) SW 231 0 min 0,000 mm 0,0 UV-I 0 W/m 7,4 C 4,1 C 19,3 km/h (3 Bft) 100,00 %
23.05.2016 20:29 9,0 C 89 % 1010,1 hPa 0,0 l/m 14,9 km/h (3 Bft) SW 236 0 min 0,000 mm 0,0 UV-I 0 W/m 7,3 C 4,0 C 22,5 km/h (4 Bft) 100,00 %
23.05.2016 20:30 9,0 C 89 % 1010,1 hPa 0,0 l/m 11,4 km/h (2 Bft) SW 225 0 min 0,000 mm 0,0 UV-I 0 W/m 7,3 C 5,7 C 16,1 km/h (3 Bft) 100,00 %
23.05.2016 20:31 9,0 C 90 % 1010,1 hPa 0,0 l/m 14,4 km/h (3 Bft) SW 236 0 min 0,000 mm 0,0 UV-I 0 W/m 7,4 C 4,2 C 19,3 km/h (3 Bft) 100,00 %
23.05.2016 20:32 9,0 C 90 % 1010,2 hPa 0,0 l/m 21,9 km/h (4 Bft) SW 224 0 min 0,000 mm 0,0 UV-I 0 W/m 7,4 C 1,4 C 33,8 km/h (5 Bft) 100,00 %
23.05.2016 20:33 9,0 C 90 % 1010,1 hPa 0,0 l/m 14,6 km/h (3 Bft) S-SW 205 0 min 0,000 mm 0,0 UV-I 0 W/m 7,4 C 4,1 C 25,7 km/h (4 Bft) 100,00 %
23.05.2016 20:34 9,0 C 90 % 1010,1 hPa 0,0 l/m 20,3 km/h (4 Bft) SW 225 0 min 0,000 mm 0,0 UV-I 0 W/m 7,4 C 1,9 C 32,2 km/h (5 Bft) 100,00 %
23.05.2016 20:35 8,9 C 90 % 1010,1 hPa 0,0 l/m 18,3 km/h (3 Bft) SW 233 0 min 0,000 mm 0,0 UV-I 0 W/m 7,4 C 2,5 C 24,1 km/h (4 Bft) 100,00 %
23.05.2016 20:36 8,9 C 90 % 1010,0 hPa 0,0 l/m 22,3 km/h (4 Bft) S-SO 153 0 min 0,000 mm 0,0 UV-I 0 W/m 7,4 C 1,1 C 30,6 km/h (5 Bft) 100,00 %
23.05.2016 20:37 8,9 C 90 % 1010,0 hPa 0,0 l/m 22,1 km/h (4 Bft) W-SW 245 0 min 0,000 mm 0,0 UV-I 0 W/m 7,4 C 1,2 C 32,2 km/h (5 Bft) 100,00 %
23.05.2016 20:38 8,9 C 90 % 1010,0 hPa 0,0 l/m 28,2 km/h (4 Bft) W 259 0 min 0,000 mm 0,0 UV-I 0 W/m 7,4 C -0,5 C 35,4 km/h (5 Bft) 100,00 %
23.05.2016 20:39 8,8 C 90 % 1009,8 hPa 0,0 l/m 16,7 km/h (3 Bft) SW 219 0 min 0,000 mm 0,0 UV-I 0 W/m 7,3 C 3,0 C 20,9 km/h (4 Bft) 100,00 %
23.05.2016 20:40 8,8 C 90 % 1009,8 hPa 0,0 l/m 15,4 km/h (3 Bft) W 268 0 min 0,000 mm 0,0 UV-I 0 W/m 7,3 C 3,5 C 24,1 km/h (4 Bft) 96,55 %
23.05.2016 20:41 8,8 C 90 % 1009,8 hPa 0,0 l/m 20,5 km/h (4 Bft) W-SW 254 0 min 0,000 mm 0,0 UV-I 0 W/m 7,3 C 1,6 C 29,0 km/h (5 Bft) 100,00 %
23.05.2016 20:42 8,8 C 90 % 1009,7 hPa 0,0 l/m 20,1 km/h (4 Bft) SW 233 0 min 0,000 mm 0,0 UV-I 0 W/m 7,3 C 1,7 C 24,1 km/h (4 Bft) 100,00 %
23.05.2016 20:43 8,7 C 91 % 1009,8 hPa 0,0 l/m 17,2 km/h (3 Bft) SW 223 0 min 0,000 mm 0,0 UV-I 0 W/m 7,3 C 2,6 C 22,5 km/h (4 Bft) 95,83 %
23.05.2016 20:44 8,7 C 91 % 1009,7 hPa 0,0 l/m 15,8 km/h (3 Bft) SW 216 0 min 0,000 mm 0,0 UV-I 0 W/m 7,3 C 3,2 C 24,1 km/h (4 Bft) 100,00 %
23.05.2016 20:45 8,7 C 91 % 1009,7 hPa 0,0 l/m 19,9 km/h (4 Bft) W-SW 240 0 min 0,000 mm 0,0 UV-I 0 W/m 7,3 C 1,6 C 32,2 km/h (5 Bft) 100,00 %
23.05.2016 20:46 8,6 C 91 % 1009,7 hPa 0,0 l/m 22,5 km/h (4 Bft) SW 234 0 min 0,000 mm 0,0 UV-I 0 W/m 7,2 C 0,7 C 30,6 km/h (5 Bft) 97,37 %
23.05.2016 20:47 8,6 C 91 % 1009,7 hPa 0,0 l/m 25,1 km/h (4 Bft) W-SW 244 0 min 0,000 mm 0,0 UV-I 0 W/m 7,2 C -0,1 C 33,8 km/h (5 Bft) 100,00 %
23.05.2016 20:48 8,6 C 91 % 1009,7 hPa 0,0 l/m 17,1 km/h (3 Bft) S-SW 204 0 min 0,000 mm 0,0 UV-I 0 W/m 7,2 C 2,6 C 24,1 km/h (4 Bft) 100,00 %
23.05.2016 20:49 8,6 C 91 % 1009,7 hPa 0,0 l/m 19,7 km/h (3 Bft) W-SW 243 0 min 0,000 mm 0,0 UV-I 0 W/m 7,2 C 1,6 C 27,4 km/h (4 Bft) 100,00 %
23.05.2016 20:50 8,5 C 91 % 1009,7 hPa 0,0 l/m 14,7 km/h (3 Bft) W 259 0 min 0,000 mm 0,0 UV-I 0 W/m 7,1 C 3,5 C 22,5 km/h (4 Bft) 100,00 %
23.05.2016 20:51 8,5 C 92 % 1009,7 hPa 0,0 l/m 18,7 km/h (3 Bft) W 270 0 min 0,000 mm 0,0 UV-I 0 W/m 7,3 C 1,8 C 25,7 km/h (4 Bft) 96,15 %
23.05.2016 20:52 8,4 C 92 % 1009,8 hPa 0,0 l/m 21,5 km/h (4 Bft) SW 221 0 min 0,000 mm 0,0 UV-I 0 W/m 7,2 C 0,7 C 27,4 km/h (4 Bft) 96,15 %
23.05.2016 20:53 8,4 C 92 % 1009,8 hPa 0,0 l/m 21,2 km/h (4 Bft) SW 219 0 min 0,000 mm 0,0 UV-I 0 W/m 7,2 C 0,8 C 33,8 km/h (5 Bft) 100,00 %
23.05.2016 20:54 8,4 C 92 % 1009,8 hPa 0,0 l/m 27,6 km/h (4 Bft) W 260 0 min 0,000 mm 0,0 UV-I 0 W/m 7,2 C -1,0 C 33,8 km/h (5 Bft) 100,00 %
23.05.2016 20:55 8,4 C 92 % 1009,8 hPa 0,0 l/m 17,2 km/h (3 Bft) W-SW 251 0 min 0,000 mm 0,0 UV-I 0 W/m 7,2 C 2,3 C 20,9 km/h (4 Bft) 100,00 %
23.05.2016 20:56 8,4 C 92 % 1009,8 hPa 0,0 l/m 19,7 km/h (3 Bft) W-SW 257 0 min 0,000 mm 0,0 UV-I 0 W/m 7,2 C 1,3 C 27,4 km/h (4 Bft) 100,00 %
23.05.2016 20:57 8,4 C 92 % 1009,8 hPa 0,0 l/m 22,8 km/h (4 Bft) W-SW 252 0 min 0,000 mm 0,0 UV-I 0 W/m 7,2 C 0,3 C 41,8 km/h (6 Bft) 95,65 %
23.05.2016 20:58 8,4 C 92 % 1009,9 hPa 0,0 l/m 26,0 km/h (4 Bft) W-SW 257 0 min 0,000 mm 0,0 UV-I 0 W/m 7,2 C -0,6 C 32,2 km/h (5 Bft) 100,00 %
23.05.2016 20:59 8,4 C 92 % 1009,9 hPa 0,0 l/m 20,8 km/h (4 Bft) W-SW 251 0 min 0,000 mm 0,0 UV-I 0 W/m 7,2 C 0,9 C 30,6 km/h (5 Bft) 100,00 %
23.05.2016 21:00 8,3 C 92 % 1009,9 hPa 0,0 l/m 20,8 km/h (4 Bft) W-SW 240 0 min 0,000 mm 0,0 UV-I 0 W/m 7,1 C 0,8 C 29,0 km/h (5 Bft) 100,00 %
23.05.2016 21:02 8,3 C 92 % 1009,9 hPa 0,0 l/m 18,0 km/h (3 Bft) SW 227 0 min 0,025 mm 0,0 UV-I 0 W/m 7,1 C 1,8 C 24,1 km/h (4 Bft) 100,00 %
23.05.2016 21:03 8,3 C 92 % 1010,0 hPa 0,0 l/m 23,3 km/h (4 Bft) SW 234 0 min 0,000 mm 0,0 UV-I 0 W/m 7,1 C 0,0 C 32,2 km/h (5 Bft) 100,00 %
23.05.2016 21:04 8,3 C 92 % 1010,0 hPa 0,0 l/m 20,4 km/h (4 Bft) W 271 0 min 0,000 mm 0,0 UV-I 0 W/m 7,1 C 1,0 C 29,0 km/h (5 Bft) 100,00 %
23.05.2016 21:05 8,3 C 92 % 1010,1 hPa 0,0 l/m 16,6 km/h (3 Bft) SW 220 0 min 0,000 mm 0,0 UV-I 0 W/m 7,1 C 2,4 C 20,9 km/h (4 Bft) 100,00 %
23.05.2016 21:06 8,3 C 93 % 1010,2 hPa 0,0 l/m 14,0 km/h (3 Bft) SW 234 0 min 0,000 mm 0,0 UV-I 0 W/m 7,2 C 3,5 C 17,7 km/h (3 Bft) 100,00 %
23.05.2016 21:07 8,3 C 93 % 1010,2 hPa 0,0 l/m 16,5 km/h (3 Bft) W 259 0 min 0,000 mm 0,0 UV-I 0 W/m 7,2 C 2,4 C 20,9 km/h (4 Bft) 100,00 %
23.05.2016 21:08 8,3 C 93 % 1010,2 hPa 0,0 l/m 16,9 km/h (3 Bft) W-SW 256 0 min 0,000 mm 0,0 UV-I 0 W/m 7,2 C 2,3 C 25,7 km/h (4 Bft) 100,00 %
23.05.2016 21:09 8,3 C 93 % 1010,2 hPa 0,0 l/m 19,0 km/h (3 Bft) W-SW 250 0 min 0,000 mm 0,0 UV-I 0 W/m 7,2 C 1,4 C 27,4 km/h (4 Bft) 100,00 %
23.05.2016 21:10 8,3 C 93 % 1010,2 hPa 0,0 l/m 21,9 km/h (4 Bft) W-SW 240 0 min 0,000 mm 0,0 UV-I 0 W/m 7,2 C 0,5 C 29,0 km/h (5 Bft) 96,15 %
23.05.2016 21:11 8,3 C 93 % 1010,3 hPa 0,0 l/m 21,5 km/h (4 Bft) SW 232 0 min 0,000 mm 0,0 UV-I 0 W/m 7,2 C 0,6 C 30,6 km/h (5 Bft) 96,15 %
23.05.2016 21:12 8,3 C 93 % 1010,3 hPa 0,2 l/m 20,8 km/h (4 Bft) SW 234 0 min 0,000 mm 0,0 UV-I 0 W/m 7,2 C 0,8 C 33,8 km/h (5 Bft) 100,00 %
23.05.2016 21:13 8,2 C 93 % 1010,2 hPa 0,0 l/m 18,4 km/h (3 Bft) W-SW 248 0 min 0,000 mm 0,0 UV-I 0 W/m 7,1 C 1,5 C 22,5 km/h (4 Bft) 100,00 %
23.05.2016 21:14 8,2 C 93 % 1010,2 hPa 0,0 l/m 15,0 km/h (3 Bft) W-SW 242 0 min 0,000 mm 0,0 UV-I 0 W/m 7,1 C 3,0 C 22,5 km/h (4 Bft) 100,00 %
23.05.2016 21:15 8,2 C 93 % 1010,2 hPa 0,0 l/m 18,3 km/h (3 Bft) W 262 0 min 0,000 mm 0,0 UV-I 0 W/m 7,1 C 1,6 C 25,7 km/h (4 Bft) 100,00 %
23.05.2016 21:16 8,2 C 93 % 1010,3 hPa 0,0 l/m 20,7 km/h (4 Bft) W-SW 240 0 min 0,000 mm 0,0 UV-I 0 W/m 7,1 C 0,7 C 27,4 km/h (4 Bft) 96,55 %
23.05.2016 21:17 8,2 C 93 % 1010,3 hPa 0,0 l/m 22,2 km/h (4 Bft) W-SW 257 0 min 0,000 mm 0,0 UV-I 0 W/m 7,1 C 0,2 C 30,6 km/h (5 Bft) 100,00 %
23.05.2016 21:18 8,2 C 93 % 1010,3 hPa 0,0 l/m 19,4 km/h (3 Bft) S-SW 206 0 min 0,000 mm 0,0 UV-I 0 W/m 7,1 C 1,2 C 30,6 km/h (5 Bft) 100,00 %
23.05.2016 21:19 8,2 C 93 % 1010,4 hPa 0,0 l/m 18,9 km/h (3 Bft) W 259 0 min 0,000 mm 0,0 UV-I 0 W/m 7,1 C 1,4 C 25,7 km/h (4 Bft) 100,00 %
23.05.2016 21:20 8,2 C 93 % 1010,4 hPa 0,0 l/m 22,8 km/h (4 Bft) W-SW 241 0 min 0,000 mm 0,0 UV-I 0 W/m 7,1 C 0,0 C 29,0 km/h (5 Bft) 100,00 %
23.05.2016 21:21 8,2 C 93 % 1010,3 hPa 0,2 l/m 13,7 km/h (3 Bft) W 271 0 min 0,000 mm 0,0 UV-I 0 W/m 7,1 C 3,6 C 19,3 km/h (3 Bft) 100,00 %
23.05.2016 21:22 8,2 C 93 % 1010,3 hPa 0,0 l/m 14,2 km/h (3 Bft) SW 232 0 min 0,000 mm 0,0 UV-I 0 W/m 7,1 C 3,3 C 19,3 km/h (3 Bft) 100,00 %
23.05.2016 21:23 8,2 C 93 % 1010,3 hPa 0,0 l/m 17,6 km/h (3 Bft) W 277 0 min 0,000 mm 0,0 UV-I 0 W/m 7,1 C 1,9 C 24,1 km/h (4 Bft) 100,00 %
23.05.2016 21:24 8,2 C 93 % 1010,4 hPa 0,0 l/m 20,5 km/h (4 Bft) SW 233 0 min 0,000 mm 0,0 UV-I 0 W/m 7,1 C 0,8 C 32,2 km/h (5 Bft) 96,15 %
23.05.2016 21:25 8,2 C 93 % 1010,4 hPa 0,0 l/m 15,9 km/h (3 Bft) SW 219 0 min 0,000 mm 0,0 UV-I 0 W/m 7,1 C 2,6 C 20,9 km/h (4 Bft) 100,00 %
23.05.2016 21:26 8,2 C 93 % 1010,4 hPa 0,0 l/m 15,5 km/h (3 Bft) W-SW 238 0 min 0,000 mm 0,0 UV-I 0 W/m 7,1 C 2,7 C 20,9 km/h (4 Bft) 100,00 %
23.05.2016 21:27 8,2 C 93 % 1010,4 hPa 0,0 l/m 16,7 km/h (3 Bft) W-SW 241 0 min 0,000 mm 0,0 UV-I 0 W/m 7,1 C 2,2 C 27,4 km/h (4 Bft) 100,00 %
23.05.2016 21:28 8,1 C 93 % 1010,4 hPa 0,0 l/m 15,7 km/h (3 Bft) SW 234 0 min 0,000 mm 0,0 UV-I 0 W/m 7,0 C 2,5 C 25,7 km/h (4 Bft) 100,00 %
23.05.2016 21:29 8,1 C 93 % 1010,4 hPa 0,2 l/m 22,1 km/h (4 Bft) S-SW 205 0 min 0,000 mm 0,0 UV-I 0 W/m 7,0 C 0,1 C 32,2 km/h (5 Bft) 95,83 %
23.05.2016 21:30 8,1 C 93 % 1010,4 hPa 0,0 l/m 21,3 km/h (4 Bft) SW 227 0 min 0,000 mm 0,0 UV-I 0 W/m 7,0 C 0,4 C 32,2 km/h (5 Bft) 95,65 %
23.05.2016 21:31 8,1 C 93 % 1010,5 hPa 0,0 l/m 14,2 km/h (3 Bft) SW 216 0 min 0,000 mm 0,0 UV-I 0 W/m 7,0 C 3,2 C 19,3 km/h (3 Bft) 93,33 %
23.05.2016 21:32 8,1 C 93 % 1010,5 hPa 0,0 l/m 15,1 km/h (3 Bft) W 261 0 min 0,000 mm 0,0 UV-I 0 W/m 7,0 C 2,8 C 27,4 km/h (4 Bft) 100,00 %
23.05.2016 21:33 8,1 C 93 % 1010,5 hPa 0,0 l/m 20,8 km/h (4 Bft) SW 233 0 min 0,000 mm 0,0 UV-I 0 W/m 7,0 C 0,6 C 27,4 km/h (4 Bft) 95,65 %
23.05.2016 21:34 8,1 C 93 % 1010,5 hPa 0,0 l/m 15,4 km/h (3 Bft) W-SW 248 0 min 0,000 mm 0,0 UV-I 0 W/m 7,0 C 2,7 C 19,3 km/h (3 Bft) 96,55 %
23.05.2016 21:35 8,1 C 93 % 1010,5 hPa 0,0 l/m 16,9 km/h (3 Bft) SW 234 0 min 0,000 mm 0,0 UV-I 0 W/m 7,0 C 2,0 C 25,7 km/h (4 Bft) 100,00 %
23.05.2016 21:36 8,1 C 93 % 1010,4 hPa 0,0 l/m 18,2 km/h (3 Bft) SW 219 0 min 0,000 mm 0,0 UV-I 0 W/m 7,0 C 1,5 C 24,1 km/h (4 Bft) 92,59 %
23.05.2016 21:37 8,1 C 93 % 1010,4 hPa 0,0 l/m 14,5 km/h (3 Bft) W-SW 244 0 min 0,000 mm 0,0 UV-I 0 W/m 7,0 C 3,1 C 22,5 km/h (4 Bft) 100,00 %
23.05.2016 21:38 8,1 C 93 % 1010,4 hPa 0,0 l/m 18,5 km/h (3 Bft) W 259 0 min 0,000 mm 0,0 UV-I 0 W/m 7,0 C 1,4 C 25,7 km/h (4 Bft) 96,30 %
23.05.2016 21:39 8,1 C 93 % 1010,4 hPa 0,0 l/m 24,7 km/h (4 Bft) W-SW 254 0 min 0,000 mm 0,0 UV-I 0 W/m 7,0 C -0,7 C 32,2 km/h (5 Bft) 100,00 %
23.05.2016 21:40 8,1 C 93 % 1010,4 hPa 0,0 l/m 20,6 km/h (4 Bft) W 261 0 min 0,000 mm 0,0 UV-I 0 W/m 7,0 C 0,6 C 29,0 km/h (5 Bft) 96,67 %
23.05.2016 21:41 8,1 C 93 % 1010,4 hPa 0,0 l/m 19,8 km/h (3 Bft) SW 232 0 min 0,000 mm 0,0 UV-I 0 W/m 7,0 C 0,9 C 25,7 km/h (4 Bft) 96,15 %
23.05.2016 21:42 8,1 C 93 % 1010,5 hPa 0,0 l/m 19,8 km/h (3 Bft) W-SW 242 0 min 0,000 mm 0,0 UV-I 0 W/m 7,0 C 0,9 C 25,7 km/h (4 Bft) 100,00 %
23.05.2016 21:43 8,1 C 93 % 1010,5 hPa 0,0 l/m 18,5 km/h (3 Bft) W-SW 250 0 min 0,000 mm 0,0 UV-I 0 W/m 7,0 C 1,4 C 29,0 km/h (5 Bft) 100,00 %
23.05.2016 21:44 8,1 C 93 % 1010,5 hPa 0,0 l/m 17,3 km/h (3 Bft) W-SW 246 0 min 0,000 mm 0,0 UV-I 0 W/m 7,0 C 1,8 C 22,5 km/h (4 Bft) 96,30 %
23.05.2016 21:45 8,1 C 93 % 1010,5 hPa 0,0 l/m 16,6 km/h (3 Bft) W-SW 252 0 min 0,000 mm 0,0 UV-I 0 W/m 7,0 C 2,1 C 22,5 km/h (4 Bft) 95,65 %
23.05.2016 21:46 8,1 C 93 % 1010,5 hPa 0,0 l/m 16,6 km/h (3 Bft) SW 236 0 min 0,000 mm 0,0 UV-I 0 W/m 7,0 C 2,1 C 22,5 km/h (4 Bft) 100,00 %
23.05.2016 21:47 8,1 C 93 % 1010,5 hPa 0,2 l/m 15,6 km/h (3 Bft) W 276 0 min 0,000 mm 0,0 UV-I 0 W/m 7,0 C 2,6 C 20,9 km/h (4 Bft) 94,12 %
23.05.2016 21:48 8,1 C 94 % 1010,5 hPa 0,0 l/m 16,9 km/h (3 Bft) W 259 0 min 0,000 mm 0,0 UV-I 0 W/m 7,2 C 2,0 C 24,1 km/h (4 Bft) 100,00 %
23.05.2016 21:49 8,0 C 94 % 1010,5 hPa 0,0 l/m 15,6 km/h (3 Bft) W-SW 245 0 min 0,000 mm 0,0 UV-I 0 W/m 7,1 C 2,4 C 20,9 km/h (4 Bft) 93,33 %
23.05.2016 21:50 8,0 C 94 % 1010,5 hPa 0,0 l/m 18,4 km/h (3 Bft) W-SW 245 0 min 0,000 mm 0,0 UV-I 0 W/m 7,1 C 1,3 C 25,7 km/h (4 Bft) 96,55 %
23.05.2016 21:51 8,0 C 94 % 1010,4 hPa 0,0 l/m 20,7 km/h (4 Bft) W-SW 252 0 min 0,000 mm 0,0 UV-I 0 W/m 7,1 C 0,5 C 29,0 km/h (5 Bft) 100,00 %
23.05.2016 21:52 8,0 C 94 % 1010,4 hPa 0,0 l/m 14,7 km/h (3 Bft) W 259 0 min 0,000 mm 0,0 UV-I 0 W/m 7,1 C 2,8 C 19,3 km/h (3 Bft) 96,15 %
23.05.2016 21:53 8,0 C 94 % 1010,3 hPa 0,0 l/m 21,2 km/h (4 Bft) W-SW 244 0 min 0,000 mm 0,0 UV-I 0 W/m 7,1 C 0,3 C 27,4 km/h (4 Bft) 100,00 %
23.05.2016 21:54 8,0 C 94 % 1010,4 hPa 0,0 l/m 15,9 km/h (3 Bft) S 184 0 min 0,000 mm 0,0 UV-I 0 W/m 7,1 C 2,3 C 22,5 km/h (4 Bft) 96,15 %
23.05.2016 21:55 7,9 C 94 % 1010,3 hPa 0,0 l/m 15,9 km/h (3 Bft) W-SW 248 0 min 0,000 mm 0,0 UV-I 0 W/m 7,0 C 2,2 C 19,3 km/h (3 Bft) 100,00 %
23.05.2016 21:56 7,9 C 94 % 1010,3 hPa 0,2 l/m 14,4 km/h (3 Bft) W-SW 258 0 min 0,000 mm 0,0 UV-I 0 W/m 7,0 C 2,9 C 19,3 km/h (3 Bft) 92,31 %
23.05.2016 21:57 7,9 C 94 % 1010,3 hPa 0,0 l/m 14,5 km/h (3 Bft) W-NW 284 0 min 0,000 mm 0,0 UV-I 0 W/m 7,0 C 2,8 C 19,3 km/h (3 Bft) 100,00 %
23.05.2016 21:58 7,9 C 94 % 1010,3 hPa 0,0 l/m 14,8 km/h (3 Bft) W-SW 238 0 min 0,000 mm 0,0 UV-I 0 W/m 7,0 C 2,7 C 20,9 km/h (4 Bft) 96,15 %
23.05.2016 21:59 7,9 C 94 % 1010,3 hPa 0,0 l/m 20,9 km/h (4 Bft) SW 218 0 min 0,000 mm 0,0 UV-I 0 W/m 7,0 C 0,3 C 29,0 km/h (5 Bft) 100,00 %
23.05.2016 22:00 7,9 C 94 % 1010,3 hPa 0,0 l/m 21,3 km/h (4 Bft) W 267 0 min 0,000 mm 0,0 UV-I 0 W/m 7,0 C 0,1 C 29,0 km/h (5 Bft) 96,15 %
23.05.2016 22:02 7,9 C 94 % 1010,2 hPa 0,0 l/m 18,5 km/h (3 Bft) W-SW 240 0 min 0,025 mm 0,0 UV-I 0 W/m 7,0 C 1,1 C 27,4 km/h (4 Bft) 96,00 %
23.05.2016 22:03 7,9 C 94 % 1010,1 hPa 0,0 l/m 15,5 km/h (3 Bft) W-SW 252 0 min 0,000 mm 0,0 UV-I 0 W/m 7,0 C 2,4 C 22,5 km/h (4 Bft) 100,00 %
23.05.2016 22:04 7,9 C 94 % 1010,1 hPa 0,0 l/m 15,8 km/h (3 Bft) W 267 0 min 0,000 mm 0,0 UV-I 0 W/m 7,0 C 2,2 C 24,1 km/h (4 Bft) 100,00 %
23.05.2016 22:05 7,9 C 94 % 1010,1 hPa 0,0 l/m 13,1 km/h (3 Bft) SW 220 0 min 0,000 mm 0,0 UV-I 0 W/m 7,0 C 3,5 C 17,7 km/h (3 Bft) 100,00 %
23.05.2016 22:06 7,9 C 94 % 1010,1 hPa 0,0 l/m 15,9 km/h (3 Bft) W-SW 243 0 min 0,000 mm 0,0 UV-I 0 W/m 7,0 C 2,2 C 20,9 km/h (4 Bft) 100,00 %
23.05.2016 22:07 7,9 C 94 % 1010,2 hPa 0,0 l/m 14,6 km/h (3 Bft) SW 226 0 min 0,000 mm 0,0 UV-I 0 W/m 7,0 C 2,8 C 20,9 km/h (4 Bft) 100,00 %
23.05.2016 22:08 7,9 C 94 % 1010,2 hPa 0,0 l/m 12,5 km/h (3 Bft) SW 225 0 min 0,000 mm 0,0 UV-I 0 W/m 7,0 C 3,8 C 16,1 km/h (3 Bft) 94,12 %
23.05.2016 22:09 7,9 C 94 % 1010,3 hPa 0,0 l/m 12,4 km/h (3 Bft) W-SW 237 0 min 0,000 mm 0,0 UV-I 0 W/m 7,0 C 3,9 C 17,7 km/h (3 Bft) 100,00 %
23.05.2016 22:10 7,9 C 94 % 1010,3 hPa 0,0 l/m 17,1 km/h (3 Bft) SW 229 0 min 0,000 mm 0,0 UV-I 0 W/m 7,0 C 1,7 C 24,1 km/h (4 Bft) 96,15 %
23.05.2016 22:11 7,9 C 94 % 1010,4 hPa 0,0 l/m 18,8 km/h (3 Bft) SW 223 0 min 0,000 mm 0,0 UV-I 0 W/m 7,0 C 1,0 C 24,1 km/h (4 Bft) 100,00 %
23.05.2016 22:12 7,9 C 93 % 1010,4 hPa 0,2 l/m 20,6 km/h (4 Bft) S-SW 194 0 min 0,000 mm 0,0 UV-I 0 W/m 6,8 C 0,4 C 29,0 km/h (5 Bft) 100,00 %
23.05.2016 22:13 7,9 C 93 % 1010,4 hPa 0,0 l/m 20,4 km/h (4 Bft) SW 234 0 min 0,000 mm 0,0 UV-I 0 W/m 6,8 C 0,4 C 29,0 km/h (5 Bft) 100,00 %
23.05.2016 22:14 7,9 C 93 % 1010,5 hPa 0,0 l/m 16,4 km/h (3 Bft) SW 230 0 min 0,000 mm 0,0 UV-I 0 W/m 6,8 C 2,0 C 20,9 km/h (4 Bft) 100,00 %
23.05.2016 22:15 7,9 C 94 % 1010,4 hPa 0,0 l/m 17,2 km/h (3 Bft) W-SW 242 0 min 0,000 mm 0,0 UV-I 0 W/m 7,0 C 1,6 C 22,5 km/h (4 Bft) 100,00 %
23.05.2016 22:16 7,9 C 93 % 1010,5 hPa 0,0 l/m 17,2 km/h (3 Bft) W-SW 252 0 min 0,000 mm 0,0 UV-I 0 W/m 6,8 C 1,6 C 24,1 km/h (4 Bft) 100,00 %
23.05.2016 22:17 7,9 C 93 % 1010,4 hPa 0,0 l/m 16,5 km/h (3 Bft) SW 215 0 min 0,000 mm 0,0 UV-I 0 W/m 6,8 C 1,9 C 22,5 km/h (4 Bft) 100,00 %
23.05.2016 22:18 7,9 C 93 % 1010,5 hPa 0,0 l/m 14,9 km/h (3 Bft) SW 227 0 min 0,000 mm 0,0 UV-I 0 W/m 6,8 C 2,6 C 19,3 km/h (3 Bft) 100,00 %
23.05.2016 22:19 7,9 C 94 % 1010,5 hPa 0,0 l/m 23,6 km/h (4 Bft) W-SW 239 0 min 0,000 mm 0,0 UV-I 0 W/m 7,0 C -0,6 C 30,6 km/h (5 Bft) 100,00 %
23.05.2016 22:20 7,9 C 93 % 1010,5 hPa 0,0 l/m 19,3 km/h (3 Bft) SW 221 0 min 0,000 mm 0,0 UV-I 0 W/m 6,8 C 0,8 C 29,0 km/h (5 Bft) 100,00 %
23.05.2016 22:21 7,9 C 93 % 1010,5 hPa 0,0 l/m 16,4 km/h (3 Bft) W-SW 237 0 min 0,000 mm 0,0 UV-I 0 W/m 6,8 C 2,0 C 20,9 km/h (4 Bft) 100,00 %
23.05.2016 22:22 7,9 C 93 % 1010,5 hPa 0,0 l/m 22,3 km/h (4 Bft) SW 221 0 min 0,000 mm 0,0 UV-I 0 W/m 6,8 C -0,2 C 30,6 km/h (5 Bft) 100,00 %
23.05.2016 22:23 8,0 C 93 % 1010,5 hPa 0,0 l/m 18,5 km/h (3 Bft) W-SW 240 0 min 0,000 mm 0,0 UV-I 0 W/m 6,9 C 1,3 C 24,1 km/h (4 Bft) 100,00 %
23.05.2016 22:24 7,9 C 93 % 1010,5 hPa 0,0 l/m 18,0 km/h (3 Bft) W 261 0 min 0,000 mm 0,0 UV-I 0 W/m 6,8 C 1,3 C 25,7 km/h (4 Bft) 100,00 %
23.05.2016 22:25 7,9 C 93 % 1010,5 hPa 0,0 l/m 16,3 km/h (3 Bft) SW 233 0 min 0,000 mm 0,0 UV-I 0 W/m 6,8 C 2,0 C 25,7 km/h (4 Bft) 96,15 %
23.05.2016 22:26 8,0 C 93 % 1010,5 hPa 0,0 l/m 18,6 km/h (3 Bft) W 269 0 min 0,000 mm 0,0 UV-I 0 W/m 6,9 C 1,2 C 24,1 km/h (4 Bft) 100,00 %
23.05.2016 22:27 8,0 C 93 % 1010,5 hPa 0,0 l/m 14,3 km/h (3 Bft) W-SW 254 0 min 0,000 mm 0,0 UV-I 0 W/m 6,9 C 3,0 C 20,9 km/h (4 Bft) 100,00 %
23.05.2016 22:28 8,0 C 93 % 1010,5 hPa 0,0 l/m 20,5 km/h (4 Bft) W-SW 255 0 min 0,000 mm 0,0 UV-I 0 W/m 6,9 C 0,5 C 33,8 km/h (5 Bft) 100,00 %
23.05.2016 22:29 8,0 C 93 % 1010,5 hPa 0,0 l/m 14,3 km/h (3 Bft) W 270 0 min 0,000 mm 0,0 UV-I 0 W/m 6,9 C 3,0 C 19,3 km/h (3 Bft) 100,00 %
23.05.2016 22:30 8,0 C 93 % 1010,5 hPa 0,0 l/m 16,1 km/h (3 Bft) SW 236 0 min 0,000 mm 0,0 UV-I 0 W/m 6,9 C 2,2 C 22,5 km/h (4 Bft) 100,00 %
23.05.2016 22:31 8,0 C 93 % 1010,5 hPa 0,0 l/m 16,9 km/h (3 Bft) W 271 0 min 0,000 mm 0,0 UV-I 0 W/m 6,9 C 1,9 C 22,5 km/h (4 Bft) 96,15 %
23.05.2016 22:32 8,0 C 93 % 1010,5 hPa 0,0 l/m 15,2 km/h (3 Bft) W-SW 254 0 min 0,000 mm 0,0 UV-I 0 W/m 6,9 C 2,6 C 22,5 km/h (4 Bft) 100,00 %
23.05.2016 22:33 8,0 C 93 % 1010,5 hPa 0,0 l/m 18,4 km/h (3 Bft) W-SW 248 0 min 0,000 mm 0,0 UV-I 0 W/m 6,9 C 1,3 C 24,1 km/h (4 Bft) 100,00 %
23.05.2016 22:34 8,0 C 93 % 1010,5 hPa 0,0 l/m 17,4 km/h (3 Bft) SW 229 0 min 0,000 mm 0,0 UV-I 0 W/m 6,9 C 1,7 C 25,7 km/h (4 Bft) 100,00 %
23.05.2016 22:35 8,0 C 92 % 1010,5 hPa 0,0 l/m 17,1 km/h (3 Bft) W-SW 251 0 min 0,000 mm 0,0 UV-I 0 W/m 6,8 C 1,8 C 22,5 km/h (4 Bft) 100,00 %
23.05.2016 22:36 8,0 C 92 % 1010,5 hPa 0,0 l/m 16,4 km/h (3 Bft) SW 235 0 min 0,000 mm 0,0 UV-I 0 W/m 6,8 C 2,1 C 24,1 km/h (4 Bft) 100,00 %
23.05.2016 22:37 8,0 C 92 % 1010,5 hPa 0,0 l/m 15,8 km/h (3 Bft) S-SW 211 0 min 0,000 mm 0,0 UV-I 0 W/m 6,8 C 2,4 C 19,3 km/h (3 Bft) 100,00 %
23.05.2016 22:38 8,0 C 92 % 1010,5 hPa 0,0 l/m 15,6 km/h (3 Bft) SW 231 0 min 0,000 mm 0,0 UV-I 0 W/m 6,8 C 2,4 C 20,9 km/h (4 Bft) 100,00 %
23.05.2016 22:39 8,0 C 92 % 1010,5 hPa 0,0 l/m 23,3 km/h (4 Bft) W-SW 242 0 min 0,000 mm 0,0 UV-I 0 W/m 6,8 C -0,4 C 32,2 km/h (5 Bft) 100,00 %
23.05.2016 22:40 8,0 C 92 % 1010,5 hPa 0,0 l/m 13,4 km/h (3 Bft) SW 215 0 min 0,000 mm 0,0 UV-I 0 W/m 6,8 C 3,5 C 22,5 km/h (4 Bft) 96,15 %
23.05.2016 22:41 8,0 C 92 % 1010,5 hPa 0,0 l/m 18,4 km/h (3 Bft) W 260 0 min 0,000 mm 0,0 UV-I 0 W/m 6,8 C 1,3 C 27,4 km/h (4 Bft) 100,00 %
23.05.2016 22:42 8,0 C 92 % 1010,5 hPa 0,0 l/m 19,8 km/h (3 Bft) W 264 0 min 0,000 mm 0,0 UV-I 0 W/m 6,8 C 0,8 C 25,7 km/h (4 Bft) 100,00 %
23.05.2016 22:43 8,0 C 92 % 1010,5 hPa 0,0 l/m 18,0 km/h (3 Bft) W-SW 238 0 min 0,000 mm 0,0 UV-I 0 W/m 6,8 C 1,4 C 24,1 km/h (4 Bft) 100,00 %
23.05.2016 22:44 8,1 C 92 % 1010,5 hPa 0,0 l/m 19,4 km/h (3 Bft) W-SW 248 0 min 0,000 mm 0,0 UV-I 0 W/m 6,9 C 1,0 C 27,4 km/h (4 Bft) 95,65 %
23.05.2016 22:45 8,1 C 92 % 1010,5 hPa 0,0 l/m 17,4 km/h (3 Bft) SW 230 0 min 0,000 mm 0,0 UV-I 0 W/m 6,9 C 1,8 C 22,5 km/h (4 Bft) 100,00 %
23.05.2016 22:46 8,0 C 92 % 1010,5 hPa 0,0 l/m 19,6 km/h (3 Bft) S-SW 202 0 min 0,000 mm 0,0 UV-I 0 W/m 6,8 C 0,8 C 27,4 km/h (4 Bft) 95,65 %
23.05.2016 22:47 8,1 C 92 % 1010,5 hPa 0,0 l/m 22,5 km/h (4 Bft) W-SW 256 0 min 0,000 mm 0,0 UV-I 0 W/m 6,9 C 0,0 C 29,0 km/h (5 Bft) 100,00 %
23.05.2016 22:48 8,0 C 92 % 1010,5 hPa 0,0 l/m 19,5 km/h (3 Bft) W 263 0 min 0,000 mm 0,0 UV-I 0 W/m 6,8 C 0,9 C 25,7 km/h (4 Bft) 100,00 %
23.05.2016 22:49 8,1 C 92 % 1010,5 hPa 0,0 l/m 16,1 km/h (3 Bft) W-SW 238 0 min 0,000 mm 0,0 UV-I 0 W/m 6,9 C 2,3 C 20,9 km/h (4 Bft) 100,00 %
23.05.2016 22:50 8,1 C 91 % 1010,5 hPa 0,0 l/m 16,7 km/h (3 Bft) W 263 0 min 0,000 mm 0,0 UV-I 0 W/m 6,7 C 2,1 C 24,1 km/h (4 Bft) 100,00 %
23.05.2016 22:51 8,0 C 92 % 1010,5 hPa 0,0 l/m 19,1 km/h (3 Bft) W 267 0 min 0,000 mm 0,0 UV-I 0 W/m 6,8 C 1,0 C 25,7 km/h (4 Bft) 100,00 %
23.05.2016 22:52 8,1 C 92 % 1010,5 hPa 0,0 l/m 18,3 km/h (3 Bft) W-SW 240 0 min 0,000 mm 0,0 UV-I 0 W/m 6,9 C 1,5 C 24,1 km/h (4 Bft) 100,00 %
23.05.2016 22:53 8,1 C 92 % 1010,6 hPa 0,0 l/m 15,5 km/h (3 Bft) W-SW 240 0 min 0,000 mm 0,0 UV-I 0 W/m 6,9 C 2,6 C 20,9 km/h (4 Bft) 100,00 %
23.05.2016 22:54 8,1 C 92 % 1010,6 hPa 0,0 l/m 16,8 km/h (3 Bft) W-SW 239 0 min 0,000 mm 0,0 UV-I 0 W/m 6,9 C 2,1 C 22,5 km/h (4 Bft) 100,00 %
23.05.2016 22:55 8,1 C 92 % 1010,6 hPa 0,0 l/m 15,4 km/h (3 Bft) W-SW 240 0 min 0,000 mm 0,0 UV-I 0 W/m 6,9 C 2,7 C 22,5 km/h (4 Bft) 96,15 %
23.05.2016 22:56 8,1 C 91 % 1010,5 hPa 0,0 l/m 19,6 km/h (3 Bft) W-SW 252 0 min 0,000 mm 0,0 UV-I 0 W/m 6,7 C 1,0 C 25,7 km/h (4 Bft) 96,30 %
23.05.2016 22:57 8,0 C 91 % 1010,5 hPa 0,0 l/m 18,1 km/h (3 Bft) SW 231 0 min 0,000 mm 0,0 UV-I 0 W/m 6,6 C 1,4 C 27,4 km/h (4 Bft) 100,00 %
23.05.2016 22:58 8,1 C 91 % 1010,6 hPa 0,0 l/m 15,3 km/h (3 Bft) SW 230 0 min 0,000 mm 0,0 UV-I 0 W/m 6,7 C 2,7 C 19,3 km/h (3 Bft) 100,00 %
23.05.2016 22:59 8,1 C 91 % 1010,6 hPa 0,0 l/m 14,3 km/h (3 Bft) SW 227 0 min 0,000 mm 0,0 UV-I 0 W/m 6,7 C 3,2 C 19,3 km/h (3 Bft) 100,00 %
23.05.2016 23:00 8,1 C 91 % 1010,6 hPa 0,0 l/m 15,6 km/h (3 Bft) W-SW 249 0 min 0,000 mm 0,0 UV-I 0 W/m 6,7 C 2,6 C 19,3 km/h (3 Bft) 100,00 %
23.05.2016 23:02 8,1 C 91 % 1010,5 hPa 0,0 l/m 15,1 km/h (3 Bft) W 262 0 min 0,026 mm 0,0 UV-I 0 W/m 6,7 C 2,8 C 19,3 km/h (3 Bft) 100,00 %
23.05.2016 23:03 8,1 C 91 % 1010,5 hPa 0,0 l/m 18,5 km/h (3 Bft) W-SW 252 0 min 0,000 mm 0,0 UV-I 0 W/m 6,7 C 1,4 C 24,1 km/h (4 Bft) 100,00 %
23.05.2016 23:04 8,1 C 91 % 1010,5 hPa 0,0 l/m 18,5 km/h (3 Bft) W-SW 244 0 min 0,000 mm 0,0 UV-I 0 W/m 6,7 C 1,4 C 25,7 km/h (4 Bft) 100,00 %
23.05.2016 23:05 8,1 C 91 % 1010,5 hPa 0,0 l/m 17,1 km/h (3 Bft) W-SW 247 0 min 0,000 mm 0,0 UV-I 0 W/m 6,7 C 1,9 C 22,5 km/h (4 Bft) 100,00 %
23.05.2016 23:06 8,1 C 91 % 1010,5 hPa 0,0 l/m 17,5 km/h (3 Bft) W-SW 254 0 min 0,000 mm 0,0 UV-I 0 W/m 6,7 C 1,8 C 24,1 km/h (4 Bft) 100,00 %
23.05.2016 23:07 8,1 C 91 % 1010,4 hPa 0,0 l/m 20,3 km/h (4 Bft) SW 229 0 min 0,000 mm 0,0 UV-I 0 W/m 6,7 C 0,7 C 24,1 km/h (4 Bft) 100,00 %
23.05.2016 23:08 8,1 C 91 % 1010,4 hPa 0,0 l/m 13,0 km/h (3 Bft) W-SW 240 0 min 0,000 mm 0,0 UV-I 0 W/m 6,7 C 3,8 C 17,7 km/h (3 Bft) 100,00 %
23.05.2016 23:09 8,1 C 91 % 1010,3 hPa 0,0 l/m 14,8 km/h (3 Bft) W-SW 244 0 min 0,000 mm 0,0 UV-I 0 W/m 6,7 C 2,9 C 19,3 km/h (3 Bft) 100,00 %
23.05.2016 23:10 8,1 C 91 % 1010,3 hPa 0,0 l/m 19,0 km/h (3 Bft) W-SW 244 0 min 0,000 mm 0,0 UV-I 0 W/m 6,7 C 1,2 C 22,5 km/h (4 Bft) 95,65 %
23.05.2016 23:11 8,1 C 91 % 1010,3 hPa 0,0 l/m 18,6 km/h (3 Bft) W-SW 239 0 min 0,000 mm 0,0 UV-I 0 W/m 6,7 C 1,3 C 22,5 km/h (4 Bft) 100,00 %
23.05.2016 23:12 8,1 C 91 % 1010,3 hPa 0,0 l/m 14,7 km/h (3 Bft) W-SW 248 0 min 0,000 mm 0,0 UV-I 0 W/m 6,7 C 3,0 C 20,9 km/h (4 Bft) 100,00 %
23.05.2016 23:13 8,1 C 91 % 1010,3 hPa 0,0 l/m 18,4 km/h (3 Bft) W 261 0 min 0,000 mm 0,0 UV-I 0 W/m 6,7 C 1,4 C 22,5 km/h (4 Bft) 100,00 %
23.05.2016 23:14 8,1 C 91 % 1010,3 hPa 0,0 l/m 17,5 km/h (3 Bft) W-SW 248 0 min 0,000 mm 0,0 UV-I 0 W/m 6,7 C 1,8 C 24,1 km/h (4 Bft) 100,00 %
23.05.2016 23:15 8,1 C 91 % 1010,3 hPa 0,0 l/m 16,6 km/h (3 Bft) W-SW 248 0 min 0,000 mm 0,0 UV-I 0 W/m 6,7 C 2,1 C 25,7 km/h (4 Bft) 96,30 %
23.05.2016 23:16 8,1 C 91 % 1010,2 hPa 0,0 l/m 16,6 km/h (3 Bft) W 266 0 min 0,000 mm 0,0 UV-I 0 W/m 6,7 C 2,1 C 20,9 km/h (4 Bft) 100,00 %
23.05.2016 23:17 8,1 C 91 % 1010,2 hPa 0,0 l/m 14,4 km/h (3 Bft) SW 224 0 min 0,000 mm 0,0 UV-I 0 W/m 6,7 C 3,1 C 20,9 km/h (4 Bft) 100,00 %
23.05.2016 23:18 8,1 C 91 % 1010,3 hPa 0,0 l/m 13,8 km/h (3 Bft) W-SW 251 0 min 0,000 mm 0,0 UV-I 0 W/m 6,7 C 3,4 C 19,3 km/h (3 Bft) 100,00 %
23.05.2016 23:19 8,1 C 91 % 1010,3 hPa 0,0 l/m 14,1 km/h (3 Bft) W 263 0 min 0,000 mm 0,0 UV-I 0 W/m 6,7 C 3,3 C 20,9 km/h (4 Bft) 96,30 %
23.05.2016 23:20 8,1 C 91 % 1010,3 hPa 0,0 l/m 16,1 km/h (3 Bft) SW 232 0 min 0,000 mm 0,0 UV-I 0 W/m 6,7 C 2,3 C 20,9 km/h (4 Bft) 100,00 %
23.05.2016 23:21 8,1 C 91 % 1010,3 hPa 0,0 l/m 13,4 km/h (3 Bft) W-SW 242 0 min 0,000 mm 0,0 UV-I 0 W/m 6,7 C 3,6 C 17,7 km/h (3 Bft) 100,00 %
23.05.2016 23:22 8,1 C 91 % 1010,3 hPa 0,0 l/m 12,4 km/h (3 Bft) W 266 0 min 0,000 mm 0,0 UV-I 0 W/m 6,7 C 4,1 C 16,1 km/h (3 Bft) 100,00 %
23.05.2016 23:23 8,1 C 91 % 1010,3 hPa 0,0 l/m 17,0 km/h (3 Bft) W-SW 246 0 min 0,000 mm 0,0 UV-I 0 W/m 6,7 C 2,0 C 24,1 km/h (4 Bft) 100,00 %
23.05.2016 23:24 8,1 C 91 % 1010,3 hPa 0,0 l/m 13,3 km/h (3 Bft) W 263 0 min 0,000 mm 0,0 UV-I 0 W/m 6,7 C 3,6 C 20,9 km/h (4 Bft) 100,00 %
23.05.2016 23:25 8,1 C 91 % 1010,2 hPa 0,0 l/m 12,8 km/h (3 Bft) W-SW 254 0 min 0,000 mm 0,0 UV-I 0 W/m 6,7 C 3,9 C 16,1 km/h (3 Bft) 100,00 %
23.05.2016 23:26 8,1 C 91 % 1010,3 hPa 0,0 l/m 17,2 km/h (3 Bft) W 277 0 min 0,000 mm 0,0 UV-I 0 W/m 6,7 C 1,9 C 24,1 km/h (4 Bft) 100,00 %
23.05.2016 23:27 8,1 C 91 % 1010,3 hPa 0,0 l/m 12,4 km/h (3 Bft) W-SW 255 0 min 0,000 mm 0,0 UV-I 0 W/m 6,7 C 4,1 C 19,3 km/h (3 Bft) 100,00 %
23.05.2016 23:28 8,1 C 91 % 1010,3 hPa 0,0 l/m 16,6 km/h (3 Bft) W 273 0 min 0,000 mm 0,0 UV-I 0 W/m 6,7 C 2,1 C 24,1 km/h (4 Bft) 100,00 %
23.05.2016 23:29 8,1 C 91 % 1010,3 hPa 0,0 l/m 16,6 km/h (3 Bft) W-SW 253 0 min 0,000 mm 0,0 UV-I 0 W/m 6,7 C 2,1 C 24,1 km/h (4 Bft) 100,00 %
23.05.2016 23:30 8,2 C 91 % 1010,3 hPa 0,0 l/m 22,4 km/h (4 Bft) W-NW 283 0 min 0,000 mm 0,0 UV-I 0 W/m 6,8 C 0,2 C 35,4 km/h (5 Bft) 100,00 %
23.05.2016 23:31 8,2 C 91 % 1010,3 hPa 0,0 l/m 15,8 km/h (3 Bft) W-NW 290 0 min 0,000 mm 0,0 UV-I 0 W/m 6,8 C 2,6 C 19,3 km/h (3 Bft) 96,15 %
23.05.2016 23:32 8,2 C 91 % 1010,3 hPa 0,0 l/m 13,0 km/h (3 Bft) W-SW 240 0 min 0,000 mm 0,0 UV-I 0 W/m 6,8 C 3,9 C 19,3 km/h (3 Bft) 100,00 %
23.05.2016 23:33 8,2 C 91 % 1010,3 hPa 0,0 l/m 13,9 km/h (3 Bft) W-SW 250 0 min 0,000 mm 0,0 UV-I 0 W/m 6,8 C 3,5 C 17,7 km/h (3 Bft) 95,65 %
23.05.2016 23:34 8,2 C 91 % 1010,4 hPa 0,0 l/m 13,1 km/h (3 Bft) W 262 0 min 0,000 mm 0,0 UV-I 0 W/m 6,8 C 3,9 C 17,7 km/h (3 Bft) 100,00 %
23.05.2016 23:35 8,2 C 91 % 1010,4 hPa 0,0 l/m 15,7 km/h (3 Bft) W-SW 250 0 min 0,000 mm 0,0 UV-I 0 W/m 6,8 C 2,6 C 24,1 km/h (4 Bft) 96,15 %
23.05.2016 23:36 8,2 C 91 % 1010,4 hPa 0,0 l/m 10,7 km/h (2 Bft) W-SW 240 0 min 0,000 mm 0,0 UV-I 0 W/m 6,8 C 5,2 C 16,1 km/h (3 Bft) 96,97 %
23.05.2016 23:37 8,2 C 91 % 1010,4 hPa 0,0 l/m 17,3 km/h (3 Bft) W-SW 238 0 min 0,000 mm 0,0 UV-I 0 W/m 6,8 C 2,0 C 22,5 km/h (4 Bft) 90,91 %
23.05.2016 23:38 8,2 C 91 % 1010,3 hPa 0,0 l/m 16,3 km/h (3 Bft) SW 236 0 min 0,000 mm 0,0 UV-I 0 W/m 6,8 C 2,4 C 22,5 km/h (4 Bft) 96,30 %
23.05.2016 23:39 8,2 C 91 % 1010,3 hPa 0,0 l/m 15,7 km/h (3 Bft) W-NW 289 0 min 0,000 mm 0,0 UV-I 0 W/m 6,8 C 2,6 C 22,5 km/h (4 Bft) 100,00 %
23.05.2016 23:40 8,2 C 91 % 1010,3 hPa 0,0 l/m 11,8 km/h (2 Bft) W-SW 249 0 min 0,000 mm 0,0 UV-I 0 W/m 6,8 C 4,6 C 17,7 km/h (3 Bft) 96,30 %
23.05.2016 23:41 8,2 C 90 % 1010,4 hPa 0,0 l/m 9,5 km/h (2 Bft) SW 233 0 min 0,000 mm 0,0 UV-I 0 W/m 6,7 C 5,9 C 12,9 km/h (3 Bft) 100,00 %
23.05.2016 23:42 8,2 C 91 % 1010,4 hPa 0,0 l/m 10,5 km/h (2 Bft) W-SW 252 0 min 0,000 mm 0,0 UV-I 0 W/m 6,8 C 5,3 C 14,5 km/h (3 Bft) 95,83 %
23.05.2016 23:43 8,2 C 91 % 1010,4 hPa 0,0 l/m 11,3 km/h (2 Bft) W-SW 238 0 min 0,000 mm 0,0 UV-I 0 W/m 6,8 C 4,8 C 16,1 km/h (3 Bft) 92,31 %
23.05.2016 23:44 8,2 C 91 % 1010,4 hPa 0,0 l/m 13,2 km/h (3 Bft) SW 236 0 min 0,000 mm 0,0 UV-I 0 W/m 6,8 C 3,8 C 24,1 km/h (4 Bft) 100,00 %
23.05.2016 23:45 8,2 C 91 % 1010,4 hPa 0,0 l/m 11,8 km/h (2 Bft) W-SW 254 0 min 0,000 mm 0,0 UV-I 0 W/m 6,8 C 4,6 C 17,7 km/h (3 Bft) 96,55 %
23.05.2016 23:46 8,2 C 91 % 1010,4 hPa 0,0 l/m 10,5 km/h (2 Bft) W-SW 255 0 min 0,000 mm 0,0 UV-I 0 W/m 6,8 C 5,3 C 16,1 km/h (3 Bft) 100,00 %
23.05.2016 23:47 8,2 C 91 % 1010,4 hPa 0,0 l/m 11,8 km/h (2 Bft) SW 231 0 min 0,000 mm 0,0 UV-I 0 W/m 6,8 C 4,6 C 17,7 km/h (3 Bft) 96,15 %
23.05.2016 23:48 8,2 C 90 % 1010,4 hPa 0,0 l/m 10,3 km/h (2 Bft) W-SW 256 0 min 0,000 mm 0,0 UV-I 0 W/m 6,7 C 5,4 C 17,7 km/h (3 Bft) 100,00 %
23.05.2016 23:49 8,2 C 90 % 1010,4 hPa 0,0 l/m 12,8 km/h (3 Bft) W-SW 248 0 min 0,000 mm 0,0 UV-I 0 W/m 6,7 C 4,0 C 17,7 km/h (3 Bft) 96,15 %
23.05.2016 23:50 8,2 C 91 % 1010,4 hPa 0,0 l/m 14,6 km/h (3 Bft) W-SW 252 0 min 0,000 mm 0,0 UV-I 0 W/m 6,8 C 3,1 C 22,5 km/h (4 Bft) 96,30 %
23.05.2016 23:51 8,2 C 90 % 1010,5 hPa 0,0 l/m 10,9 km/h (2 Bft) SW 234 0 min 0,000 mm 0,0 UV-I 0 W/m 6,7 C 5,1 C 17,7 km/h (3 Bft) 100,00 %
23.05.2016 23:52 8,2 C 90 % 1010,4 hPa 0,0 l/m 12,9 km/h (3 Bft) W 261 0 min 0,000 mm 0,0 UV-I 0 W/m 6,7 C 4,0 C 16,1 km/h (3 Bft) 96,55 %
23.05.2016 23:53 8,2 C 90 % 1010,4 hPa 0,0 l/m 13,5 km/h (3 Bft) W 260 0 min 0,000 mm 0,0 UV-I 0 W/m 6,7 C 3,7 C 19,3 km/h (3 Bft) 100,00 %
23.05.2016 23:54 8,3 C 90 % 1010,4 hPa 0,0 l/m 9,0 km/h (2 Bft) W 263 0 min 0,000 mm 0,0 UV-I 0 W/m 6,8 C 6,4 C 16,1 km/h (3 Bft) 96,15 %
23.05.2016 23:55 8,2 C 90 % 1010,5 hPa 0,0 l/m 9,2 km/h (2 Bft) W-SW 257 0 min 0,000 mm 0,0 UV-I 0 W/m 6,7 C 6,1 C 14,5 km/h (3 Bft) 100,00 %
23.05.2016 23:56 8,2 C 90 % 1010,5 hPa 0,0 l/m 10,7 km/h (2 Bft) SW 225 0 min 0,000 mm 0,0 UV-I 0 W/m 6,7 C 5,2 C 14,5 km/h (3 Bft) 95,65 %
23.05.2016 23:57 8,2 C 90 % 1010,5 hPa 0,0 l/m 6,8 km/h (2 Bft) W-SW 239 0 min 0,000 mm 0,0 UV-I 0 W/m 6,7 C 7,9 C 8,0 km/h (2 Bft) 100,00 %
23.05.2016 23:58 8,2 C 90 % 1010,5 hPa 0,0 l/m 11,8 km/h (2 Bft) W-SW 257 0 min 0,000 mm 0,0 UV-I 0 W/m 6,7 C 4,6 C 17,7 km/h (3 Bft) 96,15 %
23.05.2016 23:59 8,2 C 90 % 1010,5 hPa 0,0 l/m 12,1 km/h (2 Bft) W 280 0 min 0,000 mm 0,0 UV-I 0 W/m 6,7 C 4,4 C 16,1 km/h (3 Bft) 100,00 %
_ Min-Zeit 21:54 14:33 00:30 - 01:16 - - - - - - 22:57 20:54 01:16 03:51
Minimum _ 7,9 C 63 % 1005,2 hPa - 0,0 km/h (0 Bft) - - - - - - 6,6 C -1,0 C 0,0 km/h (0 Bft) 83,33 %
_ Max-Zeit 14:31 21:48 22:53 15:40 17:28 - - 06:47 10:00 14:26 14:26 14:27 14:29 17:28 00:03
Maximum _ 20,6 C 94 % 1010,6 hPa 0,4 l/m 30,7 km/h
W-SW (5 Bft)
- - 2 min 0,305 mm 4,8 UV-I 1013 W/m 14,2 C 20,2 C 46,7 km/h
SW (6 Bft)
100,00 %
Durchschnitt _ 14,4 C 80 % 1007,3 hPa #9,8 l/m 11,5 km/h (2 Bft) W-SW - #4:38 h #2,591 mm 2,2 UV-I 236 W/m 10,8 C 11,5 C 16,6 km/h (3 Bft) 98,66 %